[[{"header":{"parameterUnit":"m.s-1","parameterCategory":1,"la1":30.6,"la2":28.766,"lo1":-90.7593,"lo2":-88.6598,"dy":0.0162,"dx":0.0183,"nx":116,"ny":114,"refTime":"2023-08-19T18:00:00:Z","depth":0,"parameterNumber":2,"parameterNumberName":"U-component_of_WINDS"},"data":[0.0,0.0,0.0,0.0,0.0,0.0,0.0,0.0,0.0,0.0,0.0,0.0,0.0,0.0,0.0,0.0,0.0,0.0,0.0,0.0,0.0,0.0,0.0,0.0,0.0,0.0,0.0,0.0,0.0,0.0,0.0,0.0,0.0,0.0,0.0,0.0,0.0,0.0,0.0,0.0,0.0,0.0,0.0,0.0,0.0,0.0,0.0,0.0,0.0,0.0,0.0,0.0,0.0,0.0,0.0,0.0,0.0,0.0,0.0,0.0,0.0,0.0,0.0,0.0,0.0,0.0,0.0,0.0,0.0,0.0,0.0,0.0,0.0,0.0,0.0,0.0,0.0,0.0,0.0,0.0,0.0,0.0,0.0,0.0,0.0,0.0,0.0,0.0,0.0,0.0,0.0,0.0,0.0,0.0,0.0,0.0,0.0,0.0,0.0,0.0,0.0,0.0,0.0,0.0,0.0,0.0,0.0,0.0,0.0,0.0,0.0,0.0,0.0,0.0,0.0,0.0,0.0,0.0,0.0,0.0,0.0,0.0,0.0,0.0,0.0,0.0,0.0,0.0,0.0,0.0,0.0,0.0,0.0,0.0,0.0,0.0,0.0,0.0,0.0,0.0,0.0,0.0,0.0,0.0,0.0,0.0,0.0,0.0,0.0,0.0,0.0,0.0,0.0,0.0,0.0,0.0,0.0,0.0,0.0,0.0,0.0,0.0,0.0,0.0,0.0,0.0,0.0,0.0,0.0,0.0,0.0,0.0,0.0,0.0,0.0,0.0,0.0,0.0,0.0,0.0,0.0,0.0,0.0,0.0,0.0,0.0,0.0,0.0,0.0,0.0,0.0,0.0,0.0,0.0,0.0,0.0,0.0,0.0,0.0,0.0,0.0,0.0,0.0,0.0,0.0,0.0,0.0,0.0,0.0,0.0,0.0,0.0,0.0,0.0,0.0,0.0,0.0,0.0,0.0,0.0,0.0,0.0,0.0,0.0,0.0,0.0,0.0,0.0,0.0,0.0,0.0,0.0,0.0,0.0,0.0,0.0,0.0,0.0,0.0,0.0,0.0,0.0,0.0,0.0,0.0,0.0,0.0,0.0,0.0,0.0,0.0,0.0,0.0,0.0,0.0,0.0,0.0,0.0,0.0,0.0,0.0,0.0,0.0,0.0,0.0,0.0,0.0,0.0,0.0,0.0,0.0,0.0,0.0,0.0,0.0,0.0,0.0,0.0,0.0,0.0,0.0,0.0,0.0,0.0,0.0,0.0,0.0,0.0,0.0,0.0,0.0,0.0,0.0,0.0,0.0,0.0,0.0,0.0,0.0,0.0,0.0,0.0,0.0,0.0,0.0,0.0,0.0,0.0,0.0,0.0,0.0,0.0,0.0,0.0,0.0,0.0,0.0,0.0,0.0,0.0,0.0,0.0,0.0,0.0,0.0,0.0,0.0,0.0,0.0,0.0,0.0,0.0,0.0,0.0,0.0,0.0,0.0,0.0,0.0,0.0,0.0,0.0,0.0,0.0,0.0,0.0,0.0,0.0,0.0,0.0,0.0,0.0,0.0,0.0,0.0,0.0,0.0,0.0,0.0,0.0,0.0,0.0,0.0,0.0,0.0,0.0,0.0,0.0,0.0,0.0,0.0,0.0,0.0,0.0,0.0,0.0,0.0,0.0,0.0,0.0,0.0,0.0,0.0,0.0,0.0,0.0,0.0,0.0,0.0,0.0,0.0,0.0,0.0,0.0,0.0,0.0,0.0,0.0,0.0,0.0,0.0,0.0,0.0,0.0,0.0,0.0,0.0,0.0,0.0,0.0,0.0,0.0,0.0,0.0,0.0,0.0,0.0,0.0,0.0,0.0,0.0,0.0,0.0,0.0,0.0,0.0,0.0,0.0,0.0,0.0,0.0,0.0,0.0,0.0,0.0,0.0,0.0,0.0,0.0,0.0,0.0,0.0,0.0,0.0,0.0,0.0,0.0,0.0,0.0,0.0,0.0,0.0,0.0,0.0,0.0,0.0,0.0,0.0,0.0,0.0,0.0,0.0,0.0,0.0,0.0,0.0,0.0,0.0,0.0,0.0,0.0,0.0,0.0,0.0,0.0,0.0,0.0,0.0,0.0,0.0,0.0,0.0,0.0,0.0,0.0,0.0,0.0,0.0,0.0,0.0,0.0,0.0,0.0,0.0,0.0,0.0,0.0,0.0,0.0,0.0,0.0,0.0,0.0,0.0,0.0,0.0,0.0,0.0,0.0,0.0,0.0,0.0,0.0,0.0,0.0,0.0,0.0,0.0,0.0,0.0,0.0,0.0,0.0,0.0,0.0,0.0,0.0,0.0,0.0,0.0,0.0,0.0,0.0,0.0,0.0,0.0,0.0,0.0,0.0,0.0,0.0,0.0,0.0,0.0,0.0,0.0,0.0,0.0,0.0,0.0,0.0,0.0,0.0,0.0,0.0,0.0,0.0,0.0,0.0,0.0,0.0,0.0,0.0,0.0,0.0,0.0,0.0,0.0,0.0,0.0,0.0,0.0,0.0,0.0,0.0,0.0,0.0,0.0,0.0,0.0,0.0,0.0,0.0,0.0,0.0,0.0,0.0,0.0,0.0,0.0,0.0,0.0,0.0,0.0,0.0,0.0,0.0,0.0,0.0,0.0,0.0,0.0,0.0,0.0,0.0,0.0,0.0,0.0,0.0,0.0,0.0,0.0,0.0,0.0,0.0,0.0,0.0,0.0,0.0,0.0,0.0,0.0,0.0,0.0,0.0,0.0,0.0,0.0,0.0,0.0,0.0,0.0,0.0,0.0,0.0,0.0,0.0,0.0,0.0,0.0,0.0,0.0,0.0,0.0,0.0,0.0,0.0,0.0,0.0,0.0,0.0,0.0,0.0,0.0,0.0,0.0,0.0,0.0,0.0,0.0,0.0,0.0,0.0,0.0,0.0,0.0,0.0,0.0,0.0,0.0,0.0,0.0,0.0,0.0,0.0,0.0,0.0,0.0,0.0,0.0,0.0,0.0,0.0,0.0,0.0,0.0,0.0,0.0,0.0,0.0,0.0,0.0,0.0,0.0,0.0,0.0,0.0,0.0,0.0,0.0,0.0,0.0,0.0,0.0,0.0,0.0,0.0,0.0,0.0,0.0,0.0,0.0,0.0,0.0,0.0,0.0,0.0,0.0,0.0,0.0,0.0,0.0,0.0,0.0,0.0,0.0,0.0,0.0,0.0,0.0,0.0,0.0,0.0,0.0,0.0,0.0,0.0,0.0,0.0,0.0,0.0,0.0,0.0,0.0,0.0,0.0,0.0,0.0,0.0,0.0,0.0,0.0,0.0,0.0,0.0,0.0,0.0,0.0,0.0,0.0,0.0,0.0,0.0,0.0,0.0,0.0,0.0,0.0,0.0,0.0,0.0,0.0,0.0,0.0,0.0,0.0,0.0,0.0,0.0,0.0,0.0,0.0,0.0,0.0,0.0,0.0,0.0,0.0,0.0,0.0,0.0,0.0,0.0,0.0,0.0,0.0,0.0,0.0,0.0,0.0,0.0,0.0,0.0,0.0,0.0,0.0,0.0,0.0,0.0,0.0,0.0,0.0,0.0,0.0,0.0,0.0,0.0,0.0,0.0,0.0,0.0,0.0,0.0,0.0,0.0,0.0,0.0,0.0,0.0,0.0,0.0,0.0,0.0,0.0,0.0,0.0,0.0,0.0,0.0,0.0,0.0,0.0,0.0,0.0,0.0,0.0,0.0,0.0,0.0,0.0,0.0,0.0,0.0,0.0,0.0,0.0,0.0,0.0,0.0,0.0,0.0,0.0,0.0,0.0,0.0,0.0,0.0,0.0,0.0,0.0,0.0,0.0,0.0,0.0,0.0,0.0,0.0,0.0,0.0,0.0,0.0,0.0,0.0,0.0,0.0,0.0,0.0,0.0,0.0,0.0,0.0,0.0,0.0,0.0,0.0,0.0,0.0,0.0,0.0,0.0,0.0,0.0,0.0,0.0,0.0,0.0,0.0,0.0,0.0,0.0,0.0,0.0,0.0,0.0,0.0,0.0,0.0,0.0,0.0,0.0,0.0,0.0,0.0,0.0,0.0,0.0,0.0,0.0,0.0,0.0,0.0,0.0,0.0,0.0,0.0,0.0,0.0,0.0,0.0,0.0,0.0,0.0,0.0,0.0,0.0,0.0,0.0,0.0,0.0,0.0,0.0,0.0,0.0,0.0,0.0,0.0,0.0,0.0,0.0,0.0,0.0,0.0,0.0,0.0,0.0,0.0,0.0,0.0,0.0,0.0,0.0,0.0,0.0,0.0,0.0,0.0,0.0,0.0,0.0,0.0,0.0,0.0,0.0,0.0,0.0,0.0,0.0,0.0,0.0,0.0,0.0,0.0,0.0,0.0,0.0,0.0,0.0,0.0,0.0,0.0,0.0,0.0,0.0,0.0,0.0,0.0,0.0,0.0,0.0,0.0,0.0,0.0,0.0,0.0,0.0,0.0,0.0,0.0,0.0,0.0,0.0,0.0,0.0,0.0,0.0,0.0,0.0,0.0,0.0,0.0,0.0,0.0,0.0,0.0,0.0,0.0,0.0,0.0,0.0,0.0,0.0,0.0,0.0,0.0,0.0,0.0,0.0,0.0,0.0,0.0,0.0,0.0,0.0,0.0,0.0,0.0,0.0,0.0,0.0,0.0,0.0,0.0,0.0,0.0,0.0,0.0,0.0,0.0,0.0,0.0,0.0,0.0,0.0,0.0,0.0,0.0,0.0,0.0,0.0,0.0,0.0,0.0,0.0,0.0,0.0,0.0,0.0,0.0,0.0,0.0,0.0,0.0,0.0,0.0,0.0,0.0,0.0,0.0,0.0,0.0,0.0,0.0,0.0,0.0,0.0,0.0,0.0,0.0,0.0,0.0,0.0,0.0,0.0,0.0,0.0,0.0,0.0,0.0,0.0,0.0,0.0,0.0,0.0,0.0,0.0,0.0,0.0,0.0,0.0,0.0,0.0,0.0,0.0,0.0,0.0,0.0,0.0,0.0,0.0,0.0,0.0,0.0,0.0,0.0,0.0,0.0,0.0,0.0,0.0,0.0,0.0,0.0,0.0,0.0,0.0,0.0,0.0,0.0,0.0,0.0,0.0,0.0,0.0,0.0,0.0,0.0,0.0,0.0,0.0,0.0,0.0,0.0,0.0,0.0,0.0,0.0,0.0,0.0,0.0,0.0,0.0,0.0,0.0,0.0,0.0,0.0,0.0,0.0,0.0,0.0,0.0,0.0,0.0,0.0,0.0,0.0,0.0,0.0,0.0,0.0,0.0,0.0,0.0,0.0,0.0,0.0,0.0,0.0,0.0,0.0,0.0,0.0,0.0,0.0,0.0,0.0,0.0,0.0,0.0,0.0,0.0,0.0,0.0,0.0,0.0,0.0,0.0,0.0,0.0,0.0,0.0,0.0,0.0,0.0,0.0,0.0,0.0,0.0,0.0,0.0,0.0,0.0,0.0,0.0,0.0,0.0,0.0,0.0,0.0,0.0,0.0,0.0,0.0,0.0,0.0,0.0,0.0,0.0,0.0,0.0,0.0,0.0,0.0,0.0,0.0,0.0,0.0,0.0,0.0,0.0,0.0,0.0,0.0,0.0,0.0,0.0,0.0,0.0,0.0,0.0,0.0,0.0,0.0,0.0,0.0,0.0,0.0,0.0,0.0,0.0,0.0,0.0,0.0,0.0,0.0,0.0,0.0,0.0,0.0,0.0,0.0,0.0,0.0,0.0,0.0,0.0,0.0,0.0,0.0,0.0,0.0,0.0,0.0,0.0,0.0,0.0,0.0,0.0,0.0,0.0,0.0,0.0,0.0,0.0,0.0,0.0,0.0,0.0,0.0,0.0,0.0,0.0,0.0,0.0,0.0,0.0,0.0,0.0,0.0,0.0,0.0,0.0,0.0,0.0,0.0,0.0,0.0,0.0,0.0,0.0,0.0,0.0,0.0,0.0,0.0,0.0,0.0,0.0,0.0,0.0,0.0,0.0,0.0,0.0,0.0,0.0,0.0,0.0,0.0,0.0,0.0,0.0,0.0,0.0,0.0,0.0,0.0,0.0,0.0,0.0,3.0607,0.0,0.0,0.0,0.0,0.0,0.0,0.0,0.0,0.0,0.0,0.0,0.0,0.0,0.0,0.0,0.0,0.0,0.0,0.0,0.0,0.0,0.0,0.0,0.0,0.0,0.0,0.0,0.0,0.0,0.0,0.0,0.0,0.0,0.0,0.0,0.0,0.0,0.0,0.0,3.1468,3.2732,3.3583,3.4433,3.4603,3.4168,0.0,0.0,0.0,0.0,0.0,0.0,0.0,0.0,0.0,0.0,0.0,0.0,0.0,0.0,0.0,0.0,0.0,0.0,0.0,0.0,0.0,0.0,0.0,0.0,0.0,0.0,0.0,0.0,0.0,0.0,0.0,0.0,0.0,0.0,0.0,0.0,0.0,0.0,0.0,0.0,0.0,0.0,0.0,0.0,0.0,0.0,0.0,0.0,0.0,0.0,0.0,0.0,0.0,0.0,0.0,0.0,0.0,0.0,0.0,0.0,0.0,0.0,0.0,0.0,0.0,0.0,0.0,0.0,0.0,0.0,0.0,3.0598,0.0,0.0,0.0,0.0,0.0,0.0,0.0,0.0,0.0,0.0,0.0,0.0,0.0,0.0,0.0,0.0,0.0,0.0,0.0,0.0,0.0,0.0,0.0,0.0,2.8016,2.8749,2.8755,2.9038,0.0,0.0,0.0,0.0,0.0,0.0,0.0,2.9808,2.9864,3.0033,3.1767,3.3393,3.4908,3.4908,3.4908,3.4907,3.4889,0.0,0.0,0.0,0.0,0.0,0.0,0.0,0.0,0.0,0.0,0.0,0.0,0.0,0.0,0.0,0.0,0.0,0.0,0.0,0.0,0.0,0.0,0.0,0.0,0.0,0.0,0.0,0.0,0.0,0.0,0.0,0.0,0.0,0.0,0.0,0.0,0.0,0.0,0.0,0.0,0.0,0.0,0.0,0.0,0.0,0.0,0.0,0.0,0.0,0.0,0.0,0.0,0.0,0.0,0.0,0.0,0.0,0.0,0.0,0.0,0.0,0.0,0.0,3.3068,3.3089,3.3072,3.3091,3.3102,3.3024,3.1642,3.1043,3.1023,3.0868,0.0,0.0,0.0,0.0,0.0,0.0,0.0,0.0,0.0,0.0,0.0,0.0,0.0,0.0,0.0,0.0,0.0,0.0,0.0,0.0,0.0,2.9468,2.9525,2.9638,2.9638,2.9677,0.0,0.0,0.0,0.0,0.0,0.0,2.9808,2.9808,3.0165,3.0935,3.2655,3.3998,3.4908,3.4908,3.4908,3.4908,3.4908,3.4832,3.4737,0.0,0.0,0.0,0.0,0.0,0.0,0.0,0.0,0.0,0.0,0.0,0.0,0.0,0.0,0.0,0.0,0.0,0.0,0.0,0.0,0.0,0.0,0.0,0.0,0.0,0.0,0.0,0.0,0.0,0.0,0.0,0.0,0.0,0.0,0.0,0.0,0.0,0.0,0.0,0.0,0.0,3.3813,3.4754,0.0,0.0,0.0,0.0,0.0,0.0,0.0,0.0,0.0,0.0,0.0,0.0,0.0,3.2659,3.2737,3.2909,3.2998,3.301,3.3014,3.3006,3.3026,3.3079,3.3109,3.3089,3.2859,0.0,3.2715,3.1952,0.0,0.0,0.0,0.0,0.0,0.0,0.0,0.0,0.0,0.0,0.0,0.0,0.0,0.0,0.0,0.0,0.0,0.0,0.0,0.0,0.0,2.9857,2.9857,2.9857,2.9859,2.9859,2.9857,2.9859,0.0,0.0,0.0,2.9857,2.9857,2.9857,3.0499,3.1822,3.3107,3.4112,3.4908,3.4908,3.4908,3.4908,3.4908,3.4908,3.4908,3.4908,0.0,0.0,0.0,0.0,0.0,0.0,0.0,0.0,0.0,0.0,0.0,0.0,0.0,0.0,0.0,0.0,0.0,0.0,0.0,0.0,0.0,0.0,0.0,0.0,0.0,0.0,0.0,0.0,0.0,0.0,0.0,0.0,0.0,0.0,0.0,0.0,0.0,0.0,0.0,3.3779,3.4742,3.5136,3.5212,3.5198,0.0,0.0,0.0,0.0,0.0,0.0,0.0,0.0,0.0,3.28,3.3255,3.3513,3.3576,3.409,3.4366,3.4404,3.4417,3.441,3.4453,3.4484,3.4515,3.4515,3.4508,3.4508,3.4403,3.3072,3.2522,3.2502,0.0,0.0,0.0,0.0,3.2019,3.201,0.0,0.0,0.0,0.0,0.0,0.0,0.0,0.0,0.0,0.0,0.0,0.0,2.9888,2.9888,2.9888,2.9888,2.9891,2.991,2.9888,2.9891,0.0,0.0,2.9888,2.9888,2.9888,3.0305,3.1156,3.2406,3.3486,3.4301,3.4908,3.4908,3.4908,3.4908,3.4908,3.4908,3.4908,3.4908,3.485,3.4788,0.0,0.0,0.0,0.0,0.0,0.0,0.0,0.0,0.0,0.0,0.0,0.0,0.0,0.0,0.0,0.0,0.0,0.0,0.0,0.0,0.0,0.0,0.0,0.0,0.0,0.0,0.0,0.0,0.0,0.0,0.0,0.0,0.0,0.0,0.0,0.0,0.0,3.4746,3.5198,3.5193,3.5196,3.5198,0.0,0.0,0.0,0.0,0.0,0.0,3.4263,3.4276,3.4041,3.3474,3.4029,3.4347,3.4419,3.5053,3.5407,3.5443,3.5443,3.5476,3.5522,3.5534,3.5554,3.5554,3.5579,3.556,3.5456,3.4017,3.3409,3.3371,3.3158,3.3062,3.3062,3.3063,3.3082,3.3062,0.0,0.0,0.0,0.0,0.0,0.0,0.0,0.0,0.0,0.0,0.0,2.9888,2.9888,2.9888,2.9888,2.9888,2.9888,2.9888,2.9888,2.9888,2.9888,2.9888,2.9888,2.9888,2.9888,3.1459,3.233,3.2406,3.4036,3.4851,3.4908,3.4908,3.4908,3.4908,3.4908,3.4908,3.4908,3.4908,3.485,3.4788,3.4788,0.0,0.0,0.0,0.0,0.0,0.0,0.0,0.0,0.0,0.0,0.0,0.0,0.0,0.0,0.0,0.0,0.0,0.0,0.0,0.0,0.0,0.0,0.0,0.0,0.0,0.0,0.0,0.0,0.0,0.0,0.0,0.0,0.0,0.0,0.0,0.0,0.0,0.0,3.5193,3.5209,0.0,0.0,0.0,0.0,3.5193,3.5209,3.519,3.5152,3.5152,3.5149,3.5178,3.5216,3.5232,3.5239,3.5277,3.5315,3.5315,3.5315,3.5315,3.5315,3.5379,3.5412,3.5412,3.5476,3.5515,3.5438,3.4596,3.4241,3.4164,3.3323,3.3014,3.3006,3.3018,3.3006,3.3014,0.0,0.0,0.0,0.0,0.0,0.0,0.0,0.0,2.9888,2.9888,2.9888,2.9888,2.9888,2.9888,2.9888,2.9888,2.9888,2.9888,2.9888,2.9888,2.9888,2.9888,2.9888,3.0154,3.072,3.1838,3.2654,3.3166,3.432,3.4888,3.483,3.483,3.483,3.483,3.483,3.483,3.483,3.4888,3.4849,3.4747,3.4747,3.4687,0.0,0.0,0.0,0.0,0.0,0.0,0.0,0.0,0.0,0.0,0.0,0.0,0.0,0.0,0.0,0.0,0.0,0.0,0.0,0.0,0.0,0.0,0.0,0.0,0.0,0.0,0.0,0.0,0.0,0.0,0.0,0.0,0.0,0.0,0.0,0.0,0.0,3.5209,3.5209,0.0,3.5209,3.5706,3.605,3.605,3.6512,3.6819,3.6819,3.6765,3.6765,3.6783,3.6783,3.6781,3.6778,3.6778,3.6795,3.6848,3.6848,3.6561,3.6064,3.6093,3.5822,3.5339,3.536,3.5374,3.5355,3.5062,3.502,3.5109,3.4781,3.4665,3.4665,3.4665,3.4665,3.4665,0.0,0.0,0.0,0.0,0.0,0.0,0.0,0.0,2.9888,2.9888,2.9888,3.0002,3.0305,3.0324,3.0324,3.0324,3.0324,3.021,2.9907,2.9888,2.9888,2.9888,3.0173,3.0739,3.1591,3.2389,3.3071,3.3601,3.4452,3.4848,3.4788,3.4788,3.4939,3.5203,3.5203,3.5373,3.5616,3.5658,3.5296,3.4687,3.4687,3.4666,3.4602,0.0,0.0,0.0,0.0,0.0,0.0,0.0,0.0,0.0,0.0,0.0,0.0,0.0,0.0,0.0,0.0,0.0,0.0,0.0,0.0,0.0,0.0,0.0,0.0,0.0,0.0,0.0,0.0,0.0,0.0,0.0,0.0,0.0,0.0,0.0,3.5291,3.5541,3.5596,3.5711,3.598,3.6533,3.6877,3.6877,3.7356,3.7661,3.7661,3.7623,3.7605,3.7605,3.7605,3.7604,3.7604,3.7604,3.7622,3.7678,3.7678,3.7392,3.6877,3.6856,3.6568,3.6088,3.6083,3.608,3.6061,3.5809,3.5772,3.5872,3.5592,3.5509,3.5509,3.5509,3.5509,3.5509,0.0,0.0,0.0,0.0,0.0,0.0,0.0,2.9888,2.9888,2.9888,2.9907,3.0248,3.1118,3.1231,3.125,3.125,3.1212,3.0852,3.0002,2.9926,2.9945,2.9983,3.0795,3.1629,3.2425,3.3204,3.362,3.3639,3.4412,3.4788,3.4788,3.4826,3.526,3.5993,3.6012,3.6462,3.719,3.719,3.6268,3.4781,3.4743,3.4685,3.4602,0.0,0.0,0.0,0.0,0.0,0.0,0.0,0.0,0.0,0.0,0.0,0.0,0.0,0.0,0.0,0.0,0.0,0.0,0.0,0.0,0.0,0.0,0.0,0.0,0.0,0.0,0.0,0.0,0.0,0.0,0.0,0.0,0.0,3.5039,3.5148,3.5507,3.6253,3.6404,3.6728,3.7528,3.7624,3.7643,3.7643,3.7662,3.7681,3.7681,3.7681,3.7662,3.7662,3.7662,3.7662,3.7662,3.7662,3.7662,3.7662,3.7662,3.7662,3.7643,3.7643,3.7624,3.7605,3.7604,3.7603,3.7527,3.6837,3.653,3.6451,3.5614,3.53,3.53,3.53,3.53,3.53,0.0,0.0,0.0,0.0,0.0,0.0,0.0,2.9888,2.9888,2.9888,3.0454,3.0928,3.1174,3.1724,3.2084,3.2084,3.1553,3.1099,3.0871,3.0852,3.1099,3.1705,3.1951,3.2482,3.3316,3.3507,3.3885,3.4469,3.4655,3.4687,3.4663,3.5302,3.5716,3.5942,3.6543,3.6896,3.7052,3.7052,3.6766,3.6232,3.5762,3.5187,3.4602,0.0,0.0,0.0,0.0,0.0,0.0,0.0,0.0,0.0,0.0,0.0,0.0,0.0,0.0,0.0,0.0,0.0,0.0,0.0,0.0,0.0,0.0,0.0,0.0,0.0,0.0,0.0,0.0,0.0,0.0,0.0,3.5458,3.5894,3.5951,3.5969,3.631,3.7148,3.7262,3.7376,3.7585,3.8137,3.848,3.848,3.9011,3.9333,3.9333,3.9292,3.9271,3.9271,3.9271,3.9271,3.9271,3.9271,3.9271,3.9271,3.9271,3.8967,3.84,3.8439,3.8136,3.7528,3.7585,3.7604,3.7585,3.7394,3.7299,3.7147,3.5783,3.5223,3.5223,3.5223,3.5223,3.5223,0.0,0.0,0.0,0.0,0.0,0.0,0.0,2.9888,3.0021,3.04,3.089,3.1478,3.2179,3.2672,3.2937,3.2937,3.252,3.2084,3.1743,3.1705,3.2065,3.2918,3.2937,3.3335,3.4188,3.4131,3.4338,3.4788,3.4687,3.4833,3.5165,3.5653,3.6254,3.693,3.7357,3.7746,3.8053,3.796,3.7685,3.7324,3.6907,3.6058,3.5023,3.4667,3.4539,3.4561,3.4561,3.4645,3.4768,3.4768,0.0,0.0,0.0,0.0,0.0,0.0,0.0,0.0,0.0,0.0,0.0,0.0,0.0,0.0,0.0,0.0,0.0,0.0,0.0,0.0,0.0,0.0,0.0,0.0,3.614,3.6842,3.7241,3.7034,3.7129,3.7965,3.8099,3.8232,3.8534,3.899,3.9256,3.9256,3.969,3.9954,3.9954,3.9911,3.9889,3.9889,3.9889,3.9889,3.9889,3.9889,3.9889,3.9889,3.9889,3.9665,3.9191,3.9252,3.8986,0.0,3.8553,3.8553,3.8534,3.8212,3.806,0.0,0.0,0.0,0.0,0.0,3.516,3.516,0.0,0.0,0.0,0.0,0.0,0.0,0.0,2.9888,3.021,3.1099,3.1288,3.1951,3.3524,3.3771,3.3847,3.3847,3.3752,3.3373,3.2596,3.2558,3.2937,3.3809,3.3847,3.4169,3.4889,3.483,3.4788,3.4788,3.476,3.5146,3.5897,3.6085,3.693,3.8276,3.8321,3.8765,3.9451,3.9256,3.8774,3.8104,3.7949,3.6998,3.56,3.4834,3.4502,3.4495,3.4495,3.4561,3.4687,3.4687,0.0,0.0,0.0,0.0,0.0,0.0,0.0,0.0,0.0,0.0,0.0,0.0,0.0,0.0,0.0,0.0,0.0,0.0,0.0,0.0,0.0,0.0,0.0,0.0,3.7011,3.7807,3.8605,3.8152,3.8039,3.8757,3.8892,3.9176,3.9854,3.9889,3.9889,3.9889,3.9889,3.9889,3.9889,0.0,0.0,0.0,0.0,3.9889,3.9889,3.9889,3.9889,3.9889,3.9889,3.9889,3.9889,3.9889,3.9889,3.9889,3.9889,3.9889,3.9832,3.9134,3.8831,3.8757,3.7908,3.711,3.6349,3.5626,3.536,3.536,0.0,0.0,0.0,0.0,0.0,0.0,0.0,2.9888,3.021,3.1099,3.1781,3.2558,3.3581,3.4282,3.4661,3.4661,3.4074,3.3638,3.3468,3.3449,3.3809,3.4624,3.4661,3.4737,3.4908,3.483,3.4788,3.4788,3.5381,3.5728,3.5935,3.723,3.7976,3.8246,3.8933,3.9231,3.9256,3.9156,3.8999,3.8739,3.8025,3.6848,3.5522,3.5355,3.4936,3.4427,3.4427,3.4517,3.4623,3.4623,3.4687,3.4788,3.4788,3.4655,0.0,0.0,0.0,0.0,0.0,0.0,0.0,0.0,0.0,0.0,0.0,0.0,0.0,0.0,0.0,0.0,0.0,0.0,0.0,3.7049,3.7883,3.8529,3.8681,3.9115,3.9494,3.9665,3.9683,3.974,3.9892,3.9889,3.9889,3.9889,3.9889,3.9889,3.9889,3.9889,3.9889,3.9889,3.9889,3.9889,3.9889,3.9889,3.9889,3.9889,0.0,0.0,3.9889,3.9889,3.9889,3.9889,3.9889,3.9889,3.9889,3.974,3.9683,3.9532,3.8017,3.7336,3.7184,3.7013,3.6956,3.6956,0.0,0.0,0.0,0.0,0.0,0.0,0.0,2.9888,3.021,3.1099,3.1914,3.2728,3.36,3.4415,3.4908,3.4908,3.4529,3.4301,3.4301,3.4301,3.4472,3.4889,3.4908,3.4908,3.4908,3.483,3.4788,3.4788,3.555,3.6104,3.6535,3.7737,3.8501,3.8908,3.9282,3.9399,3.9301,3.9092,3.8979,3.8902,3.8398,3.7552,3.6461,3.5699,3.5175,3.4803,3.4418,3.4363,3.445,3.4495,3.4539,3.4602,3.4602,3.458,3.4539,0.0,0.0,0.0,0.0,0.0,0.0,0.0,0.0,0.0,0.0,0.0,0.0,0.0,0.0,3.6187,3.6623,0.0,3.7478,3.7894,3.8672,3.9242,3.9242,3.9624,3.9889,3.9889,3.9889,3.9889,3.9889,3.9889,3.9889,3.9889,3.9889,3.9889,3.9889,4.0306,4.0555,4.0555,4.0953,4.1162,4.1162,4.1162,4.1162,4.1162,4.1162,4.1162,4.1143,4.0745,4.0555,4.0536,4.01,3.9889,3.9889,3.9889,3.9889,3.9813,3.8982,3.8414,3.7997,3.7561,3.739,3.739,0.0,0.0,0.0,0.0,0.0,0.0,0.0,2.9888,3.021,3.1099,3.1762,3.2501,3.3354,3.4188,3.4737,3.4889,3.4908,3.4908,3.4908,3.4908,3.4908,3.4908,3.4908,3.4908,3.4908,3.483,3.4788,3.4788,3.57,3.646,3.7117,3.8094,3.892,3.9571,3.9451,3.9391,3.9346,3.9054,3.8892,3.8881,3.878,3.8272,3.7448,3.6021,3.542,3.5203,3.442,3.4197,3.4269,3.4316,3.4363,3.4381,3.4381,3.4363,3.4381,3.434,3.434,0.0,0.0,0.0,0.0,0.0,0.0,0.0,0.0,3.5634,3.6145,3.6111,3.6701,3.7269,3.7464,3.8052,3.8543,3.8712,3.9324,3.9781,3.9781,3.9845,3.9867,3.9889,3.9889,3.9889,3.9889,3.9889,3.9965,4.0135,4.0135,4.0211,4.0385,4.1067,4.1446,4.1446,4.2071,4.2412,4.2412,4.2412,4.2412,4.2412,4.2412,4.2412,4.2393,4.173,4.1446,4.1389,4.0707,4.0382,4.0382,4.0382,4.0382,4.0385,4.0214,3.9759,3.9077,3.8205,3.7883,3.7883,0.0,0.0,0.0,0.0,0.0,0.0,0.0,0.0,3.021,3.1099,3.1288,3.1648,3.2463,3.3316,3.4112,3.4832,3.4908,3.4908,3.4908,3.4908,3.4908,3.4908,3.4908,3.4908,3.4908,3.483,3.4788,3.4788,3.6246,3.7005,3.7117,3.8713,3.9477,3.9495,3.9444,3.9328,3.921,3.9064,3.895,3.8892,3.8822,3.8283,3.7415,3.6534,3.5828,3.5198,3.4338,3.4074,3.4124,3.4124,3.4221,3.4293,3.4245,3.4269,3.4293,3.4173,3.4124,3.4148,3.4197,3.4918,3.5825,3.6555,3.6771,3.6817,0.0,3.6892,3.6967,3.6971,3.7092,3.7416,3.8135,3.8407,3.8731,3.9444,3.9656,3.9712,3.9712,3.9712,3.9735,3.9804,3.9848,3.9889,3.9889,3.9889,4.0233,4.101,4.1067,4.137,4.209,4.2223,4.228,4.228,4.2356,4.2412,4.2412,4.2412,4.2412,4.2412,4.2412,4.2412,4.2412,4.2318,4.228,4.2261,4.2166,4.2128,4.2128,4.2128,4.2128,4.2052,4.1332,4.101,4.0821,3.9949,3.9627,3.9627,0.0,0.0,0.0,0.0,0.0,0.0,0.0,0.0,0.0,3.0516,3.0956,3.1393,3.172,3.2917,3.3847,3.4169,3.4624,3.4908,3.4908,3.4908,3.4908,3.4908,3.4908,3.4908,3.4908,3.483,3.4788,3.4788,3.5888,3.6629,3.7117,3.83,3.9107,3.9571,3.9495,3.9418,3.9301,3.912,3.9007,3.8913,3.8335,3.789,3.739,3.6074,3.5349,3.4954,3.4215,3.3947,0.0,3.4023,3.4074,3.4124,3.4099,3.4099,3.4124,3.4049,3.4049,3.416,3.4735,3.5597,3.6423,3.6857,3.7004,3.7052,3.7099,3.7455,3.7793,3.7793,3.8211,3.8705,3.9043,3.9124,3.926,3.9575,3.9679,3.9703,3.9703,4.0141,4.049,4.056,4.0999,4.1135,4.0685,4.1086,4.1522,4.1882,4.1901,4.2052,4.2393,4.2886,4.317,4.317,4.3606,4.3853,4.3853,4.3853,4.3853,4.3853,4.3853,4.3853,4.3853,4.3379,4.2886,4.2412,4.2412,4.2412,4.2412,4.2412,4.2412,4.2375,4.2033,4.1901,4.1749,4.0382,3.9889,3.9889,0.0,0.0,0.0,0.0,0.0,0.0,0.0,0.0,0.0,0.0,3.0601,3.1061,3.1276,3.2345,3.3219,3.3693,3.4262,3.468,3.4908,3.4908,3.4908,3.4908,3.4908,3.4908,3.4908,3.4849,3.4827,3.4788,3.5531,3.6201,3.6779,3.7587,3.8413,3.9239,3.9164,3.9245,3.9399,3.896,3.8758,3.86,3.7663,3.7163,3.6803,3.5505,3.4816,3.4513,3.4036,3.3842,3.3842,3.3895,3.3947,3.3972,3.3947,3.3947,3.3947,3.3921,3.4086,3.4518,3.5687,3.6515,3.7095,3.7448,3.7605,3.7697,3.7751,3.8244,3.8657,3.8657,3.9145,3.9602,3.9602,3.9602,3.9602,3.9602,3.9833,4.0008,4.0008,4.0728,4.131,4.1406,4.2124,4.2432,4.1935,4.2204,4.2507,4.2754,4.2773,4.2867,4.3076,4.3682,4.4023,4.4023,4.4592,4.4895,4.4895,4.4895,4.4895,4.4895,4.4895,4.4895,4.4876,4.4308,4.3682,4.3095,4.3095,4.3095,4.3095,4.3095,4.3095,4.3076,4.2848,4.2773,4.2583,4.1143,4.0571,4.0571,0.0,0.0,0.0,0.0,0.0,0.0,0.0,0.0,0.0,0.0,0.0,0.0,0.0,3.1347,3.2031,3.3665,3.3821,3.4166,3.4944,3.4927,3.4908,3.4908,3.4908,3.4908,3.4908,3.4907,3.4868,3.4788,3.5536,3.5904,3.5953,3.6761,3.7568,3.8338,3.8265,3.8709,3.9439,3.8443,3.7984,3.7856,3.6915,3.603,3.5248,3.5055,3.4467,3.3735,3.3698,3.3698,3.3698,3.3698,3.3807,3.3895,3.3834,3.3807,3.3788,3.3726,3.4303,3.533,3.708,3.7692,3.8042,3.8841,3.9227,3.942,3.942,3.9489,3.9564,3.9564,3.9583,3.9602,3.9602,3.9602,3.9602,3.9602,4.0253,4.076,4.076,4.1454,4.2032,4.2165,4.2919,4.3523,0.0,4.2886,4.2754,4.3606,4.3663,4.4004,4.4781,4.4857,4.4857,4.4857,4.4895,4.4895,4.4895,4.4895,4.4895,4.4895,4.4895,4.4895,4.4895,4.4876,4.4857,4.4819,4.4819,4.4819,4.4819,4.4819,4.4819,4.4743,4.3966,4.3663,4.3549,4.2659,4.2318,4.2318,0.0,0.0,0.0,0.0,0.0,0.0,0.0,0.0,0.0,0.0,0.0,0.0,0.0,0.0,0.0,0.0,3.317,3.3916,3.4185,3.4679,3.4945,3.4889,3.4908,3.4908,3.4908,3.4907,3.4887,3.4868,3.503,3.5362,3.5904,3.6182,3.6723,3.7493,3.7469,3.7614,3.7828,3.748,3.7249,3.7091,3.6144,3.5557,3.5182,3.4431,3.3936,3.3633,0.0,3.3605,3.3615,3.3615,3.3698,3.378,3.3753,3.378,3.3899,3.4422,3.5174,3.613,3.7272,3.8069,3.8627,3.8999,3.963,4.0186,4.0221,4.0659,4.091,4.0368,4.0255,4.0106,3.9563,3.9495,3.9714,4.0239,4.0584,4.0985,4.1529,4.2337,4.2916,4.3052,4.3787,4.4348,4.4473,0.0,0.0,4.4478,4.4497,4.4611,4.4895,4.4895,4.4895,4.4895,4.4895,4.4895,4.4895,4.4895,4.4895,4.4895,4.4895,4.4895,4.4895,4.4895,4.4895,4.4895,4.4895,4.4895,4.4895,4.4895,4.4895,4.4876,4.4611,4.4497,4.4459,4.4175,4.4061,4.391,0.0,0.0,0.0,0.0,0.0,0.0,0.0,0.0,0.0,0.0,0.0,0.0,0.0,0.0,0.0,0.0,0.0,3.3203,3.3798,3.4315,3.4679,3.4945,3.4927,3.4908,3.4908,3.4888,3.4888,3.4887,3.4809,3.5011,3.5499,3.5515,3.5904,3.6652,3.6652,3.6817,3.7009,3.6705,3.6502,3.6329,3.5324,3.4907,3.4755,3.4009,3.3671,0.0,3.3549,3.3549,3.3577,3.3605,3.3643,3.3698,3.3726,3.3954,3.4367,3.5145,3.6017,3.6861,3.7757,3.8435,3.8966,3.9359,3.9955,4.0561,4.0896,4.139,4.1521,4.0654,4.0514,4.0271,3.9496,3.9425,3.9757,4.0562,4.099,4.1529,4.2355,4.32,4.378,4.3919,4.4391,4.4745,4.487,0.0,0.0,4.4895,4.4895,4.4895,4.4895,4.4895,4.5047,4.535,4.5369,4.5501,4.5786,4.5786,4.5786,4.5786,4.5786,4.5786,4.5786,4.5501,4.5369,4.535,4.5047,4.4895,4.4895,4.4895,4.4895,4.4895,4.4895,4.4895,4.4895,4.4895,4.4895,4.4743,0.0,0.0,0.0,0.0,0.0,0.0,0.0,0.0,0.0,0.0,0.0,0.0,0.0,0.0,0.0,0.0,0.0,0.0,3.3665,3.3779,3.4146,3.4906,3.4926,3.4889,3.4908,3.4908,3.4908,3.4907,3.4887,3.4868,3.4827,3.4788,3.5183,3.5854,3.5854,3.6261,3.6911,3.6096,3.5708,3.552,3.4531,3.4074,3.3998,3.3842,3.3726,3.3605,3.3605,3.3549,3.3491,3.3577,3.3643,3.3726,3.3835,3.4348,3.508,3.5941,3.6765,3.7601,3.8487,3.8768,3.9061,3.9907,4.0304,4.0717,4.1468,4.1694,4.1463,4.0531,4.0355,4.0151,3.9332,3.9354,3.9757,4.0562,4.1421,4.2291,4.3182,4.3989,4.4551,4.4667,4.4712,4.4745,4.487,4.4895,0.0,4.4952,0.0,4.4914,4.4952,4.4971,4.5369,4.6222,4.6259,4.662,4.7378,4.7397,4.7397,4.7397,4.7397,4.7397,4.7359,4.6601,4.6259,4.6222,4.5388,4.5009,4.4971,4.4971,4.4933,4.4895,4.4895,4.4895,4.4895,4.4895,4.4895,4.4895,0.0,0.0,0.0,0.0,0.0,0.0,0.0,0.0,0.0,0.0,0.0,0.0,0.0,0.0,0.0,0.0,0.0,0.0,3.2019,3.3195,3.3946,3.409,3.466,3.4945,3.4908,3.4908,3.4908,3.4908,3.4888,3.4887,3.4868,3.4809,3.4881,3.5007,3.5007,3.5098,3.5221,3.4993,3.4832,3.4703,3.4386,3.4148,3.3998,3.3842,3.3753,3.3671,3.3633,3.3605,3.3577,3.352,3.3633,3.3917,3.4623,3.5026,3.5477,3.6887,3.7458,3.779,3.863,3.9353,3.9912,4.0126,4.1156,4.2168,4.2372,4.2397,4.2106,4.1225,4.0589,3.9941,3.9184,3.9147,3.9517,4.0483,4.1341,4.2265,4.3182,4.3989,4.4551,4.4667,4.4712,4.4745,4.487,4.4895,0.0,0.0,4.5274,4.5179,4.5824,4.5862,4.6241,4.7074,4.7093,4.7188,4.7397,4.7397,4.7397,4.7397,4.7397,4.7397,4.7378,4.7188,4.7093,4.7074,4.6866,4.6411,4.5862,4.5862,4.5483,4.4895,4.4895,4.4895,4.4895,4.4895,4.4895,4.4895,0.0,0.0,0.0,0.0,0.0,0.0,0.0,0.0,0.0,0.0,0.0,0.0,0.0,0.0,0.0,0.0,0.0,0.0,0.0,3.2316,3.3099,3.3815,3.4258,3.4622,3.4945,3.4927,3.4908,3.4908,3.4908,3.4907,3.4907,3.4849,3.481,3.4747,3.4747,3.4687,3.4602,3.4602,3.4517,0.0,0.0,3.4197,3.4023,3.3895,3.3788,3.3726,3.3671,3.3671,3.3698,3.3726,3.3788,3.4042,3.4961,3.5504,3.6066,3.7341,3.795,3.8338,3.8781,3.9512,4.0244,4.0663,4.1748,4.2693,4.2662,4.2649,4.2234,4.0941,4.0363,3.984,3.9069,3.9017,3.9435,4.0429,4.1314,4.2219,4.3182,4.3989,4.4551,4.4667,4.4712,4.4745,4.487,4.5255,4.5672,0.0,4.5748,4.5843,4.6676,4.6733,4.7112,4.7927,4.7965,4.8136,4.8477,4.8496,4.8496,4.8496,4.8496,4.8496,4.8477,4.8117,4.7965,4.7946,0.0,4.7131,4.6733,4.6733,4.643,4.5956,4.5615,4.5464,4.5426,4.5047,4.4895,4.4895,0.0,0.0,0.0,0.0,0.0,0.0,0.0,0.0,0.0,0.0,0.0,0.0,0.0,0.0,0.0,0.0,0.0,0.0,0.0,0.0,3.2072,3.3513,3.3625,3.4032,3.4849,3.4794,3.4813,3.4927,3.4889,3.4908,3.4908,3.4908,3.4869,3.4809,3.4788,3.4747,3.4623,3.4583,3.4517,3.4404,3.434,3.4245,3.4099,0.0,3.3895,3.3815,3.3753,3.3807,3.3868,3.3998,3.4023,3.419,3.5195,3.5991,3.673,3.7655,3.8413,3.8968,3.8968,3.9634,4.0533,4.1322,4.2112,4.2706,4.263,4.2451,4.1815,4.0239,3.9871,3.9639,3.901,3.9007,3.937,4.028,4.1164,4.2069,4.3013,4.3839,4.4438,4.4667,4.4712,4.4745,4.487,4.5691,4.6241,4.6354,4.6468,4.6828,4.7529,4.7567,4.7965,4.8818,4.8856,4.9178,4.9879,4.9898,4.9898,4.9898,4.9898,4.9898,4.986,4.9178,4.8856,4.8818,4.806,0.0,4.7567,4.7567,4.7491,4.7321,4.662,4.6354,4.6259,4.5501,4.516,4.5066,0.0,0.0,0.0,0.0,0.0,0.0,0.0,0.0,0.0,0.0,3.0597,3.0598,0.0,0.0,0.0,0.0,0.0,0.0,0.0,0.0,0.0,3.1915,3.2539,3.3274,3.408,3.403,3.4319,3.4983,3.4927,3.4908,3.4908,3.4908,3.4888,3.4887,3.4809,3.4768,3.4666,3.4623,3.4539,3.4473,3.4473,3.434,3.4173,3.4148,0.0,0.0,3.3947,3.4023,3.4124,3.4148,3.4173,3.4433,3.5973,3.6645,3.7131,3.8667,3.9208,3.932,3.932,4.0374,4.1549,4.164,4.2233,4.2767,4.2693,4.1533,4.0357,4.0031,3.943,3.8915,3.8899,3.8921,3.9091,3.9533,4.0296,4.1146,4.2085,4.2975,4.3799,4.461,4.4712,4.4745,4.487,4.5691,0.0,0.0,4.7851,4.8325,4.8458,4.8458,4.8837,4.9652,4.969,4.9746,4.9898,4.9898,4.9898,4.9898,4.9898,4.9898,4.9898,4.9746,4.969,4.9671,4.9519,0.0,4.8458,4.8458,4.8041,4.7378,4.7245,4.7188,4.7169,4.7018,4.6544,4.5975,0.0,0.0,0.0,0.0,0.0,0.0,0.0,3.0629,3.0593,3.0593,3.0595,3.0597,3.0598,3.0598,3.0588,0.0,0.0,0.0,0.0,0.0,0.0,0.0,0.0,0.0,3.3252,3.3661,3.4011,3.4375,0.0,3.4927,3.4908,3.4908,3.4908,3.4887,3.4868,3.4788,3.4687,3.4666,3.4583,3.4495,3.4495,3.4427,3.4293,0.0,0.0,0.0,3.4148,3.4197,3.4245,3.4293,3.4316,3.4563,3.5789,3.6503,3.715,3.8364,3.9037,3.9391,3.9391,4.0269,4.1185,4.1129,4.1716,4.2143,4.1616,4.0822,4.0048,3.9534,3.9098,3.8822,3.8921,3.8979,3.9092,3.9346,4.0117,4.0974,4.1879,4.275,4.3649,4.4591,4.4712,4.4934,4.5539,4.6335,4.7169,4.8003,4.8837,4.9311,4.9311,4.9311,4.9481,4.9879,4.9898,4.9898,4.9898,4.9898,4.9898,4.9898,4.9898,4.9898,4.9898,4.9898,4.9898,4.9898,4.9898,0.0,4.9311,4.9311,4.9064,4.8647,4.823,4.8079,4.8003,4.7567,4.715,4.6809,0.0,0.0,0.0,0.0,0.0,0.0,0.0,3.0665,3.061,3.061,3.0613,3.0595,3.0597,3.0607,3.0598,0.0,0.0,0.0,0.0,0.0,0.0,0.0,0.0,0.0,0.0,0.0,0.0,3.3555,3.4355,0.0,0.0,0.0,0.0,0.0,3.4907,3.4848,3.4747,3.4727,3.4645,0.0,0.0,3.4495,0.0,0.0,0.0,0.0,0.0,3.4316,3.434,3.4386,3.4473,3.463,3.5277,3.604,3.6876,3.7848,3.8639,3.92,3.9388,4.0023,4.0641,4.0632,4.11,4.139,4.0617,4.0281,3.9918,3.9127,3.895,3.895,3.9007,3.9092,3.9202,3.9373,3.9993,4.0795,4.1841,4.26,4.3469,4.4572,4.4712,4.511,4.6108,4.6923,0.0,4.8628,4.9443,4.9898,4.9898,4.9898,4.9898,4.9898,4.9898,4.9898,4.9898,4.9898,4.9898,4.9898,4.9898,4.9898,4.9898,4.9898,4.9898,4.9898,4.9898,0.0,0.0,4.9898,4.9898,4.9822,4.9197,4.8951,4.8856,4.8193,4.7832,4.7681,0.0,0.0,0.0,0.0,0.0,0.0,0.0,3.0688,3.07,3.07,3.0637,3.0602,3.0602,3.0606,3.0598,0.0,0.0,0.0,0.0,0.0,0.0,0.0,0.0,0.0,0.0,0.0,0.0,3.2791,3.3534,0.0,0.0,0.0,0.0,0.0,0.0,3.4887,3.4868,3.4827,0.0,0.0,0.0,0.0,0.0,0.0,0.0,0.0,0.0,3.4427,3.4495,3.4495,3.4539,3.4602,3.4695,3.5293,3.6287,3.7826,3.8332,3.8558,3.937,4.0178,4.0772,4.0712,4.075,4.0761,4.0606,3.9908,3.9276,3.912,3.9073,3.9073,3.9101,3.9156,3.9256,3.9469,3.957,4.0176,4.1766,4.2126,4.2843,4.4497,4.4745,4.5161,4.6108,4.6923,4.7757,4.8628,4.9443,4.9898,4.9898,4.9898,4.9898,4.9898,4.9898,4.9898,4.9898,4.9898,4.9898,4.9898,4.9898,4.9898,4.9898,4.9898,4.9898,4.9898,4.9898,0.0,0.0,4.9898,4.9898,4.9879,4.9803,4.9784,4.9765,4.969,4.9197,4.8572,0.0,0.0,0.0,0.0,0.0,0.0,3.069,3.0703,3.0703,3.0703,3.068,3.0665,3.0665,3.0621,3.0595,3.0606,0.0,0.0,0.0,0.0,0.0,0.0,0.0,0.0,0.0,0.0,3.1678,3.1976,3.2756,0.0,0.0,0.0,0.0,0.0,0.0,3.3658,3.4112,3.4093,0.0,0.0,0.0,0.0,0.0,0.0,0.0,0.0,0.0,0.0,3.4561,3.4561,3.4583,3.4666,3.4666,3.4932,3.544,3.6547,3.7577,3.8442,3.878,3.947,4.0065,4.004,4.004,4.0014,3.9956,3.9257,3.8588,3.851,3.8119,3.7932,3.8391,3.8562,3.8782,3.9401,3.9546,3.999,4.1161,4.1776,4.2561,4.3895,4.4487,4.5351,4.679,4.7207,4.7946,4.9311,4.9709,4.9898,4.9898,4.9898,4.9898,4.9898,4.9898,4.9898,4.9898,4.9898,4.9898,4.9898,4.9898,4.9898,4.9898,4.9898,4.9898,4.9898,4.9898,0.0,0.0,4.9898,4.9898,4.9898,4.9898,4.9898,4.9898,4.9898,4.969,4.9405,0.0,0.0,0.0,0.0,0.0,3.069,3.069,3.069,3.069,3.069,3.0703,3.0707,3.0707,3.0673,3.0629,3.064,3.0606,0.0,0.0,0.0,0.0,0.0,0.0,0.0,0.0,0.0,3.1219,3.1167,3.1967,3.2306,0.0,0.0,3.2511,3.2495,0.0,0.0,0.0,0.0,0.0,0.0,0.0,0.0,0.0,0.0,0.0,0.0,0.0,0.0,0.0,0.0,0.0,3.4727,3.4727,3.4768,3.4978,3.5727,3.6779,3.7815,3.8305,3.8846,3.9331,3.9575,3.9626,3.9545,3.9233,3.8683,3.8128,3.7829,3.7349,3.7199,3.7978,3.8203,3.8558,3.9414,3.9602,3.9932,4.0804,4.1644,4.2523,4.3485,4.4348,4.5508,4.7226,4.7851,4.8628,4.9803,4.9898,4.9898,4.9898,4.9898,4.9898,4.9898,4.9898,4.9898,4.9898,4.9898,4.9898,4.9898,4.9898,4.9898,4.9898,4.9898,4.9898,4.9898,4.9898,0.0,0.0,4.9898,4.9898,4.9898,4.9898,4.9898,4.9898,4.9898,4.9898,4.9898,0.0,0.0,0.0,0.0,0.0,0.0,3.069,3.069,3.069,3.069,3.069,3.069,3.069,3.0695,3.07,3.07,3.064,0.0,0.0,0.0,0.0,0.0,0.0,0.0,0.0,0.0,3.0414,3.0398,3.1162,3.1484,3.1446,3.2225,3.2561,3.2495,0.0,0.0,0.0,0.0,0.0,0.0,0.0,0.0,0.0,0.0,0.0,0.0,0.0,0.0,0.0,0.0,0.0,0.0,0.0,3.4829,3.5039,3.5769,3.6012,3.6389,3.8052,3.8505,3.8694,3.9482,3.9703,3.9467,3.8602,3.8348,3.8051,3.7192,3.7052,3.73,3.8078,3.8324,3.8677,3.9561,3.9703,3.9991,4.0882,4.1742,4.2621,4.351,4.4372,4.5558,4.7245,4.8894,4.9879,4.9898,4.9898,0.0,4.9898,4.9898,4.9898,4.9898,4.9898,4.9898,4.9898,4.9898,4.9898,4.9898,4.9898,4.9898,4.9898,4.9898,4.9898,4.9898,0.0,0.0,0.0,4.9898,4.9898,4.9898,4.9898,4.9898,4.9898,4.9898,4.9898,4.9898,0.0,0.0,0.0,0.0,0.0,0.0,0.0,3.069,3.069,3.069,3.069,3.069,3.069,3.071,3.0703,3.0703,3.0645,0.0,0.0,0.0,0.0,0.0,0.0,0.0,0.0,0.0,3.0479,3.0477,3.0664,3.0751,3.0721,3.0937,3.0983,3.0929,3.0879,3.1156,0.0,0.0,0.0,0.0,0.0,0.0,3.4868,0.0,0.0,0.0,0.0,0.0,0.0,0.0,0.0,0.0,0.0,0.0,0.0,3.5191,3.5644,3.6189,3.6717,3.7263,3.775,3.7996,3.8049,3.7992,3.7709,3.7178,3.6666,3.6381,3.6327,3.6613,3.7416,3.8083,3.8746,3.9552,3.9708,3.9807,4.0117,4.1411,4.2418,4.2726,4.5041,4.6809,0.0,0.0,4.9898,4.9898,4.9898,4.9898,4.9898,4.9898,4.9898,4.9898,4.9898,4.9898,4.9898,4.9898,4.9898,4.9898,4.9898,4.9898,4.9898,4.9898,4.9898,0.0,0.0,0.0,0.0,4.9898,4.9898,4.9898,4.9898,4.9898,4.9898,4.9898,4.9898,4.9898,0.0,0.0,0.0,0.0,0.0,0.0,0.0,3.0697,3.069,3.069,3.069,3.069,3.069,3.069,3.069,3.069,3.0668,0.0,0.0,0.0,0.0,0.0,0.0,0.0,3.0606,3.0568,3.054,3.053,3.049,3.0458,3.0402,3.0355,3.0292,3.0226,3.0166,3.0414,0.0,0.0,0.0,0.0,0.0,0.0,3.4491,0.0,0.0,0.0,0.0,0.0,0.0,0.0,0.0,0.0,0.0,0.0,0.0,0.0,3.5268,3.572,3.6042,3.6495,3.6965,3.7268,3.7322,3.7206,3.6925,3.6392,3.5993,3.5996,3.5996,3.6354,3.7543,3.8169,3.8814,3.9603,3.9758,3.9781,3.9826,4.1287,4.2593,4.3265,4.5748,0.0,0.0,4.8913,4.9898,4.9898,4.9898,4.9898,4.9898,4.9898,4.9898,4.9898,4.9898,4.9898,4.9898,4.9898,4.9898,4.9898,4.9898,4.9898,4.9898,4.9898,4.9898,0.0,0.0,0.0,0.0,4.9898,4.9898,4.9898,4.9898,4.9898,4.9898,4.9898,4.9898,4.9898,0.0,0.0,0.0,0.0,0.0,0.0,0.0,3.0704,3.0697,3.0697,3.0697,3.0697,3.0697,3.0697,3.0697,3.069,0.0,0.0,0.0,0.0,0.0,0.0,0.0,0.0,3.061,3.0602,3.0604,3.0607,3.0607,3.055,3.0409,3.0414,3.0386,3.0305,3.0247,3.0161,3.0166,3.0902,3.1255,3.1447,3.2988,3.3654,0.0,0.0,0.0,0.0,0.0,0.0,0.0,0.0,0.0,0.0,0.0,0.0,0.0,0.0,0.0,0.0,0.0,3.6102,3.6291,3.703,3.7179,3.6929,3.6193,3.5962,0.0,3.5998,3.6054,3.6583,3.8225,3.8609,3.8937,3.9694,3.9867,3.993,4.0006,4.1446,4.3095,4.4706,4.6398,0.0,4.7397,4.8939,4.9925,4.9898,4.9898,4.9898,4.9898,4.9898,4.9898,4.9898,4.9898,4.9898,4.9898,4.9898,4.9898,4.9898,4.9898,4.9898,4.9898,4.9898,4.9898,0.0,0.0,0.0,0.0,4.9898,4.9898,4.9898,4.9898,4.9898,4.9898,4.9898,4.9898,4.9898,0.0,0.0,0.0,0.0,0.0,0.0,0.0,0.0,0.0,0.0,3.0691,3.0704,3.0691,3.0711,3.0704,0.0,0.0,0.0,0.0,0.0,0.0,0.0,0.0,0.0,3.0673,3.0637,3.0602,3.0613,3.0613,3.0576,3.054,3.055,3.0509,3.0455,3.0379,3.0292,3.018,3.0318,3.0765,3.1413,3.1746,3.2642,0.0,0.0,0.0,0.0,3.4983,3.4945,0.0,0.0,0.0,0.0,0.0,0.0,0.0,0.0,3.4908,3.4946,3.5154,0.0,3.5249,3.5438,3.5476,3.5419,0.0,3.5173,3.5343,3.6005,3.663,3.7408,3.8469,3.9212,3.9726,3.9916,4.0015,4.0285,4.095,4.249,4.3916,4.4924,4.6521,4.7523,4.7473,4.8991,4.9952,4.9906,4.9898,4.9898,4.9898,4.9898,4.9898,4.9898,4.9898,4.9898,4.9898,4.9898,4.9898,4.9898,4.9898,4.9898,4.9898,4.9898,4.9898,0.0,0.0,0.0,4.9898,4.9898,4.9898,4.9898,4.9898,4.9898,4.9898,4.9898,4.9898,4.9898,0.0,0.0,0.0,0.0,0.0,0.0,0.0,0.0,0.0,0.0,0.0,0.0,0.0,0.0,0.0,0.0,0.0,0.0,0.0,0.0,0.0,0.0,0.0,3.0695,3.0695,3.0661,3.0653,3.0637,3.0637,3.0629,3.0593,3.0606,3.0588,3.054,3.0488,3.039,3.0286,3.0215,3.0461,3.0877,3.1249,0.0,0.0,0.0,0.0,0.0,3.5057,3.502,0.0,3.5001,3.5001,3.5001,0.0,0.0,0.0,0.0,3.5001,3.5001,3.5001,3.4945,3.4908,3.4945,3.4945,3.4945,3.4964,3.5286,3.5799,3.6673,3.7489,3.8306,3.918,3.9732,4.0057,4.0098,4.0422,4.1148,4.2408,4.3361,4.4257,4.5096,4.6656,4.7619,0.0,4.9068,5.0031,4.9952,4.9952,4.9933,4.9879,4.9898,4.9898,4.9898,4.9898,4.9898,4.9898,4.9898,4.9898,4.9898,4.9898,4.9898,4.9898,4.9898,4.9898,0.0,0.0,0.0,4.9898,4.9898,4.9898,4.9898,4.9898,4.9898,4.9898,4.9898,4.9898,4.9898,0.0,0.0,0.0,0.0,0.0,0.0,0.0,0.0,0.0,0.0,0.0,0.0,0.0,0.0,0.0,0.0,0.0,0.0,0.0,0.0,0.0,0.0,3.0697,3.069,3.069,3.069,3.0703,3.0707,3.0707,3.0673,3.0618,3.0621,3.0604,3.0595,3.053,3.0488,3.0402,3.0359,3.0292,3.0305,3.1038,0.0,0.0,0.0,0.0,0.0,0.0,0.0,0.0,3.511,3.511,3.511,3.511,0.0,0.0,0.0,0.0,0.0,3.511,3.502,3.4926,3.5001,3.502,3.5038,3.5092,3.5738,3.6576,3.7433,3.8271,3.909,3.9965,4.0118,4.0176,4.0387,4.1208,4.2354,4.3847,4.4153,4.4555,4.5435,4.6844,0.0,4.7926,4.9267,5.0108,5.0057,5.0031,4.9978,4.9925,4.9925,4.9925,4.9898,4.9898,4.9898,4.9898,4.9898,4.9898,4.9898,4.9898,4.9898,4.9898,4.9898,4.9898,4.9898,0.0,0.0,4.9898,4.9898,4.9898,4.9898,4.9898,4.9898,4.9898,4.9898,4.9898,4.9898,0.0,0.0,0.0,0.0,0.0,0.0,0.0,0.0,0.0,0.0,0.0,0.0,0.0,0.0,0.0,0.0,0.0,0.0,0.0,0.0,0.0,3.0691,3.0697,3.069,3.069,3.069,3.069,3.071,3.071,3.0683,3.0683,3.068,3.0657,3.0595,3.0586,3.055,3.0471,3.0469,3.0428,3.0383,3.0501,0.0,0.0,0.0,0.0,0.0,0.0,0.0,0.0,3.5193,3.5193,3.5176,3.5124,0.0,0.0,0.0,0.0,0.0,3.5107,3.5088,3.507,3.5073,3.5072,3.5088,3.5107,3.5808,3.6702,3.7523,3.8363,3.9203,4.0024,4.0215,4.05,4.1265,4.2736,4.3883,0.0,0.0,4.5666,4.6473,0.0,4.822,4.8907,4.9774,5.0255,5.0163,5.0133,5.0057,5.0005,4.9959,4.9952,4.9879,4.9898,4.9898,4.9898,4.9898,4.9898,4.9898,4.9898,4.9898,4.9898,4.9898,4.9898,4.9898,0.0,4.9898,4.9898,4.9898,4.9898,4.9898,4.9898,4.9898,4.9898,4.9898,4.9898,4.9898,0.0,0.0,0.0,0.0,0.0,0.0,0.0,0.0,0.0,0.0,0.0,0.0,0.0,0.0,0.0,0.0,0.0,0.0,0.0,0.0,3.071,3.071,3.0704,3.0691,3.069,3.069,3.069,3.069,3.069,3.069,3.069,3.0703,3.068,3.0649,3.0649,3.0623,3.054,3.055,3.0511,3.05,0.0,0.0,0.0,0.0,0.0,0.0,0.0,0.0,0.0,0.0,3.5315,3.5304,3.527,0.0,0.0,0.0,0.0,0.0,3.5203,3.5219,3.5254,3.5258,3.5226,3.534,3.5863,3.6629,3.7491,3.8348,3.9172,3.9881,4.0227,4.0375,4.085,4.2189,0.0,4.452,4.498,4.5401,4.5979,0.0,0.0,4.8452,4.9279,5.0043,5.0416,5.0371,5.0278,5.0182,5.0114,5.0082,5.0031,4.9952,4.9933,4.9952,4.9898,4.9898,4.9898,4.9898,4.9898,4.9898,4.9898,4.9898,4.9898,4.9898,0.0,4.9898,4.9898,4.9898,4.9898,4.9898,4.9898,4.9898,4.9898,4.9898,4.9906,4.9933,0.0,0.0,0.0,0.0,0.0,0.0,0.0,0.0,0.0,0.0,0.0,0.0,0.0,0.0,0.0,0.0,0.0,0.0,0.0,3.0714,3.0709,3.0728,3.0703,3.0691,3.0704,3.0704,3.0704,3.0704,3.0704,3.0704,3.0704,3.0704,3.0697,3.0695,3.0695,3.0673,3.0613,3.0613,3.0576,3.0588,0.0,0.0,0.0,0.0,0.0,0.0,0.0,0.0,0.0,0.0,0.0,0.0,0.0,0.0,0.0,3.5326,3.5326,3.5326,3.5326,3.5374,3.5479,3.5705,3.5701,3.5829,3.6555,3.7521,3.8428,3.9108,3.9896,4.0454,4.0454,4.0812,4.157,4.2926,4.409,4.5046,4.5665,4.5916,4.636,4.7249,4.805,4.8885,4.9753,5.0317,5.0624,5.0544,5.0438,5.0348,5.0259,5.0207,5.0133,5.0057,5.0031,5.0005,4.9952,4.9933,4.9925,4.9898,4.9898,4.9898,4.9898,4.9898,4.9898,4.9898,4.9898,4.9898,4.9898,4.9898,4.9898,4.9898,4.9898,4.9925,4.9925,4.9952,4.9978,5.0031,0.0,0.0,0.0,0.0,0.0,0.0,0.0,0.0,0.0,0.0,0.0,0.0,0.0,0.0,0.0,0.0,0.0,0.0,0.0,3.0784,3.0794,3.0784,3.0728,3.0703,3.0697,3.0697,3.0697,3.0697,3.0697,3.0697,3.0697,3.0697,3.071,3.0711,3.0711,3.069,3.0692,3.0692,3.0645,3.0679,3.1532,0.0,0.0,0.0,0.0,0.0,0.0,0.0,0.0,0.0,0.0,0.0,0.0,0.0,3.547,3.5424,3.5391,3.5411,3.547,3.5502,3.5708,3.6581,3.6736,3.6716,3.6774,3.8092,3.9301,3.9372,4.0028,4.0593,4.0593,4.1909,4.3071,4.3254,4.4699,4.5815,4.5873,0.0,4.7424,4.8296,4.9102,4.9911,5.0716,5.0789,5.0757,5.0682,5.0624,5.0562,5.0478,5.0348,5.0255,5.0188,5.0133,5.0082,5.0082,5.0031,4.9978,4.9898,4.9898,4.9898,4.9898,4.9898,4.9898,4.9898,4.9898,4.9898,4.9898,4.9898,4.9898,4.9898,4.9898,4.9952,5.0005,5.0057,5.0082,5.0082,0.0,0.0,0.0,0.0,0.0,0.0,0.0,0.0,0.0,0.0,0.0,0.0,0.0,0.0,0.0,0.0,0.0,0.0,0.0,3.0806,3.0793,3.0808,3.0784,3.0755,3.0769,3.0709,3.0703,3.0703,3.0703,3.0703,3.0703,3.0703,3.0697,3.0691,3.0691,3.0704,3.0691,3.0697,3.1001,3.1538,3.2369,3.3225,0.0,0.0,0.0,0.0,0.0,0.0,0.0,0.0,3.5667,3.5654,3.5623,3.5593,3.555,3.5519,3.5519,3.5519,3.555,3.5593,3.5847,3.674,3.734,3.7862,3.8361,3.8987,3.9625,4.0159,4.0507,4.0887,4.1434,4.2511,4.3511,4.4078,4.5137,4.5893,4.5905,4.6642,4.7514,4.8406,4.9246,5.0085,5.0942,5.0956,5.0893,5.0825,5.0757,5.0683,5.0566,5.0502,5.0435,5.0278,5.0231,5.0182,5.0108,5.0082,5.0057,5.0031,4.9952,4.9898,4.9898,4.9898,4.9898,4.9879,4.9933,4.9978,4.9978,5.0005,5.0031,5.0031,5.0031,5.0082,5.0133,5.0139,5.0207,5.0278,0.0,0.0,0.0,0.0,0.0,0.0,0.0,0.0,0.0,0.0,0.0,0.0,0.0,0.0,0.0,0.0,0.0,0.0,3.0799,3.0807,3.0798,3.079,3.0806,3.0802,3.0808,3.075,3.072,3.0734,3.0734,3.0734,3.0734,3.0734,3.0734,3.0728,3.0728,3.0728,3.0722,3.0983,3.1443,3.2104,3.3196,3.4004,0.0,0.0,0.0,0.0,0.0,0.0,0.0,0.0,3.5718,3.5698,3.5698,3.5669,3.5629,3.5629,3.5629,3.5629,3.5629,3.5862,3.6328,3.7191,3.8073,3.8937,3.9751,3.9932,4.0072,4.0676,4.0792,4.1075,4.1962,4.2826,4.3699,0.0,4.5417,4.5922,4.5922,4.6931,4.7849,4.8451,4.9537,5.0468,5.1037,5.1062,5.1,5.0956,5.0893,5.0791,5.07,5.0645,5.0544,5.0396,5.0393,5.0325,5.0207,5.0182,5.0158,5.0133,5.0031,4.9978,4.9978,4.9978,4.9978,4.9978,5.0005,5.0031,5.0031,5.0082,5.0108,5.0133,5.0182,5.0231,5.0302,5.0325,5.0374,5.0462,0.0,0.0,0.0,0.0,0.0,0.0,0.0,0.0,0.0,0.0,0.0,0.0,0.0,0.0,0.0,0.0,0.0,0.0,3.0813,3.0806,3.0796,3.0807,3.0801,3.0794,3.0802,3.0802,3.0793,3.0799,3.0799,3.0799,3.0799,3.0799,3.0794,3.0803,3.0803,3.0778,3.0761,3.1637,3.2007,3.2182,3.3893,3.4605,3.4703,0.0,0.0,0.0,0.0,0.0,0.0,0.0,3.5766,3.5708,3.5708,3.5708,3.5708,3.5708,3.5708,3.5708,3.5708,3.6329,3.7211,3.8093,3.8957,3.983,4.0704,4.0849,4.0807,4.0807,4.0807,4.1089,4.2052,4.2848,0.0,4.4656,4.5472,4.5997,4.5997,4.7492,4.8599,4.8599,5.0134,5.1171,5.1095,5.1095,5.1102,5.1101,5.099,5.0906,5.0906,5.0773,5.0682,5.0587,5.0585,5.054,5.0412,5.0344,5.0278,5.0188,5.0133,5.0108,5.0108,5.0108,5.0108,5.0108,5.0108,5.0108,5.0108,5.0108,5.0139,5.0231,5.0348,5.0457,5.0521,5.0582,5.0605,5.0587,0.0,0.0,0.0,0.0,0.0,0.0,0.0,0.0,0.0,0.0,0.0,0.0,0.0,0.0,0.0,0.0,0.0,0.0,3.0879,3.0878,3.0856,3.0808,3.0799,3.0791,3.0801,3.081,3.0793,3.0799,3.0799,3.0799,3.0799,3.0799,3.0799,3.0794,3.0794,3.1125,3.1709,3.1952,3.2745,3.3874,3.438,3.4977,3.5541,0.0,0.0,0.0,0.0,0.0,0.0,0.0,0.0,0.0,3.5773,3.5773,3.5773,3.5773,3.5773,3.589,3.652,3.6869,3.7441,3.8916,3.9488,3.9904,4.0777,4.0917,4.0869,4.0869,4.0869,4.1335,4.284,4.3306,0.0,4.5414,4.5841,4.5997,4.5997,4.7492,4.8599,4.8599,5.0134,5.1202,5.1171,5.1171,5.1159,5.1102,5.1056,5.1029,5.0971,5.089,5.0808,5.0738,5.0645,5.0585,5.054,5.0478,5.0416,5.0416,5.0393,5.0278,5.0108,5.0108,5.0108,5.0108,5.0207,5.0231,5.0255,5.0371,5.0457,5.05,5.0525,5.0586,5.0625,5.0664,5.072,5.081,0.0,0.0,0.0,0.0,0.0,0.0,0.0,0.0,0.0,0.0,3.081,3.079,0.0,0.0,0.0,0.0,0.0,0.0,0.0,3.0857,3.0859,3.0837,3.0832,3.0825,3.0794,3.0798,3.0806,3.0798,3.0804,3.0799,3.0799,3.0799,3.0979,3.133,3.133,3.1797,3.2635,3.2961,3.3677,3.4631,3.4983,3.5425,3.5892,0.0,0.0,0.0,0.0,0.0,0.0,0.0,0.0,0.0,3.5842,3.5842,3.5842,3.5842,3.6075,3.6464,3.6989,3.763,3.8397,3.9435,3.9968,4.0357,4.0879,4.0971,4.0935,4.0935,4.1226,4.1887,4.3287,4.3792,0.0,4.5813,4.6037,4.6037,4.6037,4.7241,4.8241,4.8563,4.9834,5.0814,5.1163,5.1202,5.1171,5.1139,5.1127,5.1082,0.0,5.0986,5.0941,5.0825,5.0754,5.0682,5.0644,5.0585,5.0544,5.0542,5.0521,5.0435,5.0255,5.0255,5.0255,5.0255,5.0371,5.0435,5.0416,5.0584,5.0664,5.0683,5.072,5.0756,5.0808,5.0808,5.0897,5.0979,0.0,0.0,0.0,0.0,0.0,0.0,0.0,0.0,0.0,0.0,3.0793,3.0798,0.0,0.0,0.0,0.0,0.0,0.0,0.0,3.0808,3.0835,3.0898,3.0898,3.0873,3.0804,3.081,3.0801,3.0801,3.0798,3.0804,3.0804,3.0882,3.1349,3.2094,3.2172,3.2698,3.3551,3.4291,3.4642,3.4798,3.5585,3.5911,3.5905,3.5892,0.0,0.0,0.0,0.0,0.0,0.0,0.0,0.0,3.5905,3.5905,3.5905,3.5905,3.6527,3.7228,3.7286,3.8486,3.9731,3.9809,4.0412,4.1023,4.1023,4.1023,4.1015,4.0996,4.1696,4.2572,4.3447,4.4264,4.5082,4.5957,4.6093,4.6093,4.6093,4.6853,4.7709,4.8506,4.9379,5.0242,5.1117,5.1202,5.1202,5.1202,5.1139,5.1108,5.1108,5.1108,5.1034,5.0921,5.0906,5.0841,5.072,5.0663,5.0625,5.0623,5.0563,5.0542,5.0542,5.0521,5.0521,5.0521,5.0584,5.0623,5.0643,5.0702,5.0756,5.0827,5.088,5.0964,5.1005,5.1005,5.1053,5.1101,0.0,0.0,0.0,0.0,0.0,0.0,0.0,0.0,0.0,0.0,0.0,0.0,0.0,0.0,0.0,0.0,0.0,0.0,0.0,3.0791,3.0819,3.0827,3.0878,3.0898,3.0874,3.0823,3.0796,3.0796,3.0801,3.0806,3.0817,3.1499,3.1924,3.2133,3.2815,3.357,3.435,3.4525,3.4993,3.5636,3.583,3.5903,3.5903,3.5903,3.5897,0.0,0.0,0.0,0.0,0.0,0.0,0.0,3.5905,3.5905,3.5905,3.5905,3.6527,3.7345,3.798,3.8894,3.9867,4.0551,4.0896,4.1078,4.1078,4.1078,4.1052,4.1003,4.1696,4.2572,4.3447,4.4264,4.5082,4.5957,4.6093,4.6093,4.6093,4.6843,4.7719,4.8574,4.944,5.0296,5.1113,5.1189,5.1197,5.1197,5.1194,5.1171,5.1171,5.1127,5.1102,5.1069,5.1,5.0941,5.0858,5.0844,5.0812,0.0,5.0739,5.0739,5.0739,5.0624,5.0604,5.0645,5.0664,5.0739,5.0849,5.0861,5.0909,5.0956,5.1024,5.1073,5.1087,5.1087,5.1095,5.1102,0.0,0.0,0.0,0.0,0.0,0.0,0.0,0.0,0.0,0.0,0.0,0.0,0.0,0.0,0.0,0.0,0.0,0.0,0.0,0.0,3.0804,3.0799,3.0834,3.0878,3.0898,3.1246,3.1417,3.1417,3.1833,3.1838,3.1434,3.2311,3.295,3.3366,3.3814,3.4477,3.5226,3.5226,3.548,3.5908,3.5908,3.5908,3.5908,3.5908,3.5908,3.5908,3.5908,0.0,0.0,0.0,0.0,0.0,0.0,0.0,3.5905,3.5905,3.68,3.791,3.8338,3.939,4.048,4.0942,4.1065,4.111,4.111,4.111,4.1085,4.1064,4.1726,4.2564,4.344,4.4277,4.5134,4.601,4.6146,4.6146,4.6146,4.6547,4.7142,4.797,4.8837,4.9712,5.0549,5.0967,5.119,5.119,5.1197,5.1206,5.1206,5.1171,5.1127,5.1095,5.1056,5.1029,5.1005,5.096,5.0929,5.0893,5.0858,5.0858,5.0893,5.0794,5.0758,5.0793,5.0844,5.0877,5.0945,5.099,5.102,5.1042,5.1075,5.1121,5.1153,5.1153,5.1146,5.1159,0.0,0.0,0.0,0.0,0.0,0.0,0.0,0.0,0.0,0.0,0.0,0.0,0.0,0.0,0.0,0.0,0.0,0.0,0.0,0.0,0.0,3.0794,3.0806,3.0909,3.1108,3.1758,3.2167,3.2323,3.3195,3.3261,3.2557,3.3298,3.4016,3.4705,3.4861,3.5286,3.5914,3.5914,3.5914,3.5914,3.5914,3.5914,3.5914,3.5914,3.5914,3.5914,3.5914,3.5914,3.5894,3.5894,0.0,0.0,0.0,0.0,3.5908,3.5908,3.7136,3.85,3.85,3.9766,4.111,4.111,4.111,4.111,4.111,4.111,4.111,4.111,4.1734,4.2572,4.3442,4.4306,4.5183,4.6059,4.6196,4.6196,4.6196,4.6201,4.6505,4.7315,4.8037,4.8885,4.9897,5.0597,5.1064,5.122,5.121,5.12,5.12,5.1206,5.1183,5.112,5.1127,5.1102,5.1114,5.1048,5.102,5.102,5.0956,5.0956,5.102,5.096,5.0929,5.0932,5.099,5.102,5.1034,5.1081,5.1108,5.1127,5.1127,5.1159,5.1202,5.1202,5.1202,5.1202,0.0,0.0,0.0,0.0,0.0,0.0,0.0,0.0,0.0,0.0,3.0703,3.0703,0.0,0.0,0.0,0.0,0.0,0.0,3.0789,0.0,0.0,3.0806,3.0804,3.1167,3.1916,3.2041,3.2478,3.3223,3.41,3.4464,3.4351,3.4462,3.4589,3.4737,3.5494,3.5884,3.5981,3.5981,3.5981,3.5981,3.5981,3.5981,3.5981,3.5981,3.5981,3.5981,3.5981,3.5953,3.5904,3.5904,3.5899,0.0,0.0,0.0,3.5908,3.5908,3.7136,3.85,3.85,3.9766,4.111,4.111,4.111,4.111,4.111,4.111,4.111,4.111,4.1734,4.2572,4.3442,4.4306,4.5183,4.6059,4.6196,4.6196,4.6196,4.6196,4.6527,4.7384,4.7591,4.8273,4.9851,5.0107,5.0469,5.1228,5.122,5.1201,5.1201,5.12,5.1208,5.1178,5.1194,5.1159,5.1095,5.1082,5.1089,5.1087,5.1087,5.1087,5.1087,5.1075,5.1075,5.1073,5.1087,5.1095,5.1082,5.1102,5.1127,5.119,5.119,5.1202,5.1202,5.1202,5.1202,5.1202,0.0,0.0,0.0,0.0,0.0,0.0,0.0,0.0,0.0,0.0,0.0,3.0704,0.0,0.0,0.0,3.1384,3.1468,3.1688,3.2168,3.2199,3.2196,3.2192,3.2201,3.2389,3.2817,3.3314,3.3732,3.4132,3.4998,3.543,3.5425,3.5421,3.5433,3.5454,3.5822,3.599,3.6005,3.6005,3.6005,3.6005,3.6005,3.6001,3.5997,3.5997,3.6005,3.599,3.599,3.5986,3.5958,3.5958,3.5929,3.5899,3.5899,0.0,0.0,0.0,3.7136,3.8714,3.9688,4.0526,4.111,4.111,4.111,4.111,4.111,4.111,4.111,4.111,4.1383,4.189,4.2728,4.3585,4.4462,4.5319,4.5884,4.6196,4.6196,4.6196,4.6332,4.6722,4.7189,4.7793,4.8534,4.9442,5.0155,5.0544,5.0995,5.1249,5.1249,5.123,5.119,5.119,5.12,5.1189,5.1159,5.1159,5.1167,5.1156,5.1156,5.1156,5.1156,5.1167,5.1144,5.1089,5.1153,5.1159,5.1156,5.1156,5.1167,5.1189,5.1189,5.1189,5.1189,5.1189,5.1189,5.1189,0.0,0.0,0.0,0.0,0.0,0.0,0.0,0.0,0.0,0.0,0.0,0.0,0.0,0.0,0.0,0.0,3.2331,3.2603,3.3265,3.3304,3.3297,3.3301,3.3301,3.3434,3.3691,3.4343,3.4784,3.5028,3.5684,3.6007,3.5995,3.5996,3.5994,3.6001,3.601,3.6001,3.5994,3.5994,3.5994,3.5994,3.5994,3.6009,3.6005,3.5994,3.6001,3.6007,3.6001,3.5997,3.5994,3.5994,3.5966,3.5938,3.5934,3.5929,0.0,0.0,0.0,3.9168,4.0682,4.111,4.1091,4.1097,4.1097,4.1097,4.1103,4.1103,4.1103,4.1097,4.1097,4.1292,4.189,4.2689,4.3624,4.4715,4.5455,4.5942,4.6176,4.6196,4.6196,4.6196,4.6761,4.7267,4.7482,4.8631,4.9547,4.9976,5.0603,5.1062,5.1295,5.1258,5.124,5.124,5.1211,5.1211,5.1211,5.1211,5.1211,5.1211,5.1211,5.1211,5.1211,5.1211,5.118,5.1132,5.1175,5.1197,5.12,5.12,5.119,5.1211,5.1211,5.1211,5.1211,5.1211,5.1211,5.1211,0.0,0.0,0.0,0.0,0.0,0.0,0.0,0.0,0.0,0.0,0.0,0.0,3.1933,3.2672,3.3177,3.3235,3.3238,3.3252,3.3304,3.3304,3.3304,3.3304,3.3304,0.0,3.4525,3.4589,3.5047,3.5938,3.597,3.6004,3.5994,3.6005,3.5993,3.5996,3.6003,3.5991,3.5991,3.5991,3.5991,3.5991,3.5991,3.5991,3.5994,3.6005,3.6009,3.6009,3.5996,3.5991,3.5991,3.5991,3.6004,3.5994,3.5986,3.5986,3.6142,0.0,0.0,0.0,4.0838,4.111,4.1091,4.1089,4.1095,4.1095,4.1111,4.1091,4.1106,4.1095,4.1095,4.1109,4.1149,4.1831,4.2922,4.4618,4.4929,4.526,4.6079,4.6196,4.6196,4.6196,4.6235,4.6585,4.7423,4.7579,4.828,4.9878,5.0034,5.0424,5.1261,5.1295,5.1287,5.1287,5.122,5.1211,5.1211,5.1211,5.1211,5.1211,5.1211,5.1211,5.1211,5.1211,5.1211,5.1181,5.1201,5.1201,5.1211,5.1211,5.1211,5.1211,5.1211,5.1211,5.1211,5.1211,5.1211,5.1211,0.0,0.0,0.0,0.0,0.0,0.0,0.0,0.0,0.0,0.0,0.0,0.0,0.0,3.3118,3.3507,3.4031,3.4583,3.4894,3.4902,3.4902,3.4909,3.4897,3.4904,3.5074,3.5431,3.5431,3.5599,3.5938,3.5943,3.5958,3.6009,3.5991,3.6003,3.5993,3.5995,3.6003,3.5991,3.5991,3.5991,3.5994,3.6003,3.6009,3.5993,3.5995,3.5996,3.5996,3.5996,3.5994,3.6009,3.6009,3.6001,3.6007,3.6004,3.5997,3.6263,3.7628,3.8868,3.9994,4.0866,4.11,4.11,4.1106,4.1106,4.1106,4.1091,4.1091,4.1091,4.1106,4.1106,4.1106,4.1109,4.176,4.2494,4.3137,4.4169,4.5007,4.5319,4.5845,4.6196,4.6196,4.6196,4.6313,4.6644,4.717,4.7754,4.8358,4.8904,4.9586,5.0424,5.0474,5.0728,5.1292,5.1284,5.1256,5.1256,5.1256,5.1256,5.1256,5.1256,5.1256,5.1256,5.1256,5.1256,5.1256,5.1256,5.1267,5.1258,5.1258,5.1267,5.1256,5.1256,5.1256,5.1256,5.1256,5.1256,5.1256,0.0,0.0,0.0,0.0,0.0,0.0,0.0,0.0,0.0,3.3215,0.0,0.0,0.0,0.0,3.4342,3.4886,3.5469,3.5799,3.5799,3.5799,3.5799,3.5795,3.5795,3.583,3.5872,3.5872,3.5885,3.5897,3.5897,3.5928,3.5968,3.5966,3.5988,3.6003,3.5994,3.5995,3.6001,3.5996,3.5991,3.5994,3.5991,3.5996,3.5993,3.5992,3.6183,3.6433,3.6437,3.6618,3.6875,3.6875,3.6873,3.6864,3.6862,3.7067,3.7526,3.8612,3.9544,4.0359,4.094,4.1091,4.1096,4.11,4.11,4.11,4.1105,4.1105,4.1105,4.11,4.11,4.1096,4.1106,4.1543,4.2,4.226,4.3273,4.4228,4.4812,4.5397,4.5864,4.6176,4.6196,4.6196,4.6196,4.6722,4.717,4.7482,4.8047,0.0,4.9547,4.9605,4.9995,5.0833,5.1145,5.13,5.13,5.13,5.13,5.13,5.13,5.13,5.13,5.13,5.13,5.13,5.13,5.1292,5.1304,5.1304,5.1304,5.13,5.13,5.13,5.13,5.13,5.13,5.13,0.0,0.0,0.0,0.0,0.0,0.0,0.0,0.0,3.3351,3.3371,0.0,0.0,0.0,0.0,0.0,3.5799,3.5799,3.5799,3.5799,3.5799,3.5799,3.5799,3.5799,3.5807,3.5803,3.5803,3.5838,3.5898,3.5898,3.5898,3.5908,3.5908,3.5934,3.5991,3.5991,3.6009,3.5994,3.6001,3.5994,3.5996,3.5995,3.5992,3.601,3.6033,3.6567,3.7308,3.7331,3.7887,3.8593,3.8606,3.8592,3.8594,3.8593,3.9192,3.9881,3.9819,4.0418,4.109,0.0,0.0,0.0,4.109,4.1094,4.1097,4.1108,4.1108,4.1108,4.1097,4.1094,4.109,4.1096,4.1096,4.1359,4.2149,4.2299,4.2903,4.4618,4.4871,4.5222,4.6098,4.6196,4.6196,4.6196,4.6196,4.6546,4.7404,4.7462,4.7832,4.8729,4.8787,4.9157,4.9937,5.0794,5.1242,5.1261,5.1261,5.1261,5.13,5.13,5.13,5.13,5.13,5.13,5.13,5.13,5.13,5.13,5.13,5.13,5.13,5.13,5.13,5.13,5.13,5.13,5.13,0.0,0.0,0.0,0.0,0.0,0.0,3.4002,3.4167,3.4389,0.0,0.0,0.0,3.5443,3.5655,3.5799,3.5799,3.5799,3.5799,3.5799,3.5799,3.5799,3.5799,3.5799,3.5799,3.5807,3.5807,3.5815,3.5838,3.5838,3.5852,3.5898,3.5897,3.5919,3.5934,3.5974,3.5991,3.6007,3.5995,3.5996,3.5995,3.5991,3.5996,3.6056,3.6645,3.7011,3.7308,3.794,3.8315,3.8537,3.8521,3.8553,3.8602,3.8593,3.9198,3.9895,3.9884,4.0464,4.1104,4.1101,0.0,0.0,0.0,0.0,0.0,4.1108,4.1108,4.1108,4.1104,4.1104,4.1101,4.109,4.1109,4.1159,4.1398,4.1953,4.274,4.3819,4.4501,4.5222,4.6098,4.6196,4.6196,4.6196,4.6196,4.6293,0.0,4.6566,4.6936,4.7813,4.8456,4.8904,4.9118,4.9372,4.9761,5.0346,5.0365,5.0677,5.13,5.13,5.13,5.13,5.13,5.13,5.13,5.13,5.13,5.13,5.13,5.13,5.13,5.13,5.13,5.13,5.13,5.13,5.13,0.0,0.0,0.0,0.0,0.0,3.3984,3.4875,3.5001,3.5166,0.0,0.0,0.0,3.5766,3.5756,3.5765,3.5765,3.5765,3.5765,3.5765,3.5765,3.5765,3.5765,3.5765,3.5773,3.5801,3.5801,3.5791,3.5795,3.5795,3.5823,3.5864,3.5866,3.5866,3.5903,3.5948,3.5966,3.5958,3.5994,3.6001,3.6005,3.5994,3.6192,3.6551,3.7021,3.7639,3.8346,3.8828,3.9238,3.9555,3.9585,3.9607,3.9647,3.9641,3.9999,4.0409,4.0404,4.0728,4.1108,4.1108,4.1108,4.1108,4.1108,0.0,0.0,4.1108,4.1108,4.1108,0.0,4.1108,4.1108,4.1101,4.1101,4.1097,4.1105,4.1525,4.2159,4.298,4.3857,4.4715,4.5553,4.5982,4.6196,4.619,4.6209,4.6203,4.6196,4.6196,4.641,4.6936,4.7774,4.8261,4.8261,4.8612,4.9021,4.9488,4.9508,4.9742,5.0268,5.0268,5.0424,5.0755,5.0755,5.0969,5.13,5.13,5.13,5.13,5.13,5.13,5.13,5.13,5.13,5.13,5.13,5.13,5.13,0.0,0.0,3.3518,3.4389,3.4545,3.4817,3.5591,3.5698,3.5699,0.0,3.5699,3.5699,3.5708,3.5708,3.5708,3.5708,3.5708,3.5708,3.5708,3.5708,3.5708,3.5708,3.5708,3.5737,3.5794,3.5794,3.5784,3.5791,3.5791,3.5799,3.5795,3.5803,3.5826,3.5879,3.5897,3.5894,3.5904,3.5958,3.6036,3.6138,3.6122,3.6567,3.7216,3.7409,3.8435,3.9799,3.9825,4.0344,4.1013,4.1064,4.1096,4.1085,4.1108,4.1105,4.1093,4.1094,4.1108,4.1094,4.1091,4.1091,4.1108,4.1108,4.1108,0.0,4.1108,4.1108,4.1108,0.0,4.1108,4.1108,4.1108,4.1108,4.1108,4.1097,4.1094,4.1402,4.229,4.3066,4.3885,4.4802,4.5582,4.6084,4.6189,4.6209,4.6203,4.6203,4.6203,4.6203,4.6203,4.6924,4.7352,4.7352,4.8112,4.856,4.8658,4.8658,4.8697,4.8794,4.8794,4.9165,4.9866,4.9866,5.0334,5.1172,5.1172,5.123,5.1308,5.1308,5.13,5.13,5.13,5.13,5.13,5.13,5.13,5.13,0.0,3.4156,3.4408,3.5278,3.5463,3.5502,3.5676,3.5695,3.5706,3.5706,3.5697,3.5708,3.5708,3.5708,3.5708,3.5708,3.5708,3.5708,3.5708,3.5708,3.5708,3.5708,3.5708,3.5708,3.5718,3.5718,3.5718,3.5718,3.5775,3.5793,3.5793,3.5788,3.5811,3.5818,3.5885,3.5898,3.5897,3.5917,3.6326,3.6968,3.6966,3.7069,3.735,3.8702,3.9427,3.9816,4.0497,4.0867,4.1011,4.1026,4.1025,4.1037,4.1081,4.1094,4.1101,4.1093,4.1094,4.1092,4.1107,4.1099,4.1108,4.1108,4.1108,0.0,4.1108,4.1108,4.1108,0.0,4.1108,4.1108,4.1108,4.1108,4.1108,4.1108,4.1108,4.1394,4.2271,4.2539,4.3202,4.4724,4.5055,4.5426,4.6123,4.6201,4.6201,4.6201,4.6201,4.6201,4.6201,4.6357,4.6454,4.6454,4.663,4.7033,4.7755,4.7755,4.8106,4.8808,4.8808,4.8886,4.9022,4.9022,4.951,5.0335,5.0335,5.0719,5.1382,5.1382,5.1349,5.13,5.13,5.13,5.13,5.13,5.13,5.13,3.4949,3.5046,3.5182,3.5626,3.5704,3.5704,3.5704,3.5704,3.5704,3.5704,3.5695,3.5697,3.5707,3.5678,3.5648,3.5648,3.5657,3.5657,3.5648,3.5648,3.5678,3.5707,3.5707,3.5698,3.5708,3.5708,3.5699,3.5708,3.5737,3.5747,3.5747,3.5745,3.5763,3.5799,3.5842,3.5838,3.5878,3.6313,3.6748,3.715,3.719,3.7702,3.8546,3.9373,3.9968,4.0396,4.0807,4.0971,4.1007,4.1003,4.0993,4.1019,4.1047,4.107,4.1104,4.1103,4.109,4.1093,4.1093,4.109,4.1107,4.1101,4.1094,0.0,0.0,4.1108,4.1108,4.1108,4.1108,4.1108,4.1108,4.1108,4.1108,4.1108,4.1108,4.1241,4.1683,4.2128,4.2713,4.3552,4.404,4.4641,4.5514,4.5592,4.5763,4.6167,4.6206,4.6206,4.6206,4.6206,4.6206,4.6206,4.6206,4.6401,4.685,4.685,4.7064,4.7493,4.7493,4.7727,4.8156,4.8156,4.8625,4.9483,4.9912,5.0341,5.079,5.1219,5.1382,5.1349,5.1349,5.1349,5.1349,5.1349,5.1349,5.1349,3.5704,3.5704,3.5704,3.5704,3.5704,3.5704,3.5704,3.5704,3.5704,3.5704,3.5684,3.5673,3.5673,3.5631,3.5601,3.5601,3.5596,3.5604,3.5589,3.5601,3.5612,3.5673,3.5684,3.5695,3.5697,3.5697,3.5688,3.5689,3.5699,3.5699,3.5699,3.5708,3.5737,3.5775,3.5773,3.5868,3.6079,3.6775,3.7269,3.758,3.7634,3.8478,3.9696,3.9866,4.0362,4.0965,4.0907,4.0936,4.0974,4.1002,4.1003,4.1,4.1007,4.1031,4.1081,4.1097,4.1094,4.1105,4.1092,4.1093,0.0,0.0,0.0,4.1099,0.0,0.0,0.0,4.1094,4.1094,4.1094,4.1111,4.1108,0.0,4.1108,0.0,0.0,0.0,4.1713,0.0,4.2376,4.3021,4.3798,4.4669,4.4747,4.5094,4.5904,4.5963,4.6041,4.6216,4.6216,4.6216,4.6216,4.6216,4.6216,4.6216,4.6216,4.6216,4.6216,4.6216,4.6587,4.7265,4.7265,4.7733,4.861,4.9313,4.9806,5.0157,5.0854,5.1244,5.14,5.1394,5.1394,5.1394,5.1394,5.1394,5.1375,3.5693,3.5704,3.5704,3.5704,3.5704,3.5704,3.5704,3.5704,3.5704,3.5704,3.5643,3.5612,3.5612,3.5596,3.5604,3.5604,3.5604,3.5604,3.5604,3.5608,3.5601,3.5612,3.5673,3.5704,3.5695,3.5695,3.5695,3.5695,3.5697,3.5688,3.5688,3.5699,3.5708,3.5708,3.5718,3.6144,3.6881,3.6978,3.789,3.9324,3.9315,3.9432,3.9703,4.0471,4.078,4.0828,4.0877,4.0888,4.0917,0.0,4.0991,4.1007,4.0999,4.1007,4.1025,4.1081,4.11,4.1097,4.1091,0.0,0.0,0.0,4.1092,0.0,0.0,0.0,4.1108,4.1107,0.0,4.1103,4.1091,0.0,0.0,0.0,0.0,0.0,4.1108,4.1186,4.1537,4.2318,4.2494,4.2884,4.3762,4.386,4.4208,4.5067,4.5145,4.5476,4.6257,4.6296,4.6296,4.6296,4.6296,4.6296,4.6296,4.6296,4.6296,4.6296,4.6296,4.6335,4.6433,4.6433,4.6901,4.774,4.7838,4.8736,5.0102,5.0219,5.0707,5.141,5.1405,5.1394,5.1394,5.1394,5.1394,5.1297,3.5631,3.5643,3.5643,3.5684,3.5704,3.5704,3.5704,3.5673,3.5643,3.5643,3.562,3.5584,3.5553,3.5534,3.5528,3.5482,3.5449,3.5468,3.5547,3.5541,3.556,3.5601,3.5631,3.5673,3.5704,3.5704,3.5704,3.5704,3.5695,3.5706,3.5706,3.5697,3.5707,3.5728,3.6221,3.6658,3.7075,3.8082,3.8926,3.9644,4.0109,4.0303,4.0352,4.0701,4.0818,4.0807,4.0837,4.0867,4.0907,0.0,4.0965,0.0,0.0,0.0,4.1006,4.1026,4.1045,4.1042,4.1081,0.0,0.0,0.0,0.0,0.0,4.1107,0.0,4.1093,0.0,0.0,0.0,0.0,0.0,0.0,0.0,4.1103,4.1103,0.0,0.0,4.1244,4.1596,0.0,0.0,4.2864,4.3391,4.386,4.4211,4.4719,4.5151,4.5531,4.6033,4.63,4.63,4.63,4.63,4.63,4.63,4.63,4.63,4.63,4.63,4.63,4.63,4.6495,4.6866,4.7373,4.7998,4.8681,4.9208,4.9614,4.9946,4.9957,5.0538,5.1401,5.1401,5.1084,5.0596,3.5565,3.5589,3.562,3.5662,3.5662,3.5662,3.5662,3.562,3.5589,3.5589,3.5572,3.5631,3.5797,3.5801,3.584,3.604,3.601,3.6025,3.6123,3.594,3.5842,3.59,3.5705,3.5612,3.5673,3.5684,3.5704,3.5704,3.5704,3.5704,3.5704,3.5704,3.5811,3.6065,3.6693,3.7226,3.7741,3.9007,3.9666,3.9917,4.051,4.0769,4.0776,4.0792,4.0804,4.0804,4.0796,4.0826,4.0867,4.0867,4.0908,0.0,4.0965,4.0963,4.098,4.0984,4.1006,4.1,4.1064,0.0,0.0,0.0,0.0,0.0,0.0,0.0,0.0,0.0,0.0,0.0,0.0,0.0,0.0,0.0,0.0,4.1093,0.0,4.1108,4.1101,0.0,0.0,0.0,0.0,4.2617,4.3091,4.3325,4.393,4.4384,4.4625,4.546,4.5944,4.5941,4.6175,4.6295,4.6295,4.6293,4.629,4.629,4.6309,4.6306,4.6306,4.6306,4.6306,4.6345,4.6973,4.7383,4.7656,4.8278,4.8688,4.8899,4.8899,4.9645,5.0718,5.0711,5.0321,4.9731,3.5502,3.556,3.5604,3.5604,3.5604,3.5604,3.5604,3.5604,3.5604,3.5604,3.5528,3.5795,3.6584,3.6543,3.6807,3.7649,3.7725,3.7725,3.7725,3.7068,3.6661,3.6661,3.5977,3.5601,3.5601,3.5673,3.5704,3.5704,3.5704,3.5704,3.5704,3.5704,3.611,3.6864,3.6887,3.7803,3.9329,3.9386,3.9855,4.0563,4.0602,4.0654,4.07,0.0,4.0803,4.0803,4.0808,0.0,0.0,4.0796,4.0787,0.0,0.0,0.0,0.0,0.0,0.0,0.0,0.0,0.0,0.0,4.1007,0.0,0.0,0.0,0.0,4.1109,0.0,0.0,0.0,0.0,0.0,0.0,0.0,0.0,0.0,0.0,4.1091,4.1094,4.1094,4.1108,0.0,0.0,4.1168,4.1523,4.2383,4.2461,4.2851,4.3691,4.457,4.5038,4.5039,4.5859,4.6308,4.6308,4.6307,4.6306,4.6306,4.6303,4.6301,4.6301,4.6301,4.6301,4.6301,4.6321,4.6829,4.759,4.7629,4.8137,4.8897,4.8897,4.8936,4.8975,4.8978,4.8951,4.8814,3.5374,3.5388,3.5449,3.5579,3.5591,3.5591,3.5547,3.5522,3.5515,3.5468,3.5878,3.6278,3.6534,3.6965,3.7354,3.7641,3.7661,3.7697,3.7731,3.7496,3.7424,3.7565,3.7305,3.6941,3.6414,3.647,3.6223,3.5643,3.5673,3.5704,3.5704,3.5704,3.6137,3.6926,3.7506,3.837,3.9444,3.9962,4.0352,4.0603,4.0603,4.0617,4.0631,0.0,4.0759,4.079,4.0803,4.0796,0.0,4.0792,4.0804,4.0807,4.0837,4.0828,4.0839,4.0868,4.0908,0.0,0.0,0.0,4.0924,4.0932,0.0,0.0,0.0,0.0,0.0,0.0,0.0,0.0,0.0,0.0,0.0,0.0,0.0,0.0,0.0,4.1101,4.1108,4.1099,4.1094,4.1091,0.0,0.0,4.1226,4.1521,4.2064,4.2533,4.2829,4.3665,4.4133,4.4136,4.4429,4.4862,4.5436,4.5438,4.5737,4.6307,4.6307,4.6307,4.6307,4.6307,4.6307,4.6307,4.6307,4.6464,4.6737,4.6737,4.6914,4.7187,4.7187,4.7187,4.7304,4.8416,4.8492,4.7925,3.527,3.527,3.5315,3.5463,3.5476,3.5476,3.5435,3.5676,3.5844,3.5799,3.6408,3.6971,3.7277,3.77,3.8079,3.8363,3.8401,3.8441,3.848,3.8288,3.8223,3.8358,3.8131,3.7752,3.7236,3.7289,3.7044,3.6484,3.6559,3.6601,3.6601,3.6601,3.7015,3.7803,3.8357,3.9031,3.9832,4.0346,4.0546,4.0476,4.0476,4.0511,0.0,0.0,4.0687,4.0759,0.0,4.0771,4.0808,4.0808,4.08,4.0792,4.0804,4.0796,4.0796,4.0807,4.0837,4.0848,4.0848,4.0868,0.0,4.0859,4.0859,0.0,4.0954,0.0,4.0968,0.0,0.0,0.0,0.0,0.0,0.0,0.0,0.0,0.0,0.0,4.1061,4.1061,4.1061,4.1088,4.1105,4.1105,4.1101,4.1104,4.11,4.1613,4.1925,0.0,0.0,4.3192,4.3197,4.349,4.3948,4.4532,4.4844,4.5281,4.5841,4.6134,4.6267,4.6267,4.6267,4.6267,4.6267,4.6267,4.6267,4.6267,4.6267,4.6267,4.6267,4.6267,4.6267,4.6407,4.7494,4.7574,4.7024,3.5157,3.5193,3.5226,3.527,3.53,3.5304,3.535,3.6004,3.6504,3.653,3.7147,3.787,3.8708,3.8698,3.8972,3.9728,3.9848,3.9889,3.9889,3.9356,3.905,3.9069,3.8454,3.8089,3.8065,3.8122,3.8125,3.8105,3.8164,3.8208,3.8208,3.8208,3.8614,3.9393,3.9326,3.973,4.0508,4.0499,4.0396,4.0289,4.0307,4.0341,4.0406,4.0511,4.0641,4.0745,4.0745,4.0842,4.0926,4.0926,4.0926,4.0919,4.0866,4.0846,4.0858,4.0815,4.0807,4.0807,4.0807,4.0776,4.0796,4.0796,0.0,0.0,0.0,0.0,4.0888,0.0,0.0,0.0,0.0,0.0,0.0,0.0,0.0,0.0,0.0,4.1007,4.1007,4.1007,4.105,4.1091,4.1091,4.1106,4.1089,4.111,4.1103,4.1064,0.0,0.0,4.2247,4.2239,4.3044,4.3518,4.3631,4.4456,4.4885,4.4943,4.5757,4.6147,4.6147,4.6187,4.6206,4.6206,4.6206,4.6206,4.6206,4.6206,4.6206,4.6206,4.6206,4.6206,4.6206,4.6273,4.6245,4.6206,3.4963,3.4982,3.4963,3.5,3.5141,3.5436,3.6035,3.6249,3.6575,3.7148,3.7886,3.8412,3.8639,3.912,3.9486,3.9717,3.9735,3.9781,3.9889,3.9745,3.9735,3.989,3.9735,3.9367,3.8837,3.8877,3.8618,3.8036,3.8092,3.8119,3.8119,3.8119,3.8549,3.9326,3.9268,3.9704,4.0499,4.0342,4.0234,4.0157,4.0196,4.0234,4.0327,0.0,4.1404,4.1517,4.1576,4.2025,4.2588,4.2588,4.2621,4.255,4.1906,4.1693,4.1577,4.097,4.0764,4.0739,4.0739,4.0688,4.0642,4.0642,4.0688,4.072,0.0,0.0,0.0,0.0,0.0,0.0,0.0,0.0,0.0,0.0,0.0,0.0,0.0,0.0,4.0924,4.0924,4.0932,4.0964,4.1019,4.1033,4.102,4.1032,4.1025,4.1018,4.0991,0.0,0.0,4.133,4.1544,4.1987,4.265,4.2883,4.3319,4.3974,4.4832,4.5235,4.5254,4.5898,4.619,4.619,4.619,4.619,4.619,4.619,4.619,4.619,4.619,4.6164,4.6137,4.6195,4.622,4.6189,3.4771,3.4771,3.4884,3.5243,3.54,3.5628,3.6179,3.6862,0.0,3.786,3.8609,0.0,3.901,3.9674,4.0134,4.0158,4.0478,4.0758,4.0854,4.0919,4.0862,4.0649,4.0672,4.033,3.9599,3.9648,3.9487,3.9092,3.9133,3.9157,3.9191,3.9191,3.9413,3.9826,3.9781,3.9986,4.0362,4.0139,4.0058,4.0057,4.0057,4.0078,0.0,4.117,4.1819,4.2291,4.2708,4.2999,4.3202,4.3202,4.3236,4.3173,4.2671,4.2516,4.2361,4.1531,4.1247,4.1137,4.0751,4.0621,4.0588,4.0588,4.0626,4.0646,4.0646,4.064,4.0602,0.0,0.0,0.0,0.0,0.0,0.0,4.0757,0.0,0.0,0.0,0.0,4.0818,4.0818,4.0848,4.0878,4.0915,4.0941,4.096,4.0952,4.0954,0.0,0.0,0.0,0.0,4.0965,4.0965,4.1196,4.1688,4.2077,4.2494,4.2996,4.388,4.4483,4.4873,4.5367,4.5804,4.6154,4.6154,4.6154,4.6154,4.6154,4.6154,4.6154,4.6154,4.6127,4.6099,4.6142,4.615,4.6169,3.4733,3.4824,3.5124,3.5837,3.6021,3.6164,0.0,3.7602,0.0,3.8784,0.0,3.9814,3.9796,4.0439,4.0836,4.0843,4.1526,4.2018,4.2077,4.2197,4.1973,4.1366,4.1421,4.1108,4.0349,4.0405,4.044,4.0449,4.046,4.0508,4.0558,4.0558,4.0543,4.0492,4.0463,4.0362,4.0158,3.9956,3.9933,3.9954,3.9889,3.9968,4.0241,4.1163,4.2123,4.3042,4.3923,4.3921,4.3509,4.3509,4.3524,4.3505,4.3389,4.3351,4.3177,4.2309,4.2058,4.1851,4.0979,4.0733,4.0714,4.0598,4.0569,4.0558,4.0558,4.0508,4.0473,4.0457,4.0457,4.0457,0.0,0.0,0.0,4.066,0.0,0.0,0.0,0.0,4.0668,4.0668,4.0732,0.0,4.0776,4.0848,4.0888,4.0877,4.0897,0.0,0.0,0.0,0.0,4.0897,4.0897,4.0888,4.0898,0.0,4.2024,4.2024,4.2908,4.3772,4.4628,4.4724,4.5258,4.6075,4.6075,4.6075,4.6075,4.6075,4.6075,4.6075,4.6075,4.6075,4.6075,4.6075,4.6075,4.6075,3.5385,3.6035,3.6539,3.667,3.7268,3.7698,3.7748,3.8059,3.8758,4.0146,4.0394,4.0697,4.1324,4.153,4.1623,4.1623,4.1754,0.0,0.0,0.0,0.0,4.2111,4.2162,4.1832,4.1043,4.1128,4.0903,0.0,0.0,4.036,4.0449,4.0449,4.0413,4.0413,4.0307,4.0139,3.9954,3.9911,0.0,3.9758,3.9735,4.0193,4.0999,4.1886,4.2813,4.3757,4.4679,4.5054,4.5126,4.5161,4.5175,4.5054,4.4411,4.418,4.4025,4.3166,4.2864,4.2621,4.1745,4.15,4.133,4.0603,4.043,4.0413,4.036,4.0323,4.0306,4.027,4.0252,4.0252,4.0252,0.0,0.0,0.0,0.0,0.0,0.0,0.0,4.0534,4.0534,4.0583,4.0651,4.0651,4.0757,4.0818,4.0818,4.0818,0.0,0.0,0.0,0.0,0.0,4.0818,0.0,0.0,0.0,4.1061,4.1061,4.1944,4.2798,4.366,4.4389,4.5165,4.5941,4.5941,4.5941,4.5941,4.5941,4.5941,4.5941,4.5941,4.5941,4.5941,4.5941,4.5941,4.5953,3.6186,3.6553,3.6938,3.7348,3.7757,0.0,0.0,3.933,3.9656,4.052,4.0988,4.1344,4.1726,4.2108,4.2379,4.2379,4.2789,4.3108,4.3175,4.3203,4.3079,4.2787,4.28,4.2497,4.1802,4.1456,4.1104,4.0767,0.0,0.0,0.0,4.0307,4.0289,4.0289,4.0119,3.9977,3.9889,0.0,0.0,3.9741,4.015,4.0589,4.1146,4.2484,4.3256,4.3805,4.4729,4.5129,4.5279,4.5438,4.5495,4.5435,4.503,4.4914,4.4741,4.3917,4.3651,4.3422,4.2524,4.1971,4.1531,4.1092,4.0615,4.0291,4.0215,4.0177,4.0138,4.0059,4.0039,4.0078,4.0138,4.0196,0.0,0.0,0.0,0.0,0.0,0.0,4.0339,4.0339,4.0427,4.0495,4.0495,4.0626,4.0688,4.0694,0.0,0.0,0.0,0.0,0.0,0.0,0.0,0.0,0.0,0.0,0.0,4.0713,4.1621,4.2504,4.3388,4.4284,4.513,4.5905,4.5905,4.5905,4.5905,4.5905,4.5905,4.5905,4.5905,4.5905,4.5905,4.5905,4.5905,4.5917,3.7024,3.7147,3.7466,3.8284,3.8432,3.8915,4.042,4.0791,4.096,4.1055,4.1614,4.2052,4.218,4.2757,4.313,4.313,4.3744,4.4195,4.4255,4.4304,4.4044,4.3465,4.3455,4.3141,4.251,4.1959,4.1522,0.0,0.0,0.0,0.0,0.0,4.0158,4.0139,3.9975,0.0,0.0,0.0,3.9763,3.994,4.0578,4.1048,4.1499,4.2919,4.3592,4.3895,4.4594,4.4895,4.4991,4.5192,4.53,4.5361,4.5361,4.5381,4.5246,4.4614,4.4403,4.4212,4.3273,4.2526,4.1991,4.176,4.1053,4.0384,4.0323,4.0148,3.9933,3.9867,3.9867,3.9889,4.0015,4.0036,0.0,0.0,0.0,0.0,0.0,0.0,4.0139,4.0139,4.0252,4.0344,4.0344,4.0463,0.0,0.0,0.0,0.0,4.0588,0.0,0.0,0.0,0.0,4.0593,4.0593,0.0,4.0593,4.0612,4.1531,4.2427,4.3311,4.4215,4.5092,4.5867,4.5867,4.5867,4.5867,4.5867,4.5867,4.5867,4.5867,4.5867,4.5867,4.5867,4.5867,4.5867,3.7782,3.8377,3.9138,0.0,0.0,4.0457,4.1349,4.211,4.2575,4.2605,4.266,4.2995,4.3708,4.3838,4.3893,4.3893,4.3968,4.4085,4.4214,4.4214,4.4207,4.4202,4.427,4.3915,4.3133,4.3111,4.2461,0.0,0.0,4.0732,0.0,0.0,0.0,0.0,0.0,0.0,0.0,3.9526,3.9902,4.052,4.0595,4.1511,4.2838,4.3192,4.3791,4.443,4.4667,4.4745,4.4821,4.4846,4.5014,4.5235,4.5277,4.5317,4.5298,4.5159,4.5099,4.4908,4.3967,4.3596,4.3323,4.2579,4.1699,4.101,4.1018,4.0371,3.9804,3.9735,3.9712,3.9735,3.9804,3.9826,3.9848,0.0,0.0,0.0,0.0,0.0,3.9933,3.9933,4.0057,4.0137,4.0137,4.0252,0.0,0.0,4.0504,0.0,0.0,0.0,0.0,4.0588,0.0,4.0504,4.0504,4.0504,4.0539,4.0607,4.1431,4.2309,4.3245,4.4056,4.4905,4.5731,4.5731,4.5731,4.5731,4.5731,4.5731,4.5731,4.5731,4.5731,4.5731,4.5731,4.5731,4.5731,0.0,0.0,0.0,0.0,0.0,0.0,0.0,4.2593,4.2965,4.3466,4.3522,4.3633,4.3968,4.4005,4.4005,4.4005,4.4005,4.4005,4.4085,4.4085,4.4135,4.4244,4.4274,4.4165,4.3867,4.3399,4.29,0.0,0.0,0.0,0.0,0.0,0.0,0.0,0.0,3.9833,4.0214,4.0188,4.0603,4.1353,4.1857,4.2436,4.3071,4.3652,4.4092,4.4401,4.4496,4.4551,4.456,4.4659,4.4821,4.5014,4.5038,4.5057,4.5038,4.5033,4.5014,4.4915,4.4502,4.4023,4.354,4.3194,4.2384,4.1561,4.1035,4.061,4.0165,3.9627,3.9508,3.9533,3.9551,3.9599,3.9647,0.0,0.0,0.0,0.0,0.0,0.0,3.9781,3.9848,3.9933,3.9933,4.0078,0.0,0.0,0.0,0.0,0.0,0.0,0.0,4.0411,0.0,4.0323,4.0323,4.0323,4.0358,4.043,4.1807,4.2684,4.3121,4.4501,4.531,4.5654,4.5654,4.5654,4.5654,4.5632,4.5648,4.5648,4.5648,4.5648,4.5648,4.5635,4.5654,4.5654,4.1169,0.0,4.1403,0.0,4.1779,4.2088,4.2946,4.3107,4.3311,4.3886,4.3961,4.3974,4.4005,4.4005,4.4005,4.4005,4.4005,4.4005,4.4005,4.4005,4.4036,4.4135,4.4135,0.0,4.4255,4.3716,4.3315,4.3053,4.2047,0.0,0.0,0.0,0.0,0.0,3.9852,4.0263,4.0988,4.0933,4.1372,4.2126,4.2704,4.3077,4.3357,4.4031,4.4255,4.4285,4.4344,4.4354,4.4401,4.4468,4.4605,4.4719,4.4796,4.4796,4.4815,4.4789,4.477,4.477,4.4719,4.4278,4.3818,4.3785,4.3047,4.2205,4.159,4.1049,4.0416,3.9586,3.9391,3.9399,3.9413,3.9446,3.9496,3.9521,0.0,0.0,0.0,3.9613,0.0,3.9613,3.9665,3.9717,3.9717,3.9892,0.0,0.0,0.0,0.0,0.0,0.0,0.0,0.0,0.0,0.0,4.0139,4.0139,4.0311,4.0653,4.2125,4.2986,4.3348,4.4843,4.5514,4.5514,4.5514,4.5514,4.5532,4.5549,4.5547,4.5545,4.5547,4.5547,4.553,4.5532,4.5514,4.5514,4.1298,4.1298,4.1538,4.2332,4.2479,4.2788,4.3656,4.3786,4.3786,4.3804,4.3851,4.3929,4.4005,4.4005,4.4005,4.4005,4.4005,4.4005,4.4005,4.4005,4.4005,0.0,0.0,4.4055,4.4184,4.4184,4.3785,4.2986,0.0,0.0,4.0694,0.0,3.987,4.0667,4.0614,4.1008,4.1706,4.1706,4.2095,4.2779,4.2797,4.328,4.3986,4.4135,4.4184,4.4214,4.4304,4.4285,4.4314,4.4314,4.4314,4.4344,4.4524,4.4605,4.4578,4.4524,4.4496,4.4496,4.4496,4.444,4.4393,4.4393,4.367,4.2996,4.2996,4.1745,4.0363,3.9586,3.9391,3.9391,3.9391,3.9418,3.9418,3.9418,0.0,0.0,0.0,3.9399,0.0,3.9399,3.9446,3.9483,3.9483,3.9693,0.0,0.0,0.0,0.0,0.0,0.0,0.0,4.0098,4.0036,0.0,3.9996,3.9996,4.0477,4.1397,4.2295,4.3155,4.4017,4.4895,4.5297,4.5297,4.5297,4.5338,4.5418,4.5418,4.54,4.54,4.54,4.5418,4.5379,4.5317,4.5297,4.5297,4.2684,4.2794,4.2901,4.3192,4.3262,4.3354,4.3749,4.3804,4.3804,4.3804,4.3837,4.3818,4.3851,4.3961,4.4005,0.0,4.3961,4.3929,0.0,4.3883,4.3851,4.3851,4.3851,4.3883,4.3934,4.3934,4.3818,4.3633,0.0,0.0,0.0,4.1175,4.1166,4.1372,4.1362,4.1752,4.2456,4.2456,4.2902,4.3615,4.3615,4.3763,4.4005,4.4055,4.4055,4.4055,4.4085,4.4116,4.4116,4.4195,4.4244,4.4244,4.4304,4.4344,4.4401,4.4373,4.4373,4.4373,4.4373,4.4344,4.4344,4.4344,4.405,4.3655,4.3058,4.1651,4.0393,4.0133,3.9611,3.9202,3.9202,3.9229,3.9256,3.9256,3.9346,0.0,3.9391,0.0,3.9391,3.9391,3.9425,3.9432,3.9432,3.9496,0.0,0.0,0.0,0.0,0.0,0.0,0.0,0.0,3.9826,0.0,3.98,3.98,4.0261,4.1222,4.2018,4.3225,4.4703,4.5033,4.517,4.517,4.517,4.517,4.5192,4.5235,4.5256,4.5258,4.5256,4.5256,4.5254,4.5148,4.5103,4.5103,4.3387,4.3497,4.3513,4.3548,4.3548,4.36,4.3686,4.3686,4.3686,4.3686,4.3719,4.3719,4.3719,4.3832,0.0,4.3929,4.3883,4.3851,4.3851,4.3837,4.3804,4.3804,4.3804,4.3804,4.3804,4.3804,0.0,4.3851,4.3063,4.2458,4.2076,4.176,4.1768,4.2006,4.2006,4.244,4.3187,4.3187,4.3465,4.3929,4.3929,4.3961,4.3942,4.3942,4.3974,4.4005,4.3974,4.3942,4.3992,4.4011,4.4061,4.4061,4.4061,4.4092,4.4135,4.4177,4.4177,4.4177,4.4177,4.4177,4.4177,4.4177,4.4165,4.3911,4.3074,4.2047,4.1219,4.0903,4.0178,3.9584,3.9584,3.9352,3.9156,3.9156,3.9229,3.9275,3.9275,0.0,3.9275,0.0,0.0,0.0,0.0,3.938,3.9413,0.0,0.0,0.0,0.0,0.0,0.0,3.9754,3.9727,0.0,3.9703,3.9703,4.0292,4.1534,4.2648,4.3775,4.487,4.4919,4.4943,4.4943,4.4943,4.4967,4.4991,4.5014,4.5061,4.5061,4.5057,4.5057,4.5057,4.4919,4.487,4.487,4.3497,4.3497,4.3497,0.0,4.3497,0.0,4.3497,4.3497,4.3497,4.3497,4.3548,4.3582,4.3582,4.3719,4.3771,4.3771,0.0,0.0,0.0,4.3771,4.3771,4.3771,4.3771,4.3771,4.3771,4.3771,4.3771,4.3804,4.2959,4.2572,4.2553,4.1815,4.1852,4.2572,4.2572,4.3047,4.3804,4.3804,4.3804,4.3804,4.3804,4.3837,4.3897,4.3897,4.3929,4.3974,4.3929,4.3897,4.3883,4.3837,4.3804,4.3804,4.3804,4.3804,4.3818,4.3961,4.3974,4.3974,4.3974,4.3974,4.3974,4.3974,4.3974,4.3769,4.3027,4.2804,4.2593,4.1832,4.1033,4.0457,4.0401,3.9733,3.9175,3.9101,3.9101,3.9101,3.9101,3.9101,3.9101,0.0,0.0,0.0,0.0,3.9301,3.9365,0.0,0.0,0.0,0.0,0.0,3.9661,3.9669,3.9669,3.9669,3.9669,3.9726,4.0621,4.2291,4.3912,4.4685,4.4685,4.4712,4.4712,4.4712,4.4712,4.4738,4.4796,4.4796,4.4821,4.487,4.484,4.4796,4.477,4.4738,4.4685,4.4685,0.0,0.0,4.3497,4.3497,4.3497,4.3497,4.3497,4.3497,4.3497,4.3497,4.3513,4.3513,4.3513,4.3566,4.3566,4.3566,4.3634,4.3634,4.3634,4.36,4.3566,4.3566,4.3566,4.3566,4.3566,4.3566,4.36,4.3634,4.355,4.3509,4.349,4.3305,4.3324,4.3509,4.3509,4.3619,4.3804,4.3804,4.3804,4.3804,4.3804,4.3804,4.3837,4.3837,4.3818,4.3869,4.3837,4.3837,4.3837,4.3804,4.3804,4.3804,4.3804,4.3804,4.3804,4.3837,4.3851,4.3851,4.3851,4.3851,4.3851,4.3851,4.3851,4.3814,4.361,4.3056,4.2506,4.2321,4.1718,4.1037,4.037,4.0168,3.9863,3.9212,3.9101,3.9101,3.9101,3.9101,3.9101,0.0,3.9064,3.9036,3.9036,3.9026,3.9054,0.0,0.0,0.0,0.0,3.9264,3.9362,3.9469,3.9469,3.9469,3.9469,4.0087,4.1237,4.2986,4.4054,4.4578,4.4632,4.4685,4.4712,4.4712,4.4712,4.4712,4.4719,4.4719,4.4719,4.4764,4.4738,4.4719,4.4712,4.4659,4.4632,4.4605,4.3975,4.4048,4.4158,4.4525,4.4599,4.4599,4.4599,4.4287,4.4048,4.4048,4.3718,4.3497,4.3497,4.3497,4.3497,4.3497,4.3513,4.3548,4.3548,4.3513,4.3497,4.3497,4.3497,4.3497,4.3497,4.3497,4.3532,4.3548,4.3634,4.3652,4.3652,4.3652,4.3652,4.3652,4.3652,4.3652,4.3652,4.3652,4.3652,4.3652,4.3652,4.3686,4.3719,4.3719,4.3771,4.3804,4.3719,4.3719,4.3719,4.3686,4.3652,4.3652,4.3652,4.3652,4.3652,4.3652,4.3738,4.3804,4.3804,4.3804,4.3804,4.3804,4.3804,4.3804,4.3804,4.3435,4.3102,4.3102,4.2506,4.1816,4.1354,4.07,4.0129,3.9618,3.9248,3.9007,3.9007,3.9007,3.9007,3.9007,3.8979,3.895,3.895,3.8939,3.8892,3.891,3.891,0.0,3.896,3.9007,3.912,3.9301,3.9373,3.956,3.9933,4.111,4.2184,4.3128,4.4008,4.443,4.4468,4.4496,4.4524,4.4524,4.4524,4.4524,4.4524,4.4524,4.4524,4.4524,4.4524,4.4524,4.4524,4.4487,4.4468,4.4458,4.4727,4.4892,4.5112,4.5773,4.5902,4.5902,4.5902,4.5333,4.4892,4.4892,4.4176,4.3681,4.3681,4.3552,4.3497,4.3497,4.3497,4.3497,4.3497,4.3497,4.3497,4.3497,4.3497,4.3497,4.3497,4.3497,4.3497,4.3497,4.3497,4.3497,4.3497,4.3497,4.3497,4.3497,4.3497,4.3497,4.3497,4.3497,4.3497,4.3497,4.3497,4.3513,4.3582,4.3582,4.3667,4.3738,4.3634,4.3582,4.3582,4.3513,4.3497,4.3497,4.3497,4.3497,4.3497,4.3497,4.36,4.3771,4.3771,4.3771,4.3771,4.3771,4.3771,4.3771,4.3771,4.3771,4.3771,4.3771,4.318,4.2645,4.2516,4.1372,4.0388,4.0129,3.9538,3.9039,3.8929,0.0,3.8862,3.8862,3.8862,3.8833,3.8833,3.8833,3.8803,3.8743,3.8743,3.8743,3.8743,3.8872,3.9047,3.9287,3.9434,3.9954,4.0905,4.2267,4.3032,4.3191,4.3949,4.4285,4.4285,4.4285,4.4285,4.4285,4.4285,4.4285,4.4285,4.4285,4.4285,4.4285,4.4285,4.4285,4.4285,4.4285,4.4285,4.4285,4.5553,4.5718,4.5755,4.5883,4.5902,4.5902,4.5902,4.5792,4.5718,4.5718,4.5021,4.4525,4.4525,4.3901,4.3497,4.3497,4.3497,4.3497,4.3497,4.3497,4.3497,4.3497,4.3497,4.3497,4.3497,4.3497,4.3497,4.3497,4.3497,4.3497,4.3497,4.3497,4.3497,4.3497,4.3497,4.3497,4.3497,4.3497,4.3497,4.3497,4.3497,4.3532,4.3532,4.3532,4.3532,4.3532,4.3513,4.3532,4.3513,4.3479,4.3497,4.3497,4.3497,4.3497,4.3497,4.3497,4.3532,4.3532,4.3532,4.3532,4.3532,4.3532,4.3532,4.3532,4.3532,4.3532,4.3532,4.3532,4.349,4.3229,4.2548,4.2263,4.1699,4.0314,4.0,3.9686,3.9003,0.0,3.8822,3.8822,3.8683,3.8572,3.8572,3.851,3.8478,3.8446,3.8446,3.8446,3.8446,3.9168,3.9598,3.9612,3.9877,4.0767,4.2365,4.2625,4.3169,4.4028,4.4158,4.4244,4.4285,4.4285,4.4285,4.4285,4.4285,4.4285,4.4285,4.4285,4.4285,4.4285,4.4285,4.4285,4.4285,4.4285,4.4285,4.4285,4.621,4.6356,4.6541,4.6962,4.7091,4.7148,4.7148,4.68,4.6562,4.6562,4.5847,4.5186,4.4764,4.4378,4.3975,4.3534,4.3497,4.3497,4.3497,4.3497,4.3497,4.3497,4.3497,4.3497,4.3497,4.3497,4.3497,4.3497,4.3497,4.3497,4.3497,4.3497,4.3497,4.3497,4.3497,4.3497,4.3497,4.3497,4.3497,4.3497,4.3497,4.3497,4.3497,4.3497,4.3497,4.3497,4.3497,4.3497,4.3497,4.3497,4.3497,4.3497,4.3497,4.3497,4.3497,4.3497,4.3497,4.3497,4.3497,4.3497,4.3497,4.3497,4.3497,4.3497,4.3497,4.3497,4.3497,4.3497,4.3513,4.3437,4.307,4.2613,4.2099,4.1346,4.0818,0.0,0.0,3.9507,3.9218,3.9173,3.8707,3.8368,3.83,3.8267,3.8201,3.8186,3.8604,3.8824,3.8824,3.9619,4.009,4.0124,4.0928,4.1728,4.2516,4.3042,4.3532,4.3998,4.3998,4.3998,4.4011,4.4011,4.4042,4.4085,4.4085,4.4116,4.4147,4.4147,4.4147,4.4147,4.4147,4.4147,4.4147,4.4147,4.4147,4.4147,4.6934,4.708,4.7281,4.7882,4.809,4.8148,4.8148,4.7677,4.7313,4.7313,4.6616,4.5865,4.526,4.4857,4.4381,4.3758,4.3538,4.3428,4.3428,4.3428,4.3444,4.3497,4.3497,4.3497,4.3497,4.3497,4.3497,4.3497,4.3497,4.3497,4.3497,4.3497,4.3497,4.3497,4.3497,4.3497,4.3497,4.3497,4.3497,4.3497,4.3497,4.3497,4.3497,4.3497,4.3463,4.3463,4.3444,4.3428,4.3428,4.3428,4.3428,4.3428,4.3428,4.3428,4.3463,4.3463,4.3463,4.3463,4.3497,4.3497,4.3497,4.3497,4.3497,4.3463,4.3463,4.3463,4.3428,4.3428,4.3428,4.3428,4.3428,4.2864,4.2372,4.2189,0.0,0.0,0.0,4.0211,3.9761,3.9728,3.9132,3.8683,3.856,3.8525,3.8508,3.8438,3.9032,3.9355,3.9355,4.0147,4.0688,4.0943,4.1809,4.2378,4.2561,4.3339,4.3686,4.3719,4.3719,4.3719,4.3753,4.3753,4.3786,4.3883,4.3883,4.3915,4.3942,4.3942,4.3942,4.3942,4.3942,4.3942,4.3942,4.3942,4.3942,4.3961,4.7755,4.7901,4.7919,4.7992,4.7992,4.7992,4.7992,4.7977,4.7941,4.7941,4.7247,4.6697,4.6642,4.5311,4.44,4.4345,4.3634,4.3196,4.3196,4.3196,4.3322,4.3479,4.3497,4.3497,4.3497,4.3497,4.3497,4.3497,4.3497,4.3497,4.3497,4.3497,4.3497,4.3497,4.3497,4.3497,4.3497,4.3497,4.3497,4.3497,4.3497,4.3497,4.3497,4.3411,4.3429,4.3376,4.3251,4.3196,4.3196,4.3196,4.3196,4.3196,4.3196,4.3196,4.3251,4.3376,4.3429,4.3411,4.3497,4.3497,4.3497,4.3497,4.3446,4.3429,4.3429,4.3286,4.3196,4.3196,4.3196,4.3196,4.3196,4.316,4.2886,4.2157,0.0,0.0,4.0725,4.0456,4.0329,4.0329,4.0128,3.9942,3.9942,3.9848,3.9771,3.9771,3.9825,3.986,3.986,4.0592,4.1421,4.2217,4.2048,4.2304,4.3141,4.3249,4.3391,4.3532,4.3532,4.3548,4.3631,4.3631,4.3701,4.3804,4.3804,4.3804,4.3804,4.3804,4.3804,4.3804,4.3804,4.3804,4.3804,4.3804,4.3804,4.3804,4.7506,4.756,4.756,4.756,4.7621,4.7663,4.7663,4.7788,4.7893,4.7893,4.7678,4.7354,4.6861,4.626,4.5512,4.4509,4.4126,4.3743,4.3233,4.3214,4.3232,4.3304,4.3304,4.3304,4.3304,4.3304,4.3304,4.3304,4.3304,4.3304,4.3304,4.3304,4.3304,4.3304,4.3304,4.3304,4.3304,4.3304,4.3304,4.3304,4.3304,4.3304,4.3304,4.3286,4.3305,4.3251,4.3214,4.3214,4.3214,4.3214,4.3214,4.3214,4.3214,4.3214,4.3214,4.3251,4.3305,4.3286,4.3322,4.3304,4.3304,4.3304,4.3286,4.3305,4.3305,4.3251,4.3178,4.316,4.3123,4.3123,4.3013,4.2994,4.2865,4.2538,0.0,4.2111,4.1749,4.1202,4.082,4.0742,4.0217,3.9854,3.9775,3.9736,3.9696,3.9696,4.0197,4.0481,4.0481,4.1227,4.1795,4.2139,4.2083,4.2325,4.2974,4.3013,4.3069,4.3123,4.3123,4.3196,4.3286,4.3286,4.3339,4.3479,4.3479,4.3532,4.36,4.36,4.36,4.36,4.36,4.36,4.36,4.36,4.36,4.36,4.7187,4.7187,4.7187,4.7187,4.7276,4.7338,4.7381,4.7536,4.7645,4.7627,4.7728,4.757,4.7025,4.6771,4.6081,4.4719,4.4375,4.3884,4.3067,4.3013,4.305,4.3196,4.3214,4.3214,4.3214,4.3214,4.3214,4.3214,4.3214,4.3214,4.3214,4.3214,4.3214,4.3214,4.3178,4.3178,4.3178,4.3123,4.3087,4.3087,4.3087,4.3087,4.3087,4.3105,4.3068,4.3068,4.3031,4.3013,4.3013,4.3013,4.3013,4.3013,4.3013,4.3031,4.3068,4.3068,4.3068,4.3068,4.3068,4.3031,4.3031,4.3142,4.3142,4.3087,4.3068,4.3031,4.2994,4.2936,4.2899,4.2842,4.2768,4.2688,4.2627,4.2627,4.2432,4.231,4.231,4.1765,4.1321,4.118,4.066,4.0241,4.0176,4.0134,4.0074,4.0074,4.0627,4.0926,4.0926,4.1454,4.1797,4.1858,4.1909,4.2163,4.2548,4.2649,4.2691,4.2691,4.2729,4.2824,4.2936,4.2992,4.3068,4.316,4.316,4.3214,4.3304,4.3304,4.3304,4.3304,4.3304,4.3304,4.3304,4.3304,4.3304,4.3304,4.698,4.698,4.698,4.698,4.698,4.7043,4.7178,4.7196,4.7223,4.7276,4.732,4.732,4.732,4.6636,4.5881,4.5072,4.4281,4.3472,4.2663,4.2609,4.2804,4.3178,4.3196,4.3214,4.3214,4.3214,4.3214,4.3214,4.3214,4.3214,4.3214,4.3214,4.3214,4.3196,4.3141,4.3104,4.3104,4.2938,4.29,4.29,4.29,4.29,4.29,4.2822,4.2802,4.2783,4.2649,4.2609,4.2609,4.2609,4.2609,4.2609,4.2609,4.2688,4.2802,4.2802,4.2802,4.2802,4.2802,4.2706,4.2688,4.3012,4.2994,4.2862,4.2822,4.2688,4.2609,4.2609,4.2472,4.2391,4.2391,4.2351,4.2287,4.2287,4.2187,4.2103,4.2103,4.2012,4.1945,4.1823,4.1692,4.156,4.1426,4.1272,4.1209,4.1209,4.1209,4.1209,4.1209,4.1209,4.13,4.1604,4.1604,4.171,4.2005,4.2181,4.2287,4.2287,4.2351,4.2472,4.2609,4.2745,4.2842,4.29,4.29,4.29,4.29,4.29,4.29,4.29,4.29,4.29,4.29,4.29,4.29,4.29,4.6429,4.6429,4.6429,4.6429,4.6542,4.659,4.6637,4.6795,4.6934,4.6962,4.7025,4.707,4.707,4.6919,4.6195,4.4836,4.4496,4.3799,4.2499,4.2409,4.245,4.2552,4.2709,4.2786,4.2786,4.2786,4.2786,4.2786,4.2786,4.2786,4.2786,4.2786,4.2786,4.2804,4.2765,4.2688,4.2609,4.2591,4.2494,4.2472,4.2472,4.2472,4.2472,4.245,4.245,4.245,4.2409,4.2409,4.2409,4.2409,4.2409,4.2409,4.2409,4.2409,4.245,4.245,4.245,4.245,4.245,4.2409,4.245,4.2688,4.2631,4.2534,4.2512,4.2432,4.2369,4.2269,4.2228,4.2205,4.2139,4.2115,4.2072,4.1952,4.1823,4.1736,4.1631,4.1498,4.1408,4.1391,4.1346,4.13,4.1255,4.1209,4.1209,4.1209,4.1209,4.1209,4.1209,4.1209,4.1255,4.1318,4.13,4.1363,4.1453,4.1884,4.2072,4.2072,4.2115,4.2163,4.2228,4.2269,4.2351,4.2472,4.2472,4.2472,4.2472,4.2472,4.2472,4.2472,4.2472,4.2472,4.2472,4.2472,4.2472,4.2472,4.6055,4.6055,4.6055,4.6055,4.6105,4.6204,4.6235,4.6381,4.6477,4.6542,4.6637,4.6684,4.6684,4.6684,4.6063,4.4485,4.3793,4.303,4.209,4.2019,4.2019,4.2019,4.2145,4.2269,4.249,4.249,4.249,4.249,4.249,4.249,4.249,4.249,4.249,4.249,4.245,4.2351,4.221,4.2187,4.2103,4.2019,4.2019,4.2019,4.2019,4.2019,4.2019,4.2019,4.2019,4.2019,4.2019,4.2019,4.2019,4.2019,4.2019,4.2019,4.2019,4.2019,4.2019,4.2019,4.2019,4.2019,4.2037,4.2187,4.221,4.2187,4.2187,4.2103,4.1995,4.1934,4.1849,4.1805,4.1754,4.171,4.1648,4.1604,4.1498,4.1408,4.1318,4.1255,4.1209,4.1134,4.1152,4.1134,4.1088,4.1088,4.1088,4.1088,4.1088,4.1088,4.1088,4.1088,4.1088,4.1152,4.1152,4.118,4.1209,4.1498,4.1692,4.1692,4.1797,4.1884,4.1909,4.1995,4.2097,4.2181,4.2181,4.2181,4.2181,4.2181,4.2181,4.2181,4.2181,4.2181,4.2181,4.2181,4.2181,4.2181,4.5718,4.5718,4.5718,4.5718,4.5718,4.577,4.5887,4.5938,4.5988,4.6137,4.6137,4.6137,4.6137,4.6137,4.5523,4.398,4.2437,4.156,4.156,4.156,4.156,4.156,4.1515,4.1736,4.2163,4.2205,4.2246,4.2246,4.2246,4.2246,4.2246,4.2246,4.2246,4.2246,4.2103,4.1977,4.1831,4.178,4.1692,4.1542,4.1542,4.1542,4.1542,4.1542,4.1542,4.1542,4.1542,4.1542,4.1542,4.1542,4.1542,4.1542,4.1542,4.1542,4.1542,4.1542,4.1542,4.1542,4.1542,4.1542,4.1542,4.1542,4.1675,4.1805,4.178,4.1648,4.1542,4.1542,4.1471,4.138,4.138,4.1272,4.1209,4.1209,4.1209,4.1209,4.1163,4.1163,4.1134,4.1093,4.1093,4.1047,4.0935,4.0888,4.0888,4.0888,4.0888,4.0888,4.0888,4.0888,4.0935,4.1093,4.1093,4.1123,4.1163,4.1163,4.1163,4.1192,4.1453,4.1542,4.156,4.1815,4.1919,4.1919,4.1919,4.1919,4.1919,4.1919,4.1919,4.1919,4.1919,4.1919,4.1919,4.1919,4.1955,4.2025,4.5194,4.5194,4.5194,4.5194,4.5247,4.5336,4.5389,4.5529,4.5684,4.5735,4.5803,4.5871,4.5871,4.5871,4.5244,4.3694,4.219,4.1272,4.1233,4.1233,4.1169,4.1059,4.1059,4.1105,4.1198,4.1542,4.1736,4.1736,4.1736,4.1736,4.1736,4.1736,4.1736,4.1736,4.1736,4.1631,4.1498,4.1515,4.1408,4.13,4.13,4.13,4.13,4.13,4.13,4.13,4.13,4.13,4.13,4.13,4.13,4.13,4.13,4.13,4.13,4.13,4.13,4.13,4.13,4.13,4.13,4.13,4.118,4.1198,4.1426,4.1363,4.13,4.13,4.1255,4.1255,4.1255,4.1209,4.1163,4.1123,4.1123,4.1076,4.0965,4.0965,4.0965,4.0935,4.0935,4.0935,4.0888,4.0888,4.0888,4.0888,4.0888,4.0888,4.0888,4.0888,4.0935,4.0935,4.0935,4.0935,4.0965,4.0965,4.1041,4.1209,4.1255,4.13,4.13,4.1363,4.1363,4.1363,4.1363,4.1363,4.1363,4.1363,4.1363,4.1363,4.1363,4.1363,4.1363,4.1363,4.1747,4.2376,4.4978,4.4978,4.4978,4.4978,4.5086,4.5069,4.5069,4.523,4.5336,4.5336,4.5389,4.5406,4.5406,4.5406,4.4785,4.3251,4.2061,4.125,4.0858,4.0793,4.0776,4.0728,4.0728,4.0728,4.0728,4.0948,4.1134,4.129,4.129,4.129,4.129,4.129,4.129,4.129,4.129,4.1198,4.1059,4.1059,4.0995,4.0884,4.0884,4.0884,4.0884,4.0884,4.0884,4.0884,4.0884,4.0884,4.0884,4.0884,4.0884,4.0884,4.0884,4.0884,4.0884,4.0884,4.0884,4.0884,4.0884,4.0884,4.0884,4.0884,4.0806,4.0776,4.1105,4.0995,4.0884,4.0884,4.0884,4.0884,4.0884,4.0884,4.0853,4.084,4.0858,4.0888,4.0793,4.0888,4.0888,4.0888,4.0888,4.0888,4.0888,4.0888,4.0888,4.0888,4.0888,4.0888,4.0888,4.0888,4.0888,4.0888,4.0888,4.1043,4.1405,4.1405,4.1691,4.2133,4.1452,4.1152,4.1152,4.118,4.1209,4.1209,4.1209,4.1209,4.1209,4.1209,4.1435,4.1766,4.1766,4.1992,4.2305,4.2305,4.2566,4.3036,4.494,4.494,4.494,4.494,4.494,4.494,4.494,4.4923,4.4995,4.4995,4.4978,4.4978,4.4978,4.4875,4.4226,4.2826,4.204,4.1288,4.0536,4.0485,4.0485,4.0419,4.0419,4.0419,4.0419,4.0419,4.0583,4.0823,4.0823,4.0823,4.0823,4.0823,4.0823,4.0823,4.0823,4.0776,4.0648,4.0648,4.0583,4.0485,4.0485,4.0485,4.0485,4.0485,4.0485,4.0485,4.0485,4.0485,4.0485,4.0485,4.0485,4.0485,4.0485,4.0485,4.0485,4.0485,4.0485,4.0485,4.0485,4.0485,4.0485,4.0485,4.0468,4.0534,4.0745,4.0631,4.0485,4.0485,4.0485,4.0485,4.0485,4.0485,4.0485,4.0485,4.0583,4.0648,4.0648,4.0745,4.0823,4.0823,4.0823,4.0888,4.0888,4.0888,4.0888,4.0888,4.0888,4.0888,4.0888,4.0888,4.094,4.106,4.1078,4.144,4.2181,4.2199,4.2526,4.3214,4.2002,4.1445,4.1445,4.1534,4.1563,4.1563,4.1563,4.1563,4.1563,4.1563,4.1945,4.2554,4.2554,4.2936,4.3444,4.3565,4.3617,4.3721,4.4626,4.4626,4.4626,4.4626,4.4626,4.4626,4.4626,4.472,4.4831,4.4831,4.494,4.4978,4.4978,4.4414,4.368,4.2791,4.204,4.1255,4.0389,4.0355,4.0288,4.0188,4.0121,4.0121,4.0121,4.0121,4.0288,4.0534,4.0534,4.0534,4.0534,4.0534,4.0534,4.0534,4.0534,4.0534,4.0534,4.0534,4.0534,4.0485,4.0485,4.0485,4.0485,4.0485,4.0485,4.0485,4.0485,4.0485,4.0485,4.0485,4.0485,4.0485,4.0485,4.0485,4.0485,4.0485,4.0485,4.0485,4.0485,4.0485,4.0485,4.0485,4.0436,4.0355,4.0355,4.0436,4.0485,4.0485,4.0485,4.0485,4.0485,4.0485,4.0485,4.0485,4.0534,4.0534,4.0534,4.0534,4.0534,4.0534,4.0648,4.0745,4.0745,4.084,4.0888,4.0888,4.0888,4.0888,4.0888,4.0888,4.1181,4.1819,4.1836,4.2216,4.3059,4.3059,4.3111,4.3214,4.3007,4.2921,4.2921,4.2904,4.2953,4.2953,4.2953,4.2953,4.2953,4.2953,4.2973,4.3108,4.3108,4.3178,4.335,4.3939,4.4164,4.4285,4.4587,4.4587,4.4587,4.4587,4.4587,4.4587,4.4587,4.4626,4.4682,4.4682,4.4737,4.4793,4.4793,4.4504,4.3994,4.3158,4.2394,4.1647,4.0866,4.0425,4.0188,4.007,4.007,4.007,4.007,4.007,4.0188,4.0288,4.0288,4.0288,4.0288,4.0288,4.0288,4.0288,4.0288,4.0288,4.0288,4.0288,4.0288,4.0288,4.0288,4.0288,4.0288,4.0288,4.0288,4.0288,4.0288,4.0288,4.0288,4.0288,4.0288,4.0288,4.0288,4.0288,4.0288,4.0288,4.0288,4.0288,4.0288,4.0288,4.0288,4.0288,4.0238,4.0188,4.0188,4.0238,4.0288,4.0288,4.0288,4.0288,4.0288,4.0288,4.0288,4.0288,4.0337,4.0387,4.0387,4.0436,4.0485,4.0485,4.0534,4.0583,4.0583,4.0631,4.068,4.068,4.1074,4.1266,4.1266,4.166,4.2037,4.2363,4.2363,4.2791,4.3683,4.3683,4.3958,4.444,4.444,4.3992,4.3214,4.3214,4.3214,4.3214,4.3214,4.3214,4.3214,4.3214,4.3456,4.3785,4.3785,4.4061,4.4475,4.4803,4.4906,4.4958]},{"header":{"parameterUnit":"m.s-1","parameterCategory":1,"la1":30.6,"la2":28.766,"lo1":-90.7593,"lo2":-88.6598,"dy":0.0162,"dx":0.0183,"nx":116,"ny":114,"refTime":"2023-08-19T18:00:00:Z","depth":0,"parameterNumber":3,"parameterNumberName":"V-component_of_WINDS"},"data":[0.0,0.0,0.0,0.0,0.0,0.0,0.0,0.0,0.0,0.0,0.0,0.0,0.0,0.0,0.0,0.0,0.0,0.0,0.0,0.0,0.0,0.0,0.0,0.0,0.0,0.0,0.0,0.0,0.0,0.0,0.0,0.0,0.0,0.0,0.0,0.0,0.0,0.0,0.0,0.0,0.0,0.0,0.0,0.0,0.0,0.0,0.0,0.0,0.0,0.0,0.0,0.0,0.0,0.0,0.0,0.0,0.0,0.0,0.0,0.0,0.0,0.0,0.0,0.0,0.0,0.0,0.0,0.0,0.0,0.0,0.0,0.0,0.0,0.0,0.0,0.0,0.0,0.0,0.0,0.0,0.0,0.0,0.0,0.0,0.0,0.0,0.0,0.0,0.0,0.0,0.0,0.0,0.0,0.0,0.0,0.0,0.0,0.0,0.0,0.0,0.0,0.0,0.0,0.0,0.0,0.0,0.0,0.0,0.0,0.0,0.0,0.0,0.0,0.0,0.0,0.0,0.0,0.0,0.0,0.0,0.0,0.0,0.0,0.0,0.0,0.0,0.0,0.0,0.0,0.0,0.0,0.0,0.0,0.0,0.0,0.0,0.0,0.0,0.0,0.0,0.0,0.0,0.0,0.0,0.0,0.0,0.0,0.0,0.0,0.0,0.0,0.0,0.0,0.0,0.0,0.0,0.0,0.0,0.0,0.0,0.0,0.0,0.0,0.0,0.0,0.0,0.0,0.0,0.0,0.0,0.0,0.0,0.0,0.0,0.0,0.0,0.0,0.0,0.0,0.0,0.0,0.0,0.0,0.0,0.0,0.0,0.0,0.0,0.0,0.0,0.0,0.0,0.0,0.0,0.0,0.0,0.0,0.0,0.0,0.0,0.0,0.0,0.0,0.0,0.0,0.0,0.0,0.0,0.0,0.0,0.0,0.0,0.0,0.0,0.0,0.0,0.0,0.0,0.0,0.0,0.0,0.0,0.0,0.0,0.0,0.0,0.0,0.0,0.0,0.0,0.0,0.0,0.0,0.0,0.0,0.0,0.0,0.0,0.0,0.0,0.0,0.0,0.0,0.0,0.0,0.0,0.0,0.0,0.0,0.0,0.0,0.0,0.0,0.0,0.0,0.0,0.0,0.0,0.0,0.0,0.0,0.0,0.0,0.0,0.0,0.0,0.0,0.0,0.0,0.0,0.0,0.0,0.0,0.0,0.0,0.0,0.0,0.0,0.0,0.0,0.0,0.0,0.0,0.0,0.0,0.0,0.0,0.0,0.0,0.0,0.0,0.0,0.0,0.0,0.0,0.0,0.0,0.0,0.0,0.0,0.0,0.0,0.0,0.0,0.0,0.0,0.0,0.0,0.0,0.0,0.0,0.0,0.0,0.0,0.0,0.0,0.0,0.0,0.0,0.0,0.0,0.0,0.0,0.0,0.0,0.0,0.0,0.0,0.0,0.0,0.0,0.0,0.0,0.0,0.0,0.0,0.0,0.0,0.0,0.0,0.0,0.0,0.0,0.0,0.0,0.0,0.0,0.0,0.0,0.0,0.0,0.0,0.0,0.0,0.0,0.0,0.0,0.0,0.0,0.0,0.0,0.0,0.0,0.0,0.0,0.0,0.0,0.0,0.0,0.0,0.0,0.0,0.0,0.0,0.0,0.0,0.0,0.0,0.0,0.0,0.0,0.0,0.0,0.0,0.0,0.0,0.0,0.0,0.0,0.0,0.0,0.0,0.0,0.0,0.0,0.0,0.0,0.0,0.0,0.0,0.0,0.0,0.0,0.0,0.0,0.0,0.0,0.0,0.0,0.0,0.0,0.0,0.0,0.0,0.0,0.0,0.0,0.0,0.0,0.0,0.0,0.0,0.0,0.0,0.0,0.0,0.0,0.0,0.0,0.0,0.0,0.0,0.0,0.0,0.0,0.0,0.0,0.0,0.0,0.0,0.0,0.0,0.0,0.0,0.0,0.0,0.0,0.0,0.0,0.0,0.0,0.0,0.0,0.0,0.0,0.0,0.0,0.0,0.0,0.0,0.0,0.0,0.0,0.0,0.0,0.0,0.0,0.0,0.0,0.0,0.0,0.0,0.0,0.0,0.0,0.0,0.0,0.0,0.0,0.0,0.0,0.0,0.0,0.0,0.0,0.0,0.0,0.0,0.0,0.0,0.0,0.0,0.0,0.0,0.0,0.0,0.0,0.0,0.0,0.0,0.0,0.0,0.0,0.0,0.0,0.0,0.0,0.0,0.0,0.0,0.0,0.0,0.0,0.0,0.0,0.0,0.0,0.0,0.0,0.0,0.0,0.0,0.0,0.0,0.0,0.0,0.0,0.0,0.0,0.0,0.0,0.0,0.0,0.0,0.0,0.0,0.0,0.0,0.0,0.0,0.0,0.0,0.0,0.0,0.0,0.0,0.0,0.0,0.0,0.0,0.0,0.0,0.0,0.0,0.0,0.0,0.0,0.0,0.0,0.0,0.0,0.0,0.0,0.0,0.0,0.0,0.0,0.0,0.0,0.0,0.0,0.0,0.0,0.0,0.0,0.0,0.0,0.0,0.0,0.0,0.0,0.0,0.0,0.0,0.0,0.0,0.0,0.0,0.0,0.0,0.0,0.0,0.0,0.0,0.0,0.0,0.0,0.0,0.0,0.0,0.0,0.0,0.0,0.0,0.0,0.0,0.0,0.0,0.0,0.0,0.0,0.0,0.0,0.0,0.0,0.0,0.0,0.0,0.0,0.0,0.0,0.0,0.0,0.0,0.0,0.0,0.0,0.0,0.0,0.0,0.0,0.0,0.0,0.0,0.0,0.0,0.0,0.0,0.0,0.0,0.0,0.0,0.0,0.0,0.0,0.0,0.0,0.0,0.0,0.0,0.0,0.0,0.0,0.0,0.0,0.0,0.0,0.0,0.0,0.0,0.0,0.0,0.0,0.0,0.0,0.0,0.0,0.0,0.0,0.0,0.0,0.0,0.0,0.0,0.0,0.0,0.0,0.0,0.0,0.0,0.0,0.0,0.0,0.0,0.0,0.0,0.0,0.0,0.0,0.0,0.0,0.0,0.0,0.0,0.0,0.0,0.0,0.0,0.0,0.0,0.0,0.0,0.0,0.0,0.0,0.0,0.0,0.0,0.0,0.0,0.0,0.0,0.0,0.0,0.0,0.0,0.0,0.0,0.0,0.0,0.0,0.0,0.0,0.0,0.0,0.0,0.0,0.0,0.0,0.0,0.0,0.0,0.0,0.0,0.0,0.0,0.0,0.0,0.0,0.0,0.0,0.0,0.0,0.0,0.0,0.0,0.0,0.0,0.0,0.0,0.0,0.0,0.0,0.0,0.0,0.0,0.0,0.0,0.0,0.0,0.0,0.0,0.0,0.0,0.0,0.0,0.0,0.0,0.0,0.0,0.0,0.0,0.0,0.0,0.0,0.0,0.0,0.0,0.0,0.0,0.0,0.0,0.0,0.0,0.0,0.0,0.0,0.0,0.0,0.0,0.0,0.0,0.0,0.0,0.0,0.0,0.0,0.0,0.0,0.0,0.0,0.0,0.0,0.0,0.0,0.0,0.0,0.0,0.0,0.0,0.0,0.0,0.0,0.0,0.0,0.0,0.0,0.0,0.0,0.0,0.0,0.0,0.0,0.0,0.0,0.0,0.0,0.0,0.0,0.0,0.0,0.0,0.0,0.0,0.0,0.0,0.0,0.0,0.0,0.0,0.0,0.0,0.0,0.0,0.0,0.0,0.0,0.0,0.0,0.0,0.0,0.0,0.0,0.0,0.0,0.0,0.0,0.0,0.0,0.0,0.0,0.0,0.0,0.0,0.0,0.0,0.0,0.0,0.0,0.0,0.0,0.0,0.0,0.0,0.0,0.0,0.0,0.0,0.0,0.0,0.0,0.0,0.0,0.0,0.0,0.0,0.0,0.0,0.0,0.0,0.0,0.0,0.0,0.0,0.0,0.0,0.0,0.0,0.0,0.0,0.0,0.0,0.0,0.0,0.0,0.0,0.0,0.0,0.0,0.0,0.0,0.0,0.0,0.0,0.0,0.0,0.0,0.0,0.0,0.0,0.0,0.0,0.0,0.0,0.0,0.0,0.0,0.0,0.0,0.0,0.0,0.0,0.0,0.0,0.0,0.0,0.0,0.0,0.0,0.0,0.0,0.0,0.0,0.0,0.0,0.0,0.0,0.0,0.0,0.0,0.0,0.0,0.0,0.0,0.0,0.0,0.0,0.0,0.0,0.0,0.0,0.0,0.0,0.0,0.0,0.0,0.0,0.0,0.0,0.0,0.0,0.0,0.0,0.0,0.0,0.0,0.0,0.0,0.0,0.0,0.0,0.0,0.0,0.0,0.0,0.0,0.0,0.0,0.0,0.0,0.0,0.0,0.0,0.0,0.0,0.0,0.0,0.0,0.0,0.0,0.0,0.0,0.0,0.0,0.0,0.0,0.0,0.0,0.0,0.0,0.0,0.0,0.0,0.0,0.0,0.0,0.0,0.0,0.0,0.0,0.0,0.0,0.0,0.0,0.0,0.0,0.0,0.0,0.0,0.0,0.0,0.0,0.0,0.0,0.0,0.0,0.0,0.0,0.0,0.0,0.0,0.0,0.0,0.0,0.0,0.0,0.0,0.0,0.0,0.0,0.0,0.0,0.0,0.0,0.0,0.0,0.0,0.0,0.0,0.0,0.0,0.0,0.0,0.0,0.0,0.0,0.0,0.0,0.0,0.0,0.0,0.0,0.0,0.0,0.0,0.0,0.0,0.0,0.0,0.0,0.0,0.0,0.0,0.0,0.0,0.0,0.0,0.0,0.0,0.0,0.0,0.0,0.0,0.0,0.0,0.0,0.0,0.0,0.0,0.0,0.0,0.0,0.0,0.0,0.0,0.0,0.0,0.0,0.0,0.0,0.0,0.0,0.0,0.0,0.0,0.0,0.0,0.0,0.0,0.0,0.0,0.0,0.0,0.0,0.0,0.0,0.0,0.0,0.0,0.0,0.0,0.0,0.0,0.0,0.0,0.0,0.0,0.0,0.0,0.0,0.0,0.0,0.0,0.0,0.0,0.0,0.0,0.0,0.0,0.0,0.0,0.0,0.0,0.0,0.0,0.0,0.0,0.0,0.0,0.0,0.0,0.0,0.0,0.0,0.0,0.0,0.0,0.0,0.0,0.0,0.0,0.0,0.0,0.0,0.0,0.0,0.0,0.0,0.0,0.0,0.0,0.0,0.0,0.0,0.0,0.0,0.0,0.0,0.0,0.0,0.0,0.0,0.0,0.0,0.0,0.0,0.0,0.0,0.0,0.0,0.0,0.0,0.0,0.0,0.0,0.0,0.0,0.0,0.0,0.0,0.0,0.0,0.0,0.0,0.0,0.0,0.0,0.0,0.0,0.0,0.0,0.0,0.0,0.0,0.0,0.0,0.0,0.0,0.0,0.0,0.0,0.0,0.0,0.0,0.0,0.0,0.0,0.0,0.0,0.0,0.0,0.0,0.0,0.0,0.0,0.0,0.0,0.0,0.0,0.0,0.0,0.0,0.0,0.0,0.0,0.0,0.0,0.0,0.0,0.0,0.0,0.0,0.0,0.0,0.0,0.0,0.0,0.0,0.0,0.0,0.0,0.0,0.0,0.0,0.0,0.0,0.0,0.0,0.0,0.0,0.0,0.0,0.0,0.0,0.0,0.0,0.0,0.0,0.0,0.0,0.0,0.0,0.0,0.0,0.0,0.0,0.0,0.0,0.0,0.0,0.0,0.0,0.0,0.0,0.0,0.0,0.0,0.0,0.0,0.0,0.0,0.0,0.0,0.0,0.0,0.0,0.0,0.0,0.0,0.0,0.0,0.0,0.0,0.0,0.0,0.0,0.0,0.0,0.0,0.0,0.0,0.0,0.0,0.0,0.0,0.0,0.0,0.0,0.0,0.0,0.0,0.0,0.0,0.0,0.0,0.0,0.0,0.0,0.0,0.0,0.0,0.0,0.0,0.0,0.0,0.0,0.0,0.0,0.0,0.0,0.0,0.0,0.0,0.0,0.0,0.0,0.0,0.0,0.0,0.0,0.0,0.0,0.0,0.0,0.0,0.0,0.0,0.0,0.0,0.0,-0.4233,0.0,0.0,0.0,0.0,0.0,0.0,0.0,0.0,0.0,0.0,0.0,0.0,0.0,0.0,0.0,0.0,0.0,0.0,0.0,0.0,0.0,0.0,0.0,0.0,0.0,0.0,0.0,0.0,0.0,0.0,0.0,0.0,0.0,0.0,0.0,0.0,0.0,0.0,0.0,-0.8432,-0.8618,-0.8685,-0.8905,-0.903,-0.8996,0.0,0.0,0.0,0.0,0.0,0.0,0.0,0.0,0.0,0.0,0.0,0.0,0.0,0.0,0.0,0.0,0.0,0.0,0.0,0.0,0.0,0.0,0.0,0.0,0.0,0.0,0.0,0.0,0.0,0.0,0.0,0.0,0.0,0.0,0.0,0.0,0.0,0.0,0.0,0.0,0.0,0.0,0.0,0.0,0.0,0.0,0.0,0.0,0.0,0.0,0.0,0.0,0.0,0.0,0.0,0.0,0.0,0.0,0.0,0.0,0.0,0.0,0.0,0.0,0.0,0.0,0.0,0.0,0.0,0.0,0.0,-0.43,0.0,0.0,0.0,0.0,0.0,0.0,0.0,0.0,0.0,0.0,0.0,0.0,0.0,0.0,0.0,0.0,0.0,0.0,0.0,0.0,0.0,0.0,0.0,0.0,-0.7507,-0.7636,-0.784,-0.7917,0.0,0.0,0.0,0.0,0.0,0.0,0.0,-0.7987,-0.8002,-0.7977,-0.8216,-0.8481,-0.8703,-0.8703,-0.8784,-0.8946,-0.878,0.0,0.0,0.0,0.0,0.0,0.0,0.0,0.0,0.0,0.0,0.0,0.0,0.0,0.0,0.0,0.0,0.0,0.0,0.0,0.0,0.0,0.0,0.0,0.0,0.0,0.0,0.0,0.0,0.0,0.0,0.0,0.0,0.0,0.0,0.0,0.0,0.0,0.0,0.0,0.0,0.0,0.0,0.0,0.0,0.0,0.0,0.0,0.0,0.0,0.0,0.0,0.0,0.0,0.0,0.0,0.0,0.0,0.0,0.0,0.0,0.0,0.0,0.0,-0.509,-0.4945,-0.4795,-0.4798,-0.4726,-0.4715,-0.4447,-0.4363,-0.436,-0.4338,0.0,0.0,0.0,0.0,0.0,0.0,0.0,0.0,0.0,0.0,0.0,0.0,0.0,0.0,0.0,0.0,0.0,0.0,0.0,0.0,0.0,-0.7896,-0.7911,-0.7941,-0.7941,-0.8021,0.0,0.0,0.0,0.0,0.0,0.0,-0.7987,-0.7987,-0.8012,-0.8,-0.8293,-0.8477,-0.8703,-0.8703,-0.8703,-0.8703,-0.8703,-0.8685,-0.8661,0.0,0.0,0.0,0.0,0.0,0.0,0.0,0.0,0.0,0.0,0.0,0.0,0.0,0.0,0.0,0.0,0.0,0.0,0.0,0.0,0.0,0.0,0.0,0.0,0.0,0.0,0.0,0.0,0.0,0.0,0.0,0.0,0.0,0.0,0.0,0.0,0.0,0.0,0.0,0.0,0.0,-0.7651,-0.7466,0.0,0.0,0.0,0.0,0.0,0.0,0.0,0.0,0.0,0.0,0.0,0.0,0.0,-0.62,-0.5772,-0.5581,-0.5522,-0.545,-0.5303,-0.5228,-0.5231,-0.5017,-0.4948,-0.4945,-0.4764,0.0,-0.4671,-0.449,0.0,0.0,0.0,0.0,0.0,0.0,0.0,0.0,0.0,0.0,0.0,0.0,0.0,0.0,0.0,0.0,0.0,0.0,0.0,0.0,0.0,-0.7722,-0.7722,-0.7722,-0.7792,-0.7792,-0.7722,-0.7792,0.0,0.0,0.0,-0.7722,-0.7722,-0.7722,-0.7817,-0.8082,-0.8255,-0.8505,-0.8703,-0.8703,-0.8703,-0.8703,-0.8703,-0.8703,-0.8703,-0.8703,0.0,0.0,0.0,0.0,0.0,0.0,0.0,0.0,0.0,0.0,0.0,0.0,0.0,0.0,0.0,0.0,0.0,0.0,0.0,0.0,0.0,0.0,0.0,0.0,0.0,0.0,0.0,0.0,0.0,0.0,0.0,0.0,0.0,0.0,0.0,0.0,0.0,0.0,0.0,-0.7799,-0.7702,-0.7548,-0.7565,-0.7723,0.0,0.0,0.0,0.0,0.0,0.0,0.0,0.0,0.0,-0.6599,-0.6615,-0.6514,-0.6072,-0.6088,-0.5982,-0.5757,-0.5682,-0.5604,-0.5457,-0.5385,-0.5312,-0.5312,-0.5234,-0.5234,-0.5142,-0.4795,-0.4643,-0.464,0.0,0.0,0.0,0.0,-0.4429,-0.4499,0.0,0.0,0.0,0.0,0.0,0.0,0.0,0.0,0.0,0.0,0.0,0.0,-0.7521,-0.7521,-0.7521,-0.7521,-0.7591,-0.7596,-0.7521,-0.7591,0.0,0.0,-0.7521,-0.7521,-0.7521,-0.7626,-0.7768,-0.808,-0.8349,-0.8552,-0.8703,-0.8703,-0.8703,-0.8703,-0.8703,-0.8703,-0.8703,-0.8703,-0.8932,-0.9322,0.0,0.0,0.0,0.0,0.0,0.0,0.0,0.0,0.0,0.0,0.0,0.0,0.0,0.0,0.0,0.0,0.0,0.0,0.0,0.0,0.0,0.0,0.0,0.0,0.0,0.0,0.0,0.0,0.0,0.0,0.0,0.0,0.0,0.0,0.0,0.0,0.0,-0.7862,-0.7723,-0.7561,-0.7642,-0.7723,0.0,0.0,0.0,0.0,0.0,0.0,-0.7518,-0.7364,-0.7158,-0.681,-0.6923,-0.6832,-0.6457,-0.6576,-0.6483,-0.617,-0.617,-0.6096,-0.5944,-0.5867,-0.587,-0.587,-0.5715,-0.5712,-0.5616,-0.5084,-0.4919,-0.4913,-0.4882,-0.4867,-0.4867,-0.472,-0.4723,-0.4867,0.0,0.0,0.0,0.0,0.0,0.0,0.0,0.0,0.0,0.0,0.0,-0.7521,-0.7521,-0.7521,-0.7521,-0.7521,-0.7521,-0.7521,-0.7521,-0.7521,-0.7521,-0.7521,-0.7521,-0.7521,-0.7521,-0.7844,-0.8061,-0.808,-0.8486,-0.8689,-0.8703,-0.8703,-0.8703,-0.8703,-0.8703,-0.8703,-0.8703,-0.8703,-0.8932,-0.9322,-0.9322,0.0,0.0,0.0,0.0,0.0,0.0,0.0,0.0,0.0,0.0,0.0,0.0,0.0,0.0,0.0,0.0,0.0,0.0,0.0,0.0,0.0,0.0,0.0,0.0,0.0,0.0,0.0,0.0,0.0,0.0,0.0,0.0,0.0,0.0,0.0,0.0,0.0,0.0,-0.7561,-0.7484,0.0,0.0,0.0,0.0,-0.7561,-0.7484,-0.748,-0.7472,-0.7472,-0.7391,-0.7157,-0.7165,-0.7088,-0.685,-0.6857,-0.6865,-0.6865,-0.6865,-0.6865,-0.6865,-0.6637,-0.6563,-0.6563,-0.6096,-0.5864,-0.5851,-0.5557,-0.5423,-0.5411,-0.5352,-0.5303,-0.5228,-0.5156,-0.5228,-0.5303,0.0,0.0,0.0,0.0,0.0,0.0,0.0,0.0,-0.7521,-0.7521,-0.7521,-0.7521,-0.7521,-0.7521,-0.7521,-0.7521,-0.7521,-0.7521,-0.7521,-0.7521,-0.7521,-0.7521,-0.7521,-0.7588,-0.7659,-0.7938,-0.8217,-0.85,-0.8796,-0.8941,-0.9089,-0.9089,-0.9089,-0.9089,-0.9089,-0.9089,-0.9089,-0.8941,-0.9094,-0.9473,-0.9473,-0.962,0.0,0.0,0.0,0.0,0.0,0.0,0.0,0.0,0.0,0.0,0.0,0.0,0.0,0.0,0.0,0.0,0.0,0.0,0.0,0.0,0.0,0.0,0.0,0.0,0.0,0.0,0.0,0.0,0.0,0.0,0.0,0.0,0.0,0.0,0.0,0.0,0.0,-0.7484,-0.7484,0.0,-0.7484,-0.759,-0.7663,-0.7663,-0.7928,-0.8078,-0.8078,-0.8235,-0.8235,-0.8155,-0.8155,-0.807,-0.7901,-0.7901,-0.7821,-0.7664,-0.7664,-0.7605,-0.7501,-0.7261,-0.7125,-0.6949,-0.6633,-0.6556,-0.6553,-0.6419,-0.6096,-0.5561,-0.5509,-0.549,-0.549,-0.549,-0.549,-0.549,0.0,0.0,0.0,0.0,0.0,0.0,0.0,0.0,-0.7521,-0.7521,-0.7521,-0.755,-0.7626,-0.7631,-0.7631,-0.7631,-0.7631,-0.7602,-0.7526,-0.7521,-0.7521,-0.7521,-0.7593,-0.7664,-0.7877,-0.815,-0.8399,-0.869,-0.899,-0.9175,-0.9322,-0.9322,-0.9362,-0.9433,-0.9433,-0.9478,-0.9627,-0.9471,-0.954,-0.962,-0.962,-0.9695,-0.9922,0.0,0.0,0.0,0.0,0.0,0.0,0.0,0.0,0.0,0.0,0.0,0.0,0.0,0.0,0.0,0.0,0.0,0.0,0.0,0.0,0.0,0.0,0.0,0.0,0.0,0.0,0.0,0.0,0.0,0.0,0.0,0.0,0.0,0.0,0.0,-0.7662,-0.7798,-0.7729,-0.7754,-0.7894,-0.8016,-0.8091,-0.8091,-0.8367,-0.8522,-0.8522,-0.86,-0.8682,-0.8682,-0.8682,-0.8595,-0.8509,-0.8509,-0.8427,-0.8267,-0.8267,-0.8204,-0.8091,-0.8002,-0.7856,-0.7671,-0.7505,-0.7423,-0.7419,-0.7285,-0.6872,-0.6325,-0.6116,-0.6022,-0.6022,-0.6022,-0.6022,-0.6022,0.0,0.0,0.0,0.0,0.0,0.0,0.0,-0.7521,-0.7521,-0.7521,-0.7526,-0.7612,-0.7758,-0.7787,-0.7792,-0.7792,-0.7782,-0.7692,-0.755,-0.7531,-0.7536,-0.7545,-0.7678,-0.7886,-0.8085,-0.851,-0.8695,-0.87,-0.914,-0.9322,-0.9322,-0.9332,-0.9448,-0.9729,-0.9734,-0.9941,-1.0314,-1.0314,-1.0058,-0.9646,-0.9635,-0.97,-0.9922,0.0,0.0,0.0,0.0,0.0,0.0,0.0,0.0,0.0,0.0,0.0,0.0,0.0,0.0,0.0,0.0,0.0,0.0,0.0,0.0,0.0,0.0,0.0,0.0,0.0,0.0,0.0,0.0,0.0,0.0,0.0,0.0,0.0,-0.8412,-0.8034,-0.7953,-0.837,-0.8237,-0.8311,-0.8664,-0.8686,-0.869,-0.869,-0.8695,-0.8699,-0.8699,-0.8699,-0.8781,-0.8781,-0.8781,-0.8781,-0.8781,-0.8781,-0.8781,-0.8781,-0.8781,-0.8695,-0.869,-0.869,-0.8686,-0.8682,-0.8509,-0.8423,-0.8405,-0.7998,-0.7848,-0.7748,-0.7165,-0.6942,-0.6942,-0.6942,-0.6942,-0.6942,0.0,0.0,0.0,0.0,0.0,0.0,0.0,-0.7521,-0.7521,-0.7521,-0.7593,-0.7711,-0.7773,-0.791,-0.7999,-0.7999,-0.7867,-0.7754,-0.7697,-0.7692,-0.7754,-0.7905,-0.7966,-0.8099,-0.8307,-0.8588,-0.8842,-0.9155,-0.9367,-0.962,-0.9776,-0.9956,-1.0073,-1.0137,-1.0306,-1.0493,-1.08,-1.08,-1.0803,-1.0818,-1.0339,-1.0007,-0.9922,0.0,0.0,0.0,0.0,0.0,0.0,0.0,0.0,0.0,0.0,0.0,0.0,0.0,0.0,0.0,0.0,0.0,0.0,0.0,0.0,0.0,0.0,0.0,0.0,0.0,0.0,0.0,0.0,0.0,0.0,0.0,-0.8758,-0.8783,-0.8631,-0.8387,-0.8299,-0.8576,-0.8603,-0.8543,-0.8677,-0.8805,-0.8884,-0.8884,-0.9186,-0.9352,-0.9352,-0.9524,-0.961,-0.961,-0.961,-0.961,-0.961,-0.961,-0.961,-0.961,-0.961,-0.9535,-0.9308,-0.9228,-0.9068,-0.8923,-0.8677,-0.8595,-0.8591,-0.8461,-0.844,-0.8405,-0.7606,-0.7326,-0.7326,-0.7326,-0.7326,-0.7326,0.0,0.0,0.0,0.0,0.0,0.0,0.0,-0.7521,-0.7555,-0.765,-0.7702,-0.7848,-0.8023,-0.8146,-0.8212,-0.8212,-0.8108,-0.7999,-0.7914,-0.7905,-0.7995,-0.8207,-0.8212,-0.8311,-0.8524,-0.8827,-0.904,-0.9322,-0.962,-0.9824,-1.0083,-1.0223,-1.0396,-1.0589,-1.08,-1.1002,-1.1272,-1.1515,-1.1611,-1.1589,-1.1284,-1.0852,-1.0291,-1.0187,-1.0067,-0.9992,-0.9992,-0.9771,-0.9397,-0.9397,0.0,0.0,0.0,0.0,0.0,0.0,0.0,0.0,0.0,0.0,0.0,0.0,0.0,0.0,0.0,0.0,0.0,0.0,0.0,0.0,0.0,0.0,0.0,0.0,-0.9011,-0.91,-0.9113,-0.8806,-0.8743,-0.9027,-0.8971,-0.9002,-0.9251,-0.9361,-0.9424,-0.9424,-0.962,-0.9777,-0.9777,-0.9951,-1.0038,-1.0038,-1.0038,-1.0038,-1.0038,-1.0038,-1.0038,-1.0038,-1.0038,-0.9889,-0.9771,-0.9605,-0.954,0.0,-0.9256,-0.9256,-0.9251,-0.9086,-0.905,0.0,0.0,0.0,0.0,0.0,-0.7714,-0.7714,0.0,0.0,0.0,0.0,0.0,0.0,0.0,-0.7521,-0.7602,-0.7754,-0.7801,-0.7966,-0.8359,-0.842,-0.8439,-0.8439,-0.8415,-0.8321,-0.8127,-0.8118,-0.8212,-0.8429,-0.8439,-0.8519,-0.8699,-0.9089,-0.9322,-0.9322,-0.9721,-1.0078,-1.0293,-1.0347,-1.0589,-1.1066,-1.126,-1.1483,-1.178,-1.2283,-1.2318,-1.2105,-1.233,-1.1843,-1.0884,-1.065,-1.0466,-1.0218,-1.0218,-0.9992,-0.962,-0.962,0.0,0.0,0.0,0.0,0.0,0.0,0.0,0.0,0.0,0.0,0.0,0.0,0.0,0.0,0.0,0.0,0.0,0.0,0.0,0.0,0.0,0.0,0.0,0.0,-0.9228,-0.9426,-0.9536,-0.9336,-0.922,-0.9573,-0.9517,-0.9586,-0.9937,-1.0038,-1.0038,-1.0038,-1.0038,-1.0038,-1.0038,0.0,0.0,0.0,0.0,-1.0038,-1.0038,-1.0038,-1.0038,-1.0038,-1.0038,-1.0038,-1.0038,-1.0038,-1.0038,-1.0038,-1.0038,-1.0038,-1.0024,-0.9757,-0.9682,-0.9573,-0.9013,-0.8653,-0.8475,-0.8307,-0.8245,-0.8245,0.0,0.0,0.0,0.0,0.0,0.0,0.0,-0.7521,-0.7602,-0.7754,-0.7924,-0.8118,-0.8373,-0.8548,-0.8642,-0.8642,-0.8496,-0.8387,-0.8344,-0.834,-0.8429,-0.8633,-0.8642,-0.8661,-0.8703,-0.9089,-0.9322,-0.9322,-0.9895,-1.0245,-1.0304,-1.0676,-1.0979,-1.1238,-1.1533,-1.1901,-1.2283,-1.2534,-1.2766,-1.2868,-1.2908,-1.224,-1.12,-1.1147,-1.0848,-1.0443,-1.0443,-1.0143,-0.9846,-0.9846,-0.962,-0.9322,-0.9322,-0.9367,0.0,0.0,0.0,0.0,0.0,0.0,0.0,0.0,0.0,0.0,0.0,0.0,0.0,0.0,0.0,0.0,0.0,0.0,0.0,-0.9237,-0.9445,-0.9517,-0.9555,-0.9752,-0.9847,-0.9889,-0.9894,-0.9908,-0.9946,-1.0038,-1.0038,-1.0038,-1.0038,-1.0038,-1.0038,-1.0038,-1.0038,-1.0038,-1.0038,-1.0038,-1.0038,-1.0038,-1.0038,-1.0038,0.0,0.0,-1.0038,-1.0038,-1.0038,-1.0038,-1.0038,-1.0038,-1.0038,-0.9908,-0.9894,-0.9856,-0.9391,-0.9136,-0.9099,-0.9057,-0.9043,-0.9043,0.0,0.0,0.0,0.0,0.0,0.0,0.0,-0.7521,-0.7602,-0.7754,-0.7957,-0.816,-0.8377,-0.8581,-0.8703,-0.8703,-0.8609,-0.8552,-0.8552,-0.8552,-0.8595,-0.8699,-0.8703,-0.8703,-0.8703,-0.9089,-0.9322,-0.9322,-0.9942,-1.0353,-1.0476,-1.0821,-1.1131,-1.1341,-1.1729,-1.1952,-1.2203,-1.2796,-1.3137,-1.33,-1.3503,-1.3022,-1.2288,-1.1858,-1.1514,-1.1141,-1.0935,-1.0588,-1.0368,-1.0218,-1.0067,-0.9922,-0.9922,-0.9997,-1.0067,0.0,0.0,0.0,0.0,0.0,0.0,0.0,0.0,0.0,0.0,0.0,0.0,0.0,0.0,-0.9612,-0.9642,0.0,-0.9692,-0.98,-0.9911,-0.9966,-0.9966,-0.9971,-1.0038,-1.0038,-1.0038,-1.0038,-1.0038,-1.0038,-1.0038,-1.0038,-1.0038,-1.0038,-1.0038,-1.0143,-1.0112,-1.0112,-1.0211,-1.0263,-1.0263,-1.0263,-1.0263,-1.0263,-1.0263,-1.0263,-1.0258,-1.0159,-1.0112,-1.0107,-0.9998,-1.0038,-1.0038,-1.0038,-1.0038,-1.0019,-0.9719,-0.9578,-0.9474,-0.9365,-0.9322,-0.9322,0.0,0.0,0.0,0.0,0.0,0.0,0.0,-0.7521,-0.7602,-0.7754,-0.7919,-0.8103,-0.8316,-0.8524,-0.8661,-0.8699,-0.8703,-0.8703,-0.8703,-0.8703,-0.8703,-0.8703,-0.8703,-0.8703,-0.8703,-0.9089,-0.9322,-0.9322,-0.9984,-1.0455,-1.0643,-1.0923,-1.116,-1.144,-1.178,-1.2043,-1.2123,-1.2973,-1.3392,-1.3483,-1.3828,-1.3741,-1.3261,-1.2667,-1.2196,-1.1864,-1.1433,-1.1111,-1.0887,-1.0738,-1.0588,-1.0594,-1.0594,-1.0588,-1.0594,-1.0663,-1.0663,0.0,0.0,0.0,0.0,0.0,0.0,0.0,0.0,-1.0218,-1.0279,-1.0184,-1.0178,-1.0248,-1.0126,-1.0196,-1.0327,-1.0373,-1.0353,-1.0381,-1.0381,-1.0212,-1.0125,-1.0038,-1.0038,-1.0038,-1.0038,-1.0038,-1.0057,-1.01,-1.01,-1.0119,-1.0069,-1.0239,-1.0334,-1.0334,-1.049,-1.0575,-1.0575,-1.0575,-1.0575,-1.0575,-1.0575,-1.0575,-1.057,-1.0405,-1.0334,-1.0319,-1.0149,-1.0162,-1.0162,-1.0162,-1.0162,-1.0069,-1.0027,-0.9913,-0.9743,-0.9526,-0.9445,-0.9445,0.0,0.0,0.0,0.0,0.0,0.0,0.0,0.0,-0.7602,-0.7754,-0.7801,-0.7891,-0.8094,-0.8307,-0.8505,-0.8685,-0.8703,-0.8703,-0.8703,-0.8703,-0.8703,-0.8703,-0.8703,-0.8703,-0.8703,-0.9089,-0.9322,-0.9322,-1.0137,-1.0611,-1.0643,-1.1101,-1.1413,-1.1699,-1.1871,-1.2118,-1.2363,-1.2881,-1.3222,-1.3392,-1.3652,-1.3651,-1.3526,-1.3207,-1.2687,-1.212,-1.174,-1.1484,-1.1335,-1.1335,-1.1037,-1.0812,-1.0962,-1.0887,-1.0812,-1.1186,-1.1335,-1.126,-1.1111,-1.0842,-1.0612,-1.0828,-1.0718,-1.0557,0.0,-1.0579,-1.06,-1.0514,-1.0374,-1.0376,-1.0486,-1.0381,-1.0378,-1.0661,-1.0626,-1.0641,-1.0641,-1.0641,-1.0554,-1.0294,-1.012,-1.0038,-1.0038,-1.0038,-1.0031,-1.0225,-1.0239,-1.0315,-1.0494,-1.0527,-1.0542,-1.0542,-1.056,-1.0575,-1.0575,-1.0575,-1.0575,-1.0575,-1.0575,-1.0575,-1.0575,-1.0551,-1.0542,-1.0537,-1.0513,-1.0504,-1.0504,-1.0504,-1.0504,-1.0485,-1.0305,-1.0225,-1.0178,-0.996,-0.988,-0.988,0.0,0.0,0.0,0.0,0.0,0.0,0.0,0.0,0.0,-0.7256,-0.7432,-0.7537,-0.7762,-0.8131,-0.8439,-0.8519,-0.8633,-0.8703,-0.8703,-0.8703,-0.8703,-0.8703,-0.8703,-0.8703,-0.8703,-0.9089,-0.9322,-0.9322,-1.0037,-1.0503,-1.0643,-1.0982,-1.1214,-1.144,-1.1699,-1.1957,-1.2203,-1.2711,-1.3052,-1.3209,-1.3387,-1.3417,-1.3424,-1.3041,-1.2866,-1.2636,-1.2032,-1.1855,0.0,-1.1632,-1.1484,-1.1335,-1.1409,-1.1409,-1.1335,-1.1558,-1.1558,-1.1596,-1.1538,-1.148,-1.1397,-1.118,-1.0961,-1.08,-1.0638,-1.074,-1.0837,-1.0837,-1.0867,-1.0916,-1.1011,-1.0942,-1.0888,-1.1068,-1.0911,-1.0824,-1.0824,-1.085,-1.0755,-1.049,-1.0508,-1.0447,-1.0238,-1.0244,-1.0353,-1.0442,-1.0447,-1.0485,-1.057,-1.0693,-1.0764,-1.0764,-1.0872,-1.0934,-1.0934,-1.0934,-1.0934,-1.0934,-1.0934,-1.0934,-1.0934,-1.0816,-1.0693,-1.0575,-1.0575,-1.0575,-1.0575,-1.0575,-1.0575,-1.0565,-1.048,-1.0447,-1.0409,-1.0162,-1.0038,-1.0038,0.0,0.0,0.0,0.0,0.0,0.0,0.0,0.0,0.0,0.0,-0.7065,-0.7242,-0.7437,-0.784,-0.8129,-0.8245,-0.8384,-0.8566,-0.8623,-0.8703,-0.8703,-0.8703,-0.8703,-0.8703,-0.8703,-0.9013,-0.9251,-0.9322,-0.9937,-1.0295,-1.0546,-1.0778,-1.1015,-1.1252,-1.1508,-1.1718,-1.1952,-1.2378,-1.2687,-1.2915,-1.306,-1.3069,-1.3033,-1.2835,-1.2844,-1.2818,-1.2304,-1.215,-1.215,-1.2003,-1.1855,-1.1781,-1.1855,-1.1855,-1.1855,-1.1929,-1.1987,-1.2054,-1.2201,-1.2129,-1.2053,-1.1717,-1.1407,-1.1166,-1.0914,-1.0966,-1.1085,-1.1085,-1.1225,-1.1262,-1.1262,-1.1262,-1.1262,-1.1262,-1.1234,-1.1189,-1.1189,-1.1295,-1.1166,-1.0805,-1.0992,-1.0974,-1.0553,-1.0523,-1.0598,-1.066,-1.0664,-1.0688,-1.074,-1.0891,-1.0976,-1.0976,-1.1118,-1.1194,-1.1194,-1.1194,-1.1194,-1.1194,-1.1194,-1.1194,-1.1189,-1.1047,-1.0891,-1.0745,-1.0745,-1.0745,-1.0745,-1.0745,-1.0745,-1.074,-1.0683,-1.0664,-1.0617,-1.0258,-1.021,-1.021,0.0,0.0,0.0,0.0,0.0,0.0,0.0,0.0,0.0,0.0,0.0,0.0,0.0,-0.7309,-0.7469,-0.7772,-0.7964,-0.8202,-0.8389,-0.8627,-0.8703,-0.8703,-0.8703,-0.8703,-0.8703,-0.8865,-0.9099,-0.9322,-0.9772,-1.0126,-1.0309,-1.0541,-1.0772,-1.0993,-1.1244,-1.1466,-1.1682,-1.1937,-1.2159,-1.23,-1.2531,-1.2582,-1.2569,-1.2759,-1.2716,-1.2613,-1.2599,-1.2599,-1.2599,-1.2599,-1.2305,-1.2003,-1.2231,-1.2305,-1.2298,-1.2526,-1.2655,-1.2859,-1.3131,-1.2795,-1.2361,-1.262,-1.218,-1.1677,-1.1677,-1.151,-1.1251,-1.1251,-1.1257,-1.1262,-1.1262,-1.1262,-1.1262,-1.1262,-1.1542,-1.1688,-1.1688,-1.1887,-1.1854,-1.1298,-1.15,-1.1357,0.0,-1.0693,-1.066,-1.0872,-1.0886,-1.0972,-1.1165,-1.1184,-1.1184,-1.1184,-1.1194,-1.1194,-1.1194,-1.1194,-1.1194,-1.1194,-1.1194,-1.1194,-1.1194,-1.1189,-1.1184,-1.1175,-1.1175,-1.1175,-1.1175,-1.1175,-1.1175,-1.1156,-1.0962,-1.0886,-1.0858,-1.0636,-1.0551,-1.0551,0.0,0.0,0.0,0.0,0.0,0.0,0.0,0.0,0.0,0.0,0.0,0.0,0.0,0.0,0.0,0.0,-0.7658,-0.7986,-0.8207,-0.8406,-0.8551,-0.8699,-0.8703,-0.8703,-0.8703,-0.8865,-0.9022,-0.9099,-0.955,-0.989,-1.0126,-1.029,-1.053,-1.0751,-1.0833,-1.0964,-1.1205,-1.128,-1.1566,-1.1873,-1.2006,-1.2157,-1.2286,-1.2532,-1.2688,-1.2826,0.0,-1.29,-1.282,-1.282,-1.2599,-1.2378,-1.2452,-1.2378,-1.2338,-1.2614,-1.2889,-1.3061,-1.329,-1.3201,-1.3018,-1.2766,-1.259,-1.2382,-1.2201,-1.2237,-1.2215,-1.2053,-1.202,-1.1975,-1.1813,-1.1699,-1.1576,-1.1729,-1.1733,-1.1752,-1.1908,-1.214,-1.2103,-1.1536,-1.1733,-1.1676,-1.1191,0.0,0.0,-1.109,-1.1094,-1.1123,-1.1194,-1.1194,-1.1194,-1.1194,-1.1194,-1.1194,-1.1194,-1.1194,-1.1194,-1.1194,-1.1194,-1.1194,-1.1194,-1.1194,-1.1194,-1.1194,-1.1194,-1.1194,-1.1194,-1.1194,-1.1194,-1.1189,-1.1123,-1.1094,-1.1085,-1.1014,-1.0986,-1.0948,0.0,0.0,0.0,0.0,0.0,0.0,0.0,0.0,0.0,0.0,0.0,0.0,0.0,0.0,0.0,0.0,0.0,-0.7513,-0.7803,-0.808,-0.8406,-0.8551,-0.8627,-0.8703,-0.8703,-0.8861,-0.8941,-0.9022,-0.9246,-0.9545,-0.9761,-0.9849,-1.0126,-1.0423,-1.0423,-1.0557,-1.0875,-1.0872,-1.1073,-1.1368,-1.1563,-1.1764,-1.1967,-1.2378,-1.2673,0.0,-1.3046,-1.3046,-1.2973,-1.29,-1.2746,-1.2599,-1.2526,-1.2526,-1.2593,-1.2966,-1.3198,-1.3507,-1.3556,-1.3516,-1.3417,-1.3169,-1.2982,-1.2886,-1.2796,-1.2852,-1.2893,-1.2721,-1.258,-1.2505,-1.2169,-1.1866,-1.1777,-1.2015,-1.1947,-1.1908,-1.2145,-1.2388,-1.2347,-1.1768,-1.1895,-1.178,-1.1292,0.0,0.0,-1.1194,-1.1194,-1.1194,-1.1194,-1.1194,-1.1231,-1.1307,-1.1312,-1.1345,-1.1416,-1.1416,-1.1416,-1.1416,-1.1416,-1.1416,-1.1416,-1.1345,-1.1312,-1.1307,-1.1231,-1.1194,-1.1194,-1.1194,-1.1194,-1.1194,-1.1194,-1.1194,-1.1194,-1.1194,-1.1194,-1.1156,0.0,0.0,0.0,0.0,0.0,0.0,0.0,0.0,0.0,0.0,0.0,0.0,0.0,0.0,0.0,0.0,0.0,0.0,-0.7233,-0.7799,-0.8119,-0.838,-0.8546,-0.8699,-0.8703,-0.8703,-0.8784,-0.8946,-0.9022,-0.9099,-0.9251,-0.9322,-0.9509,-0.9943,-0.9943,-1.0227,-1.0584,-1.0521,-1.0662,-1.0944,-1.122,-1.1484,-1.1706,-1.215,-1.2526,-1.29,-1.29,-1.3046,-1.3193,-1.2973,-1.2746,-1.2526,-1.2399,-1.2587,-1.3029,-1.3348,-1.3654,-1.3872,-1.4008,-1.3919,-1.3736,-1.3741,-1.3485,-1.323,-1.3574,-1.3447,-1.3272,-1.3169,-1.3015,-1.2756,-1.2496,-1.2032,-1.1777,-1.2015,-1.2073,-1.2227,-1.2382,-1.2614,-1.2565,-1.2073,-1.198,-1.178,-1.1292,-1.1194,0.0,-1.1208,0.0,-1.1198,-1.1208,-1.1212,-1.1312,-1.1524,-1.1534,-1.1624,-1.1813,-1.1817,-1.1817,-1.1817,-1.1817,-1.1817,-1.1808,-1.1619,-1.1534,-1.1524,-1.1316,-1.1222,-1.1212,-1.1212,-1.1203,-1.1194,-1.1194,-1.1194,-1.1194,-1.1194,-1.1194,-1.1194,0.0,0.0,0.0,0.0,0.0,0.0,0.0,0.0,0.0,0.0,0.0,0.0,0.0,0.0,0.0,0.0,0.0,0.0,-0.6806,-0.7283,-0.7681,-0.8184,-0.8401,-0.8551,-0.8703,-0.8703,-0.8703,-0.8784,-0.8941,-0.9022,-0.9099,-0.9246,-0.9428,-0.9708,-0.9708,-0.9816,-1.01,-1.0117,-1.0318,-1.061,-1.0842,-1.126,-1.1706,-1.215,-1.2452,-1.2673,-1.2826,-1.29,-1.2973,-1.3119,-1.2826,-1.2345,-1.2346,-1.2317,-1.2389,-1.2972,-1.3173,-1.3289,-1.349,-1.355,-1.3548,-1.3523,-1.377,-1.4007,-1.4075,-1.4186,-1.4191,-1.3994,-1.3679,-1.3461,-1.3016,-1.2625,-1.2365,-1.228,-1.2344,-1.2319,-1.2382,-1.2614,-1.2565,-1.2073,-1.198,-1.178,-1.1292,-1.1194,0.0,0.0,-1.1288,-1.1264,-1.1425,-1.1435,-1.1529,-1.1737,-1.1742,-1.1765,-1.1817,-1.1817,-1.1817,-1.1817,-1.1817,-1.1817,-1.1813,-1.1765,-1.1742,-1.1737,-1.1685,-1.1572,-1.1435,-1.1435,-1.134,-1.1194,-1.1194,-1.1194,-1.1194,-1.1194,-1.1194,-1.1194,0.0,0.0,0.0,0.0,0.0,0.0,0.0,0.0,0.0,0.0,0.0,0.0,0.0,0.0,0.0,0.0,0.0,0.0,0.0,-0.6722,-0.7262,-0.7729,-0.8067,-0.8392,-0.8551,-0.8627,-0.8703,-0.8703,-0.8784,-0.8865,-0.8865,-0.9013,-0.9165,-0.9473,-0.9473,-0.962,-0.9922,-0.9922,-1.0143,0.0,0.0,-1.1111,-1.1632,-1.2003,-1.2298,-1.2526,-1.2673,-1.2673,-1.2599,-1.2526,-1.2298,-1.2055,-1.2209,-1.2312,-1.2419,-1.2857,-1.3067,-1.3201,-1.3353,-1.3509,-1.3661,-1.3704,-1.3969,-1.4285,-1.4378,-1.4477,-1.4542,-1.4397,-1.4096,-1.3815,-1.3357,-1.296,-1.2623,-1.2457,-1.2434,-1.2406,-1.2382,-1.2614,-1.2565,-1.2073,-1.198,-1.178,-1.1292,-1.1283,-1.1387,0.0,-1.1406,-1.143,-1.1638,-1.1652,-1.1746,-1.195,-1.1959,-1.2002,-1.2087,-1.2091,-1.2091,-1.2091,-1.2091,-1.2091,-1.2087,-1.1997,-1.1959,-1.1954,0.0,-1.1751,-1.1652,-1.1652,-1.1576,-1.1458,-1.1373,-1.1335,-1.1326,-1.1231,-1.1194,-1.1194,0.0,0.0,0.0,0.0,0.0,0.0,0.0,0.0,0.0,0.0,0.0,0.0,0.0,0.0,0.0,0.0,0.0,0.0,0.0,0.0,-0.6744,-0.72,-0.7686,-0.8092,-0.8286,-0.8514,-0.8599,-0.8627,-0.8699,-0.8703,-0.8703,-0.8703,-0.8937,-0.9246,-0.9322,-0.9473,-0.9846,-0.9916,-1.0143,-1.0519,-1.0663,-1.0962,-1.1409,0.0,-1.2003,-1.2224,-1.2452,-1.2305,-1.2077,-1.1706,-1.1632,-1.1689,-1.1947,-1.2217,-1.2468,-1.2782,-1.304,-1.3228,-1.3228,-1.3454,-1.3661,-1.3826,-1.3989,-1.4186,-1.4471,-1.4513,-1.45,-1.4447,-1.4315,-1.4037,-1.3528,-1.3052,-1.2697,-1.2411,-1.2389,-1.2362,-1.2334,-1.2571,-1.2533,-1.2073,-1.198,-1.178,-1.1292,-1.1392,-1.1529,-1.1557,-1.1586,-1.1676,-1.185,-1.186,-1.1959,-1.2172,-1.2181,-1.2261,-1.2436,-1.2441,-1.2441,-1.2441,-1.2441,-1.2441,-1.2432,-1.2261,-1.2181,-1.2172,-1.1983,0.0,-1.186,-1.186,-1.1841,-1.1798,-1.1624,-1.1557,-1.1534,-1.1345,-1.126,-1.1236,0.0,0.0,0.0,0.0,0.0,0.0,0.0,0.0,0.0,0.0,-0.4164,-0.43,0.0,0.0,0.0,0.0,0.0,0.0,0.0,0.0,0.0,-0.6638,-0.6991,-0.7377,-0.7711,-0.8013,-0.8318,-0.8479,-0.8627,-0.8703,-0.8703,-0.8703,-0.8861,-0.9022,-0.9246,-0.9397,-0.9695,-0.9846,-1.0067,-1.0293,-1.0293,-1.0663,-1.1186,-1.126,0.0,0.0,-1.1855,-1.1632,-1.1335,-1.126,-1.1186,-1.1271,-1.1775,-1.173,-1.1618,-1.2006,-1.2174,-1.2209,-1.2209,-1.2633,-1.3001,-1.3229,-1.362,-1.3999,-1.4285,-1.4301,-1.4291,-1.4274,-1.4157,-1.3972,-1.3489,-1.3307,-1.2985,-1.2181,-1.2224,-1.2383,-1.2167,-1.2323,-1.2353,-1.2058,-1.198,-1.178,-1.1292,-1.1392,0.0,0.0,-1.1931,-1.2049,-1.2082,-1.2082,-1.2176,-1.238,-1.2389,-1.2403,-1.2441,-1.2441,-1.2441,-1.2441,-1.2441,-1.2441,-1.2441,-1.2403,-1.2389,-1.2384,-1.2346,0.0,-1.2082,-1.2082,-1.1978,-1.1813,-1.1779,-1.1765,-1.1761,-1.1723,-1.1605,-1.1463,0.0,0.0,0.0,0.0,0.0,0.0,0.0,-0.3761,-0.3892,-0.3892,-0.4028,-0.4164,-0.43,-0.43,-0.4367,0.0,0.0,0.0,0.0,0.0,0.0,0.0,0.0,0.0,-0.7296,-0.7617,-0.8009,-0.8253,0.0,-0.8627,-0.8703,-0.8703,-0.8784,-0.9022,-0.9099,-0.9322,-0.962,-0.9695,-0.9916,-1.0218,-1.0218,-1.0443,-1.0812,0.0,0.0,0.0,-1.126,-1.1111,-1.0962,-1.0812,-1.0738,-1.0732,-1.1198,-1.1335,-1.1358,-1.1729,-1.1935,-1.2043,-1.2043,-1.2312,-1.2591,-1.2771,-1.3053,-1.3389,-1.3622,-1.3659,-1.3692,-1.3806,-1.3749,-1.3652,-1.3307,-1.3137,-1.2796,-1.2123,-1.2074,-1.2137,-1.2107,-1.2258,-1.231,-1.2052,-1.198,-1.183,-1.1354,-1.1553,-1.1761,-1.1968,-1.2176,-1.2295,-1.2295,-1.2295,-1.2337,-1.2436,-1.2441,-1.2441,-1.2441,-1.2441,-1.2441,-1.2441,-1.2441,-1.2441,-1.2441,-1.2441,-1.2441,-1.2441,-1.2441,0.0,-1.2295,-1.2295,-1.2233,-1.2129,-1.2025,-1.1987,-1.1968,-1.186,-1.1756,-1.1671,0.0,0.0,0.0,0.0,0.0,0.0,0.0,-0.3629,-0.3758,-0.3758,-0.3894,-0.4028,-0.4164,-0.4233,-0.43,0.0,0.0,0.0,0.0,0.0,0.0,0.0,0.0,0.0,0.0,0.0,0.0,-0.7901,-0.8169,0.0,0.0,0.0,0.0,0.0,-0.8946,-0.9175,-0.9473,-0.9549,-0.9771,0.0,0.0,-1.0218,0.0,0.0,0.0,0.0,0.0,-1.0738,-1.0663,-1.0513,-1.0293,-1.0176,-1.0533,-1.0847,-1.1186,-1.1481,-1.1629,-1.1798,-1.1854,-1.2046,-1.2231,-1.2326,-1.2467,-1.2654,-1.2904,-1.2991,-1.297,-1.3187,-1.3222,-1.3222,-1.3052,-1.2796,-1.2454,-1.2037,-1.1942,-1.1987,-1.2097,-1.2215,-1.2157,-1.2047,-1.198,-1.1771,-1.1496,-1.1699,0.0,-1.2124,-1.2328,-1.2441,-1.2441,-1.2441,-1.2441,-1.2441,-1.2441,-1.2441,-1.2441,-1.2441,-1.2441,-1.2441,-1.2441,-1.2441,-1.2441,-1.2441,-1.2441,-1.2441,-1.2441,0.0,0.0,-1.2441,-1.2441,-1.2422,-1.2266,-1.2205,-1.2181,-1.2016,-1.1926,-1.1888,0.0,0.0,0.0,0.0,0.0,0.0,0.0,-0.3429,-0.3498,-0.3498,-0.3694,-0.3825,-0.3825,-0.4097,-0.43,0.0,0.0,0.0,0.0,0.0,0.0,0.0,0.0,0.0,0.0,0.0,0.0,-0.712,-0.7819,0.0,0.0,0.0,0.0,0.0,0.0,-0.9022,-0.9099,-0.9251,0.0,0.0,0.0,0.0,0.0,0.0,0.0,0.0,0.0,-1.0443,-1.0218,-1.0218,-1.0067,-0.9922,-0.9949,-1.0203,-1.0491,-1.0936,-1.1082,-1.1147,-1.1289,-1.1521,-1.1787,-1.206,-1.2071,-1.2171,-1.2414,-1.2487,-1.2478,-1.2711,-1.279,-1.279,-1.2705,-1.2534,-1.2283,-1.1785,-1.1721,-1.1805,-1.2075,-1.1881,-1.1781,-1.2027,-1.178,-1.1574,-1.1496,-1.1699,-1.1907,-1.2124,-1.2328,-1.2441,-1.2441,-1.2441,-1.2441,-1.2441,-1.2441,-1.2441,-1.2441,-1.2441,-1.2441,-1.2441,-1.2441,-1.2441,-1.2441,-1.2441,-1.2441,-1.2441,-1.2441,0.0,0.0,-1.2441,-1.2441,-1.2436,-1.2417,-1.2413,-1.2408,-1.2389,-1.2266,-1.211,0.0,0.0,0.0,0.0,0.0,0.0,-0.3226,-0.3295,-0.3295,-0.3295,-0.3496,-0.3629,-0.3629,-0.3828,-0.4028,-0.4097,0.0,0.0,0.0,0.0,0.0,0.0,0.0,0.0,0.0,0.0,-0.6229,-0.6724,-0.7187,0.0,0.0,0.0,0.0,0.0,0.0,-0.8626,-0.8822,-0.8896,0.0,0.0,0.0,0.0,0.0,0.0,0.0,0.0,0.0,0.0,-0.9992,-0.9992,-0.9916,-0.9695,-0.9695,-0.9687,-0.9828,-1.0221,-1.0598,-1.0842,-1.0937,-1.1225,-1.1488,-1.1576,-1.1576,-1.1663,-1.193,-1.1815,-1.1798,-1.205,-1.1927,-1.1869,-1.2105,-1.1882,-1.1764,-1.1671,-1.1527,-1.1467,-1.1706,-1.1684,-1.1703,-1.1557,-1.1609,-1.1623,-1.1666,-1.177,-1.1954,-1.2295,-1.2394,-1.2441,-1.2441,-1.2441,-1.2441,-1.2441,-1.2441,-1.2441,-1.2441,-1.2441,-1.2441,-1.2441,-1.2441,-1.2441,-1.2441,-1.2441,-1.2441,-1.2441,-1.2441,0.0,0.0,-1.2441,-1.2441,-1.2441,-1.2441,-1.2441,-1.2441,-1.2441,-1.2389,-1.2318,0.0,0.0,0.0,0.0,0.0,-0.3226,-0.3226,-0.3226,-0.3226,-0.3226,-0.3295,-0.3431,-0.3431,-0.3563,-0.3761,-0.383,-0.4097,0.0,0.0,0.0,0.0,0.0,0.0,0.0,0.0,0.0,-0.5716,-0.6199,-0.6576,-0.6867,0.0,0.0,-0.773,-0.7801,0.0,0.0,0.0,0.0,0.0,0.0,0.0,0.0,0.0,0.0,0.0,0.0,0.0,0.0,0.0,0.0,0.0,-0.9549,-0.9549,-0.9397,-0.9291,-0.974,-1.0113,-1.0398,-1.0533,-1.0773,-1.1,-1.1068,-1.1176,-1.1246,-1.1343,-1.1275,-1.1294,-1.1475,-1.1241,-1.1196,-1.1521,-1.1316,-1.1147,-1.1488,-1.1262,-1.1168,-1.1316,-1.1353,-1.1394,-1.1347,-1.1366,-1.1558,-1.1775,-1.1931,-1.2124,-1.2417,-1.2441,-1.2441,-1.2441,-1.2441,-1.2441,-1.2441,-1.2441,-1.2441,-1.2441,-1.2441,-1.2441,-1.2441,-1.2441,-1.2441,-1.2441,-1.2441,-1.2441,-1.2441,-1.2441,0.0,0.0,-1.2441,-1.2441,-1.2441,-1.2441,-1.2441,-1.2441,-1.2441,-1.2441,-1.2441,0.0,0.0,0.0,0.0,0.0,0.0,-0.3226,-0.3226,-0.3226,-0.3226,-0.3226,-0.3226,-0.3226,-0.3362,-0.3498,-0.3498,-0.383,0.0,0.0,0.0,0.0,0.0,0.0,0.0,0.0,0.0,-0.5226,-0.5428,-0.5916,-0.6405,-0.6684,-0.7144,-0.7517,-0.7801,0.0,0.0,0.0,0.0,0.0,0.0,0.0,0.0,0.0,0.0,0.0,0.0,0.0,0.0,0.0,0.0,0.0,0.0,0.0,-0.917,-0.9062,-0.9584,-0.9734,-0.9836,-1.0196,-1.0317,-1.0368,-1.0671,-1.0824,-1.0945,-1.0705,-1.0815,-1.1001,-1.1017,-1.08,-1.0784,-1.1189,-1.0899,-1.0726,-1.0971,-1.0824,-1.0809,-1.0954,-1.099,-1.1023,-1.1252,-1.1269,-1.1359,-1.1779,-1.2191,-1.2436,-1.2441,-1.2441,0.0,-1.2441,-1.2441,-1.2441,-1.2441,-1.2441,-1.2441,-1.2441,-1.2441,-1.2441,-1.2441,-1.2441,-1.2441,-1.2441,-1.2441,-1.2441,-1.2441,0.0,0.0,0.0,-1.2441,-1.2441,-1.2441,-1.2441,-1.2441,-1.2441,-1.2441,-1.2441,-1.2441,0.0,0.0,0.0,0.0,0.0,0.0,0.0,-0.3226,-0.3226,-0.3226,-0.3226,-0.3226,-0.3226,-0.3228,-0.3295,-0.3295,-0.3627,0.0,0.0,0.0,0.0,0.0,0.0,0.0,0.0,0.0,-0.4827,-0.4964,-0.5269,-0.5561,-0.5833,-0.6154,-0.6515,-0.6857,-0.6987,-0.7265,0.0,0.0,0.0,0.0,0.0,0.0,-0.9099,0.0,0.0,0.0,0.0,0.0,0.0,0.0,0.0,0.0,0.0,0.0,0.0,-0.8937,-0.9218,-0.9528,-0.9667,-0.9897,-1.0115,-1.0181,-1.0284,-1.0269,-1.0192,-1.0136,-1.0082,-1.0089,-0.9989,-0.9982,-1.0376,-1.0383,-1.0473,-1.0783,-1.0733,-1.0666,-1.0562,-1.071,-1.0871,-1.0851,-1.1334,-1.1671,0.0,0.0,-1.2441,-1.2441,-1.2441,-1.2441,-1.2441,-1.2441,-1.2441,-1.2441,-1.2441,-1.2441,-1.2441,-1.2441,-1.2441,-1.2441,-1.2441,-1.2441,-1.2441,-1.2441,-1.2441,0.0,0.0,0.0,0.0,-1.2441,-1.2441,-1.2441,-1.2441,-1.2441,-1.2441,-1.2441,-1.2441,-1.2441,0.0,0.0,0.0,0.0,0.0,0.0,0.0,-0.3159,-0.3226,-0.3226,-0.3226,-0.3226,-0.3226,-0.3226,-0.3226,-0.3226,-0.3426,0.0,0.0,0.0,0.0,0.0,0.0,0.0,-0.4097,-0.4228,-0.4428,-0.4631,-0.4761,-0.496,-0.5292,-0.5557,-0.5888,-0.6218,-0.6412,-0.6743,0.0,0.0,0.0,0.0,0.0,0.0,-0.876,0.0,0.0,0.0,0.0,0.0,0.0,0.0,0.0,0.0,0.0,0.0,0.0,0.0,-0.8875,-0.9155,-0.9237,-0.9438,-0.9646,-0.9725,-0.9826,-0.9882,-0.9722,-0.9751,-0.9729,-0.9645,-0.9645,-0.9741,-1.006,-1.0138,-1.0219,-1.0519,-1.0467,-1.0381,-1.0207,-1.0486,-1.0817,-1.0787,-1.1406,0.0,0.0,-1.2195,-1.2441,-1.2441,-1.2441,-1.2441,-1.2441,-1.2441,-1.2441,-1.2441,-1.2441,-1.2441,-1.2441,-1.2441,-1.2441,-1.2441,-1.2441,-1.2441,-1.2441,-1.2441,-1.2441,0.0,0.0,0.0,0.0,-1.2441,-1.2441,-1.2441,-1.2441,-1.2441,-1.2441,-1.2441,-1.2441,-1.2441,0.0,0.0,0.0,0.0,0.0,0.0,0.0,-0.3092,-0.3159,-0.3159,-0.3159,-0.3159,-0.3159,-0.3159,-0.3159,-0.3226,0.0,0.0,0.0,0.0,0.0,0.0,0.0,0.0,-0.3758,-0.3825,-0.3961,-0.4233,-0.4233,-0.4498,-0.502,-0.5226,-0.5495,-0.5822,-0.6017,-0.6342,-0.6688,-0.7063,-0.7359,-0.7477,-0.792,-0.8157,0.0,0.0,0.0,0.0,0.0,0.0,0.0,0.0,0.0,0.0,0.0,0.0,0.0,0.0,0.0,0.0,0.0,-0.9001,-0.9048,-0.9233,-0.9442,-0.9551,-0.9276,-0.9468,0.0,-0.9561,-0.9577,-0.9717,-1.0153,-1.0075,-0.9979,-1.0173,-1.0125,-0.9956,-0.9975,-1.0334,-1.0745,-1.1146,-1.1461,0.0,-1.1817,-1.2089,-1.2332,-1.2441,-1.2441,-1.2441,-1.2441,-1.2441,-1.2441,-1.2441,-1.2441,-1.2441,-1.2441,-1.2441,-1.2441,-1.2441,-1.2441,-1.2441,-1.2441,-1.2441,-1.2441,0.0,0.0,0.0,0.0,-1.2441,-1.2441,-1.2441,-1.2441,-1.2441,-1.2441,-1.2441,-1.2441,-1.2441,0.0,0.0,0.0,0.0,0.0,0.0,0.0,0.0,0.0,0.0,-0.282,-0.2889,-0.3023,-0.3025,-0.3092,0.0,0.0,0.0,0.0,0.0,0.0,0.0,0.0,0.0,-0.3563,-0.3694,-0.3825,-0.3894,-0.3894,-0.4025,-0.4292,-0.4498,-0.4764,-0.5096,-0.5425,-0.5888,-0.6346,-0.6721,-0.6961,-0.7108,-0.7402,-0.7686,0.0,0.0,0.0,0.0,-0.8479,-0.8551,0.0,0.0,0.0,0.0,0.0,0.0,0.0,0.0,-0.8703,-0.8713,-0.8765,0.0,-0.8789,-0.8836,-0.8927,-0.8913,0.0,-0.8851,-0.8976,-0.9144,-0.9303,-0.9414,-0.968,-0.9686,-0.9721,-0.9767,-0.9607,-0.9486,-0.9643,-1.0005,-1.0341,-1.0578,-1.0954,-1.13,-1.1507,-1.1875,-1.2223,-1.2327,-1.2441,-1.2441,-1.2441,-1.2441,-1.2441,-1.2441,-1.2441,-1.2441,-1.2441,-1.2441,-1.2441,-1.2441,-1.2441,-1.2441,-1.2441,-1.2441,-1.2441,0.0,0.0,0.0,-1.2441,-1.2441,-1.2441,-1.2441,-1.2441,-1.2441,-1.2441,-1.2441,-1.2441,-1.2441,0.0,0.0,0.0,0.0,0.0,0.0,0.0,0.0,0.0,0.0,0.0,0.0,0.0,0.0,0.0,0.0,0.0,0.0,0.0,0.0,0.0,0.0,0.0,-0.3362,-0.3362,-0.3493,-0.356,-0.3694,-0.3694,-0.3761,-0.3892,-0.4097,-0.4231,-0.4428,-0.4897,-0.5359,-0.5818,-0.6079,-0.6336,-0.6634,-0.6856,0.0,0.0,0.0,0.0,0.0,-0.8255,-0.8327,0.0,-0.8403,-0.8403,-0.8403,0.0,0.0,0.0,0.0,-0.8403,-0.8403,-0.8403,-0.8551,-0.8703,-0.8551,-0.8551,-0.8551,-0.8475,-0.8471,-0.8595,-0.8804,-0.9,-0.9196,-0.9406,-0.9447,-0.9432,-0.9257,-0.9239,-0.9217,-0.9402,-0.9613,-0.9812,-0.9998,-1.045,-1.0884,0.0,-1.1554,-1.1896,-1.2223,-1.2223,-1.2219,-1.2436,-1.2441,-1.2441,-1.2441,-1.2441,-1.2441,-1.2441,-1.2441,-1.2441,-1.2441,-1.2441,-1.2441,-1.2441,-1.2441,-1.2441,0.0,0.0,0.0,-1.2441,-1.2441,-1.2441,-1.2441,-1.2441,-1.2441,-1.2441,-1.2441,-1.2441,-1.2441,0.0,0.0,0.0,0.0,0.0,0.0,0.0,0.0,0.0,0.0,0.0,0.0,0.0,0.0,0.0,0.0,0.0,0.0,0.0,0.0,0.0,0.0,-0.3159,-0.3226,-0.3226,-0.3226,-0.3295,-0.3431,-0.3431,-0.3563,-0.3692,-0.3828,-0.3961,-0.4028,-0.4495,-0.4897,-0.5292,-0.5422,-0.5683,-0.6028,-0.6244,0.0,0.0,0.0,0.0,0.0,0.0,0.0,0.0,-0.8025,-0.8025,-0.8025,-0.8025,0.0,0.0,0.0,0.0,0.0,-0.8025,-0.8327,-0.8546,-0.8403,-0.8327,-0.825,-0.8102,-0.8169,-0.836,-0.8556,-0.866,-0.8845,-0.9135,-0.917,-0.9091,-0.8861,-0.8947,-0.9003,-0.902,-0.9083,-0.9166,-0.9347,-0.9957,0.0,-1.0406,-1.1035,-1.1568,-1.1787,-1.1896,-1.2114,-1.2332,-1.2332,-1.2332,-1.2441,-1.2441,-1.2441,-1.2441,-1.2441,-1.2441,-1.2441,-1.2441,-1.2441,-1.2441,-1.2441,-1.2441,-1.2441,0.0,0.0,-1.2441,-1.2441,-1.2441,-1.2441,-1.2441,-1.2441,-1.2441,-1.2441,-1.2441,-1.2441,0.0,0.0,0.0,0.0,0.0,0.0,0.0,0.0,0.0,0.0,0.0,0.0,0.0,0.0,0.0,0.0,0.0,0.0,0.0,0.0,0.0,-0.3023,-0.3159,-0.3226,-0.3226,-0.3226,-0.3226,-0.3228,-0.3228,-0.3293,-0.3293,-0.3496,-0.3696,-0.4028,-0.4095,-0.4361,-0.4758,-0.4894,-0.5024,-0.5289,-0.5516,0.0,0.0,0.0,0.0,0.0,0.0,0.0,0.0,-0.7561,-0.7561,-0.7638,-0.7787,0.0,0.0,0.0,0.0,0.0,-0.7863,-0.7859,-0.7936,-0.8097,-0.8016,-0.7859,-0.7863,-0.7857,-0.7885,-0.8061,-0.8242,-0.8422,-0.869,-0.8548,-0.8424,-0.8489,-0.8404,-0.8232,0.0,0.0,-0.8258,-0.8404,0.0,-0.9264,-0.9617,-1.0353,-1.0911,-1.1236,-1.1459,-1.1787,-1.2005,-1.211,-1.2223,-1.2436,-1.2441,-1.2441,-1.2441,-1.2441,-1.2441,-1.2441,-1.2441,-1.2441,-1.2441,-1.2441,-1.2441,-1.2441,0.0,-1.2441,-1.2441,-1.2441,-1.2441,-1.2441,-1.2441,-1.2441,-1.2441,-1.2441,-1.2441,-1.2441,0.0,0.0,0.0,0.0,0.0,0.0,0.0,0.0,0.0,0.0,0.0,0.0,0.0,0.0,0.0,0.0,0.0,0.0,0.0,0.0,-0.2822,-0.2822,-0.2889,-0.3023,-0.3226,-0.3226,-0.3226,-0.3226,-0.3226,-0.3226,-0.3226,-0.3295,-0.3496,-0.3763,-0.3763,-0.3964,-0.4292,-0.4361,-0.4492,-0.4694,0.0,0.0,0.0,0.0,0.0,0.0,0.0,0.0,0.0,0.0,-0.6865,-0.7022,-0.7096,0.0,0.0,0.0,0.0,0.0,-0.7322,-0.7246,-0.7173,-0.7253,-0.7407,-0.7431,-0.7215,-0.7369,-0.7542,-0.7541,-0.7703,-0.7842,-0.8002,-0.7757,-0.7663,-0.7724,0.0,-0.755,-0.7527,-0.7496,-0.7591,0.0,0.0,-0.8543,-0.88,-0.9501,-1.0143,-1.0363,-1.0802,-1.124,-1.1455,-1.1678,-1.1896,-1.2223,-1.2219,-1.2223,-1.2441,-1.2441,-1.2441,-1.2441,-1.2441,-1.2441,-1.2441,-1.2441,-1.2441,-1.2441,0.0,-1.2441,-1.2441,-1.2441,-1.2441,-1.2441,-1.2441,-1.2441,-1.2441,-1.2441,-1.2327,-1.2219,0.0,0.0,0.0,0.0,0.0,0.0,0.0,0.0,0.0,0.0,0.0,0.0,0.0,0.0,0.0,0.0,0.0,0.0,0.0,-0.2552,-0.2619,-0.2621,-0.2686,-0.282,-0.3092,-0.3092,-0.3092,-0.3092,-0.3092,-0.3092,-0.3092,-0.3092,-0.3159,-0.3362,-0.3362,-0.3563,-0.3894,-0.3894,-0.4025,-0.4231,0.0,0.0,0.0,0.0,0.0,0.0,0.0,0.0,0.0,0.0,0.0,0.0,0.0,0.0,0.0,-0.6707,-0.6707,-0.6707,-0.6707,-0.6556,-0.6416,-0.6376,-0.6617,-0.6883,-0.661,-0.6869,-0.7122,-0.6984,-0.7125,-0.7224,-0.7224,-0.7104,-0.6956,-0.6895,-0.6786,-0.6732,-0.6825,-0.6862,-0.6929,-0.7061,-0.7503,-0.7852,-0.7991,-0.8646,-0.9154,-0.9482,-1.0033,-1.0472,-1.0798,-1.1131,-1.1459,-1.1787,-1.1896,-1.2005,-1.2223,-1.2219,-1.2332,-1.2441,-1.2441,-1.2441,-1.2441,-1.2441,-1.2441,-1.2441,-1.2441,-1.2441,-1.2441,-1.2441,-1.2441,-1.2441,-1.2441,-1.2332,-1.2332,-1.2223,-1.2114,-1.1896,0.0,0.0,0.0,0.0,0.0,0.0,0.0,0.0,0.0,0.0,0.0,0.0,0.0,0.0,0.0,0.0,0.0,0.0,0.0,-0.2153,-0.2288,-0.2423,-0.2621,-0.2686,-0.2753,-0.2753,-0.2753,-0.2753,-0.2753,-0.2753,-0.2753,-0.2753,-0.2822,-0.3025,-0.3025,-0.3226,-0.3565,-0.3565,-0.3627,-0.3835,-0.3941,0.0,0.0,0.0,0.0,0.0,0.0,0.0,0.0,0.0,0.0,0.0,0.0,0.0,-0.6015,-0.6167,-0.624,-0.6244,-0.6015,-0.5941,-0.5895,-0.563,-0.5901,-0.6144,-0.6154,-0.6204,-0.6313,-0.6236,-0.634,-0.652,-0.652,-0.645,-0.6341,-0.5887,-0.5984,-0.6032,-0.5734,0.0,-0.5928,-0.6037,-0.6355,-0.6793,-0.7241,-0.7817,-0.8266,-0.8595,-0.9154,-0.9599,-0.9926,-1.0472,-1.0911,-1.1126,-1.1459,-1.1678,-1.1678,-1.1896,-1.2114,-1.2441,-1.2441,-1.2441,-1.2441,-1.2441,-1.2441,-1.2441,-1.2441,-1.2441,-1.2441,-1.2441,-1.2441,-1.2441,-1.2441,-1.2223,-1.2005,-1.1787,-1.1678,-1.1678,0.0,0.0,0.0,0.0,0.0,0.0,0.0,0.0,0.0,0.0,0.0,0.0,0.0,0.0,0.0,0.0,0.0,0.0,0.0,-0.1817,-0.2018,-0.2087,-0.2153,-0.2285,-0.2354,-0.2619,-0.2686,-0.2686,-0.2686,-0.2686,-0.2686,-0.2686,-0.2753,-0.282,-0.282,-0.2889,-0.3023,-0.3159,-0.3258,-0.3384,-0.3688,-0.3932,0.0,0.0,0.0,0.0,0.0,0.0,0.0,0.0,-0.4854,-0.509,-0.5165,-0.524,-0.5392,-0.5467,-0.5467,-0.5467,-0.5392,-0.524,-0.5118,-0.5082,-0.5165,-0.5237,-0.5477,-0.5653,-0.5745,-0.5733,-0.5783,-0.5746,-0.5639,-0.5691,-0.5728,-0.5607,-0.5642,-0.5737,-0.5636,-0.5727,-0.5834,-0.5943,-0.6156,-0.6372,-0.6594,-0.6935,-0.7379,-0.7709,-0.8266,-0.8709,-0.9258,-0.9702,-1.0147,-1.0802,-1.1021,-1.124,-1.1568,-1.1678,-1.1787,-1.1896,-1.2223,-1.2441,-1.2441,-1.2441,-1.2441,-1.2436,-1.2219,-1.2114,-1.2114,-1.2005,-1.1896,-1.1896,-1.1896,-1.1678,-1.1459,-1.1345,-1.1131,-1.0802,0.0,0.0,0.0,0.0,0.0,0.0,0.0,0.0,0.0,0.0,0.0,0.0,0.0,0.0,0.0,0.0,0.0,0.0,-0.1143,-0.1412,-0.1614,-0.1748,-0.1817,-0.1884,-0.2087,-0.2353,-0.2485,-0.2554,-0.2554,-0.2554,-0.2554,-0.2554,-0.2554,-0.2621,-0.2621,-0.2621,-0.2688,-0.2847,-0.2958,-0.3021,-0.3489,-0.3649,0.0,0.0,0.0,0.0,0.0,0.0,0.0,0.0,-0.4465,-0.4621,-0.4621,-0.4696,-0.4849,-0.4849,-0.4849,-0.4849,-0.4849,-0.4721,-0.4622,-0.4649,-0.4675,-0.4695,-0.4793,-0.508,-0.5365,-0.5265,-0.528,-0.5225,-0.5059,-0.5069,-0.5172,0.0,-0.5275,-0.5334,-0.5334,-0.5451,-0.5663,-0.5735,-0.5863,-0.5973,-0.6154,-0.627,-0.6601,-0.6935,-0.7379,-0.7931,-0.8371,-0.8816,-0.9482,-1.0139,-1.0253,-1.0582,-1.1131,-1.124,-1.135,-1.1459,-1.1896,-1.2114,-1.2114,-1.2114,-1.2114,-1.2114,-1.2005,-1.1896,-1.1896,-1.1678,-1.1568,-1.1459,-1.124,-1.1021,-1.0692,-1.0582,-1.0249,-0.9809,0.0,0.0,0.0,0.0,0.0,0.0,0.0,0.0,0.0,0.0,0.0,0.0,0.0,0.0,0.0,0.0,0.0,0.0,-0.0672,-0.0941,-0.121,-0.1412,-0.1547,-0.1681,-0.1884,-0.1884,-0.2018,-0.2221,-0.2221,-0.2221,-0.2221,-0.2221,-0.2288,-0.2424,-0.2424,-0.249,-0.2691,-0.2768,-0.28,-0.2816,-0.3189,-0.3332,-0.3341,0.0,0.0,0.0,0.0,0.0,0.0,0.0,-0.4233,-0.4384,-0.4384,-0.4384,-0.4384,-0.4384,-0.4384,-0.4384,-0.4384,-0.4461,-0.4487,-0.434,-0.4352,-0.445,-0.4368,-0.4654,-0.501,-0.501,-0.501,-0.4954,-0.4791,-0.4882,0.0,-0.4694,-0.4779,-0.4834,-0.4834,-0.4992,-0.5108,-0.5108,-0.5269,-0.5491,-0.5822,-0.5822,-0.5935,-0.6274,-0.6826,-0.7154,-0.7154,-0.8042,-0.8595,-0.892,-0.9261,-0.971,-1.0257,-1.0586,-1.0802,-1.1126,-1.1459,-1.1568,-1.1568,-1.1568,-1.1568,-1.1568,-1.1568,-1.1568,-1.1568,-1.1568,-1.1345,-1.1021,-1.0472,-1.0036,-0.9706,-0.9489,-0.9151,-0.892,0.0,0.0,0.0,0.0,0.0,0.0,0.0,0.0,0.0,0.0,0.0,0.0,0.0,0.0,0.0,0.0,0.0,0.0,0.0067,-0.0202,-0.0471,-0.0874,-0.1143,-0.1344,-0.1547,-0.1749,-0.2018,-0.2221,-0.2221,-0.2221,-0.2221,-0.2221,-0.2221,-0.2288,-0.2288,-0.2313,-0.2356,-0.2515,-0.2649,-0.274,-0.3008,-0.3137,-0.3188,0.0,0.0,0.0,0.0,0.0,0.0,0.0,0.0,0.0,-0.3997,-0.3997,-0.3997,-0.3997,-0.3997,-0.401,-0.4,-0.4038,-0.4018,-0.4004,-0.3976,-0.393,-0.3837,-0.421,-0.4476,-0.4476,-0.4476,-0.4527,-0.4597,-0.4647,0.0,-0.4773,-0.4818,-0.4834,-0.4834,-0.4992,-0.5108,-0.5108,-0.5269,-0.5382,-0.5491,-0.5491,-0.5603,-0.5935,-0.6156,-0.6379,-0.6824,-0.7265,-0.782,-0.8263,-0.8816,-0.9261,-0.971,-0.9926,-1.0143,-1.0143,-1.0253,-1.0802,-1.1568,-1.1568,-1.1568,-1.1568,-1.1131,-1.1021,-1.0911,-1.0363,-1.0036,-0.9816,-0.9478,-0.9147,-0.8927,-0.8819,-0.8488,-0.7934,0.0,0.0,0.0,0.0,0.0,0.0,0.0,0.0,0.0,0.0,0.1749,0.1748,0.0,0.0,0.0,0.0,0.0,0.0,0.0,0.0404,0.0067,-0.0404,-0.0673,-0.0942,-0.1277,-0.1614,-0.1817,-0.1951,-0.2154,-0.2221,-0.2221,-0.2221,-0.2166,-0.2191,-0.2191,-0.2223,-0.2282,-0.2377,-0.2503,-0.2574,-0.283,-0.2944,-0.2982,0.0,0.0,0.0,0.0,0.0,0.0,0.0,0.0,0.0,-0.353,-0.353,-0.353,-0.353,-0.3553,-0.3591,-0.3643,-0.3706,-0.3697,-0.371,-0.3673,-0.3708,-0.3576,-0.3855,-0.4032,-0.4032,-0.406,-0.4126,-0.4263,-0.4313,0.0,-0.4512,-0.4433,-0.4433,-0.4433,-0.4757,-0.4964,-0.489,-0.5128,-0.5341,-0.5377,-0.5382,-0.5491,-0.5601,-0.5712,-0.5933,0.0,-0.6712,-0.7046,-0.7709,-0.8039,-0.8481,-0.9044,-0.9261,-0.9482,-0.9596,-0.9706,-1.0147,-1.0911,-1.0911,-1.0911,-1.0911,-1.0363,-1.0147,-1.0143,-0.9375,-0.8933,-0.8823,-0.8488,-0.8152,-0.782,-0.782,-0.7493,-0.7051,0.0,0.0,0.0,0.0,0.0,0.0,0.0,0.0,0.0,0.0,0.2018,0.1951,0.0,0.0,0.0,0.0,0.0,0.0,0.0,0.0874,0.0538,0.0135,-0.0202,-0.0606,-0.1008,-0.1345,-0.1547,-0.1547,-0.1951,-0.2154,-0.2154,-0.2159,-0.2192,-0.2174,-0.2179,-0.2215,-0.2346,-0.2398,-0.2422,-0.2433,-0.2644,-0.2747,-0.2826,-0.2982,0.0,0.0,0.0,0.0,0.0,0.0,0.0,0.0,-0.3062,-0.3062,-0.3062,-0.3062,-0.3115,-0.3175,-0.318,-0.3367,-0.3476,-0.3483,-0.3536,-0.3499,-0.3499,-0.3499,-0.3588,-0.3587,-0.3648,-0.3725,-0.3801,-0.3873,-0.3944,-0.4021,-0.4033,-0.4033,-0.4033,-0.4305,-0.4594,-0.4671,-0.4972,-0.517,-0.526,-0.5382,-0.5382,-0.5382,-0.5601,-0.571,-0.571,-0.6049,-0.6492,-0.7043,-0.7154,-0.7598,-0.8374,-0.8592,-0.8927,-0.9268,-0.9485,-0.9596,-0.9596,-0.9706,-0.9706,-0.9706,-0.9375,-0.9268,-0.9158,-0.8598,-0.8152,-0.7823,-0.7604,-0.7163,-0.6715,-0.6715,-0.6495,-0.6274,0.0,0.0,0.0,0.0,0.0,0.0,0.0,0.0,0.0,0.0,0.0,0.0,0.0,0.0,0.0,0.0,0.0,0.0,0.0,0.1344,0.1144,0.0875,0.0269,-0.0202,-0.0539,-0.1009,-0.121,-0.121,-0.1547,-0.1817,-0.1952,-0.1996,-0.2092,-0.2177,-0.2223,-0.2347,-0.2402,-0.2414,-0.2447,-0.2492,-0.2506,-0.2589,-0.2589,-0.2589,-0.2668,0.0,0.0,0.0,0.0,0.0,0.0,0.0,-0.3062,-0.3062,-0.3062,-0.3062,-0.3115,-0.3185,-0.3323,-0.3403,-0.3488,-0.328,-0.3129,-0.3053,-0.3053,-0.3053,-0.3141,-0.3497,-0.3648,-0.3725,-0.3801,-0.3873,-0.3944,-0.4021,-0.4033,-0.4033,-0.4033,-0.4201,-0.428,-0.4357,-0.4543,-0.4622,-0.4697,-0.4929,-0.5043,-0.5043,-0.5268,-0.5491,-0.5491,-0.5712,-0.5935,-0.6044,-0.6601,-0.7046,-0.7487,-0.7712,-0.8048,0.0,-0.8377,-0.8377,-0.8377,-0.9154,-0.9265,-0.8816,-0.8706,-0.8377,-0.794,-0.7601,-0.7268,-0.6935,-0.6717,-0.6497,-0.6386,-0.6386,-0.6161,-0.5935,0.0,0.0,0.0,0.0,0.0,0.0,0.0,0.0,0.0,0.0,0.0,0.0,0.0,0.0,0.0,0.0,0.0,0.0,0.0,0.0,0.148,0.1143,0.0605,0.0202,-0.0,-0.0477,-0.0754,-0.0754,-0.1181,-0.1529,-0.1785,-0.1835,-0.1943,-0.2187,-0.2216,-0.226,-0.2463,-0.2463,-0.2481,-0.2511,-0.2511,-0.2511,-0.2511,-0.2511,-0.2511,-0.2511,-0.2511,0.0,0.0,0.0,0.0,0.0,0.0,0.0,-0.2826,-0.2826,-0.2896,-0.2984,-0.3017,-0.31,-0.3186,-0.3042,-0.2962,-0.2875,-0.2875,-0.2875,-0.2963,-0.3232,-0.3284,-0.335,-0.3419,-0.3485,-0.3552,-0.3621,-0.3632,-0.3632,-0.3632,-0.3766,-0.3917,-0.4091,-0.4273,-0.4349,-0.4422,-0.4571,-0.4704,-0.4704,-0.5043,-0.5156,-0.5156,-0.5491,-0.5712,-0.5822,-0.6156,-0.6379,-0.6715,-0.7049,-0.7271,-0.7379,-0.7487,-0.7487,-0.7379,-0.8159,-0.838,-0.8045,-0.7712,-0.749,-0.716,-0.6826,-0.6604,-0.6267,-0.6158,-0.5938,-0.5828,-0.5828,-0.5714,-0.5603,0.0,0.0,0.0,0.0,0.0,0.0,0.0,0.0,0.0,0.0,0.0,0.0,0.0,0.0,0.0,0.0,0.0,0.0,0.0,0.0,0.0,0.1277,0.0941,0.0742,0.0543,0.0069,-0.0211,-0.0282,-0.0724,-0.1161,-0.1635,-0.1672,-0.1783,-0.2047,-0.2056,-0.2158,-0.2433,-0.2433,-0.2433,-0.2433,-0.2433,-0.2433,-0.2433,-0.2433,-0.2433,-0.2433,-0.2433,-0.2433,-0.2431,-0.2431,0.0,0.0,0.0,0.0,-0.2511,-0.2511,-0.2597,-0.2692,-0.2692,-0.2781,-0.2875,-0.2875,-0.2875,-0.2875,-0.2875,-0.2875,-0.2875,-0.2875,-0.2918,-0.2977,-0.3133,-0.3098,-0.3159,-0.3221,-0.323,-0.323,-0.323,-0.3433,-0.3558,-0.3724,-0.3992,-0.4169,-0.4256,-0.4315,-0.4355,-0.4369,-0.4706,-0.4817,-0.4817,-0.5156,-0.538,-0.5599,-0.5712,-0.5935,-0.6163,-0.6381,-0.6604,-0.6604,-0.6935,-0.6935,-0.6604,-0.7049,-0.7271,-0.7385,-0.6826,-0.6604,-0.6492,-0.6272,-0.6049,-0.5712,-0.5712,-0.5603,-0.5382,-0.5382,-0.5382,-0.5382,0.0,0.0,0.0,0.0,0.0,0.0,0.0,0.0,0.0,0.0,0.2686,0.2686,0.0,0.0,0.0,0.0,0.0,0.0,0.2356,0.0,0.0,0.1817,0.148,0.1225,0.1045,0.0769,0.0425,0.0,-0.0298,-0.0752,-0.1275,-0.1429,-0.1661,-0.1821,-0.1938,-0.1959,-0.1964,-0.1964,-0.1964,-0.1964,-0.1964,-0.1964,-0.1964,-0.1964,-0.1964,-0.1964,-0.1964,-0.212,-0.2275,-0.2275,-0.2353,0.0,0.0,0.0,-0.2511,-0.2511,-0.2597,-0.2692,-0.2692,-0.2781,-0.2875,-0.2875,-0.2875,-0.2875,-0.2875,-0.2875,-0.2875,-0.2875,-0.2918,-0.2977,-0.3133,-0.3098,-0.3159,-0.3221,-0.323,-0.323,-0.323,-0.323,-0.3253,-0.3313,-0.3432,-0.3481,-0.3595,-0.3834,-0.3972,-0.4032,-0.4369,-0.4592,-0.4592,-0.4817,-0.4931,-0.5041,-0.5268,-0.5603,-0.5822,-0.5933,-0.6047,-0.6386,-0.6386,-0.6386,-0.6386,-0.6158,-0.6158,-0.6497,-0.6386,-0.6161,-0.5933,-0.5935,-0.5712,-0.5493,-0.5493,-0.5382,-0.5382,-0.5382,-0.5382,-0.5382,0.0,0.0,0.0,0.0,0.0,0.0,0.0,0.0,0.0,0.0,0.0,0.2889,0.0,0.0,0.0,0.2746,0.2684,0.2633,0.2744,0.2605,0.2393,0.2181,0.204,0.1839,0.1505,0.1309,0.1104,0.0745,0.0382,-0.0,-0.0541,-0.0773,-0.1083,-0.1548,-0.1642,-0.1807,-0.1887,-0.1887,-0.1887,-0.1887,-0.1887,-0.1965,-0.2044,-0.2044,-0.1887,-0.1807,-0.1807,-0.1886,-0.2042,-0.2042,-0.2198,-0.2353,-0.2353,0.0,0.0,0.0,-0.2597,-0.2707,-0.2775,-0.2834,-0.2875,-0.2875,-0.2875,-0.2875,-0.2875,-0.2875,-0.2875,-0.2875,-0.2894,-0.2929,-0.2988,-0.3048,-0.3109,-0.3169,-0.3209,-0.323,-0.323,-0.323,-0.324,-0.3267,-0.33,-0.3342,-0.3394,-0.3566,-0.3727,-0.3756,-0.4013,-0.4258,-0.4258,-0.4482,-0.4704,-0.4704,-0.4817,-0.4929,-0.5039,-0.5039,-0.5152,-0.5264,-0.5264,-0.5264,-0.5264,-0.5152,-0.5375,-0.6047,-0.5828,-0.5603,-0.5264,-0.5264,-0.5152,-0.4929,-0.4929,-0.4929,-0.4929,-0.4929,-0.4929,-0.4929,0.0,0.0,0.0,0.0,0.0,0.0,0.0,0.0,0.0,0.0,0.0,0.0,0.0,0.0,0.0,0.0,0.29,0.2924,0.2983,0.2987,0.284,0.2548,0.2548,0.2338,0.1987,0.1875,0.1671,0.1453,0.1168,0.0786,0.0314,0.0,-0.0393,-0.1021,-0.1336,-0.1572,-0.1729,-0.1729,-0.1729,-0.1729,-0.1729,-0.1808,-0.1887,-0.1729,-0.1572,-0.1415,-0.1572,-0.165,-0.1729,-0.1729,-0.1885,-0.2041,-0.2119,-0.2198,0.0,0.0,0.0,-0.2653,-0.2845,-0.2875,-0.2873,-0.2784,-0.2784,-0.2784,-0.2694,-0.2694,-0.2694,-0.2784,-0.2784,-0.2797,-0.2929,-0.2985,-0.305,-0.3127,-0.3179,-0.3213,-0.3229,-0.323,-0.323,-0.323,-0.327,-0.3305,-0.332,-0.3401,-0.3465,-0.3495,-0.376,-0.3907,-0.3924,-0.4147,-0.437,-0.437,-0.448,-0.448,-0.448,-0.448,-0.448,-0.448,-0.448,-0.448,-0.448,-0.448,-0.4815,-0.5487,-0.5266,-0.5043,-0.4817,-0.4817,-0.4704,-0.448,-0.448,-0.448,-0.448,-0.448,-0.448,-0.448,0.0,0.0,0.0,0.0,0.0,0.0,0.0,0.0,0.0,0.0,0.0,0.0,0.3356,0.3434,0.3487,0.3493,0.3274,0.3129,0.2987,0.2987,0.2987,0.2987,0.2987,0.0,0.2414,0.2343,0.222,0.2041,0.1806,0.1493,0.1257,0.0864,0.0471,-0.0079,-0.0943,-0.1335,-0.1335,-0.1335,-0.1335,-0.1335,-0.1335,-0.1335,-0.1257,-0.0864,-0.0707,-0.0707,-0.1178,-0.1335,-0.1335,-0.1335,-0.1493,-0.1729,-0.1886,-0.1886,-0.1894,0.0,0.0,0.0,-0.2856,-0.2875,-0.2873,-0.2603,-0.2513,-0.2513,-0.2244,-0.2243,-0.2334,-0.2513,-0.2513,-0.2604,-0.2877,-0.2925,-0.3001,-0.312,-0.3142,-0.3165,-0.3222,-0.323,-0.323,-0.323,-0.3233,-0.3258,-0.3316,-0.3327,-0.3376,-0.3488,-0.3499,-0.3526,-0.3585,-0.3924,-0.4036,-0.4036,-0.4369,-0.448,-0.448,-0.448,-0.448,-0.448,-0.448,-0.448,-0.448,-0.448,-0.448,-0.459,-0.4592,-0.4592,-0.448,-0.448,-0.448,-0.448,-0.448,-0.448,-0.448,-0.448,-0.448,-0.448,0.0,0.0,0.0,0.0,0.0,0.0,0.0,0.0,0.0,0.0,0.0,0.0,0.0,0.3481,0.3522,0.3577,0.3559,0.3591,0.3514,0.3514,0.3438,0.336,0.3284,0.3146,0.2866,0.2866,0.2724,0.2356,0.2277,0.2042,0.1808,0.1335,0.0943,0.0471,-0.0314,-0.0943,-0.1335,-0.1335,-0.1335,-0.1257,-0.0943,-0.0707,-0.0471,-0.0314,-0.0079,0.0,-0.0157,-0.0393,-0.0707,-0.0707,-0.1021,-0.1415,-0.1493,-0.165,-0.1821,-0.189,-0.2122,-0.2271,-0.241,-0.2424,-0.2424,-0.2334,-0.2334,-0.2334,-0.2243,-0.2243,-0.2243,-0.2334,-0.2334,-0.2334,-0.2604,-0.2829,-0.2971,-0.3016,-0.3089,-0.3147,-0.3169,-0.3206,-0.323,-0.323,-0.323,-0.3238,-0.3262,-0.3298,-0.3339,-0.3382,-0.342,-0.3467,-0.3526,-0.364,-0.3658,-0.3699,-0.3811,-0.3921,-0.3921,-0.3921,-0.3921,-0.3921,-0.3921,-0.3921,-0.3921,-0.3921,-0.3921,-0.3921,-0.3921,-0.4035,-0.4147,-0.4147,-0.4035,-0.3921,-0.3921,-0.3921,-0.3921,-0.3921,-0.3921,-0.3921,0.0,0.0,0.0,0.0,0.0,0.0,0.0,0.0,0.0,0.3491,0.0,0.0,0.0,0.0,0.3609,0.3667,0.3728,0.3763,0.3763,0.3763,0.3763,0.3604,0.3604,0.345,0.3217,0.3217,0.3061,0.2668,0.2668,0.2512,0.22,0.1885,0.1414,0.0943,0.0393,-0.0236,-0.1021,-0.1178,-0.1335,-0.1257,-0.0628,-0.0079,0.0471,0.055,0.079,0.0954,0.0795,0.0479,0.0161,-0.0,-0.0402,-0.0885,-0.0965,-0.1294,-0.1556,-0.177,-0.1899,-0.2027,-0.2146,-0.2243,-0.2154,-0.2064,-0.2064,-0.2064,-0.1974,-0.1974,-0.1974,-0.2064,-0.2064,-0.2154,-0.2334,-0.2541,-0.2753,-0.2955,-0.3026,-0.3093,-0.3134,-0.3174,-0.3207,-0.3229,-0.323,-0.323,-0.323,-0.3267,-0.3298,-0.332,-0.336,0.0,-0.3465,-0.3469,-0.3496,-0.3555,-0.3576,-0.3587,-0.3587,-0.3587,-0.3587,-0.3587,-0.3587,-0.3587,-0.3587,-0.3587,-0.3587,-0.3587,-0.3587,-0.3699,-0.3813,-0.3813,-0.3813,-0.3587,-0.3587,-0.3587,-0.3587,-0.3587,-0.3587,-0.3587,0.0,0.0,0.0,0.0,0.0,0.0,0.0,0.0,0.3505,0.3507,0.0,0.0,0.0,0.0,0.0,0.3763,0.3763,0.3763,0.3763,0.3763,0.3763,0.3763,0.3763,0.3684,0.3526,0.3526,0.3372,0.3141,0.3141,0.2904,0.2511,0.2511,0.2119,0.1335,0.1335,0.0707,-0.0393,-0.1021,-0.1257,-0.1178,-0.0314,0.055,0.1336,0.1731,0.1996,0.2037,0.1548,0.1323,0.1263,0.0758,0.0337,0.0084,-0.0253,-0.077,-0.1306,-0.1391,-0.1588,-0.1884,0.0,0.0,0.0,-0.1884,-0.1794,-0.1705,-0.1436,-0.1436,-0.1436,-0.1705,-0.1794,-0.1884,-0.2154,-0.2154,-0.2349,-0.2855,-0.2958,-0.3,-0.312,-0.3138,-0.3162,-0.3224,-0.323,-0.323,-0.323,-0.323,-0.3255,-0.3315,-0.3319,-0.3345,-0.3407,-0.3412,-0.3437,-0.3492,-0.3552,-0.3583,-0.3585,-0.3585,-0.3585,-0.3587,-0.3587,-0.3587,-0.3587,-0.3587,-0.3587,-0.3587,-0.3587,-0.3587,-0.3587,-0.3587,-0.3587,-0.3587,-0.3587,-0.3587,-0.3587,-0.3587,-0.3587,-0.3587,0.0,0.0,0.0,0.0,0.0,0.0,0.4175,0.4119,0.407,0.0,0.0,0.0,0.396,0.3826,0.3763,0.3763,0.3763,0.3763,0.3763,0.3763,0.3763,0.3763,0.3763,0.3763,0.3684,0.3684,0.3606,0.3372,0.3372,0.3215,0.2904,0.2668,0.2354,0.2119,0.1728,0.1335,0.0786,0.0314,-0.0079,-0.0314,0.0628,0.1178,0.1653,0.2001,0.2102,0.2037,0.1905,0.184,0.1683,0.1598,0.1262,0.0927,0.0168,-0.0342,-0.0783,-0.1219,-0.1413,-0.1525,-0.1615,0.0,0.0,0.0,0.0,0.0,-0.1436,-0.1436,-0.1436,-0.1525,-0.1525,-0.1615,-0.1884,-0.1885,-0.2067,-0.2351,-0.2566,-0.2801,-0.3064,-0.3112,-0.3162,-0.3224,-0.323,-0.323,-0.323,-0.323,-0.3237,0.0,-0.3256,-0.3282,-0.3343,-0.3388,-0.342,-0.3435,-0.3452,-0.348,-0.3521,-0.3522,-0.3544,-0.3587,-0.3587,-0.3587,-0.3587,-0.3587,-0.3587,-0.3587,-0.3587,-0.3587,-0.3587,-0.3587,-0.3587,-0.3587,-0.3587,-0.3587,-0.3587,-0.3587,-0.3587,-0.3587,0.0,0.0,0.0,0.0,0.0,0.4323,0.4437,0.4375,0.4318,0.0,0.0,0.0,0.4233,0.4153,0.4075,0.4075,0.4075,0.4075,0.4075,0.4075,0.4075,0.4075,0.4075,0.3997,0.3921,0.3921,0.3841,0.3604,0.3604,0.3528,0.3295,0.3059,0.2823,0.2589,0.2199,0.1885,0.1649,0.1257,0.1021,0.0864,0.1257,0.1659,0.1916,0.2264,0.2385,0.2345,0.246,0.2486,0.2419,0.2248,0.1816,0.1298,0.0778,0.0262,-0.0353,-0.0705,-0.1067,-0.1436,-0.1436,-0.1436,-0.1436,-0.1436,0.0,0.0,-0.1436,-0.1436,-0.1436,0.0,-0.1436,-0.1436,-0.1615,-0.1615,-0.1705,-0.1974,-0.2176,-0.2394,-0.2723,-0.2778,-0.2833,-0.2886,-0.2913,-0.2927,-0.3027,-0.3029,-0.313,-0.323,-0.323,-0.3245,-0.3282,-0.3341,-0.3375,-0.3375,-0.3399,-0.3428,-0.3461,-0.3462,-0.3478,-0.3515,-0.3515,-0.3526,-0.3549,-0.3549,-0.3564,-0.3587,-0.3587,-0.3587,-0.3587,-0.3587,-0.3587,-0.3587,-0.3587,-0.3587,-0.3587,-0.3587,-0.3587,-0.3587,0.0,0.0,0.4711,0.4833,0.4701,0.4584,0.4686,0.4621,0.4462,0.0,0.4462,0.4462,0.4384,0.4384,0.4384,0.4384,0.4384,0.4384,0.4384,0.4384,0.4384,0.4384,0.4384,0.4309,0.4157,0.4157,0.4077,0.3841,0.3841,0.3763,0.3604,0.3526,0.3292,0.2902,0.2668,0.2431,0.2275,0.2042,0.2046,0.1973,0.1893,0.1996,0.2276,0.2616,0.2772,0.287,0.3047,0.3175,0.3138,0.2691,0.2154,0.1524,0.1436,0.0807,0.0179,0.0,-0.0628,-0.1256,-0.1345,-0.1345,-0.1436,-0.1436,-0.1436,0.0,-0.1436,-0.1436,-0.1436,0.0,-0.1436,-0.1436,-0.1436,-0.1436,-0.1436,-0.1705,-0.1794,-0.1898,-0.2124,-0.2257,-0.23,-0.2348,-0.2389,-0.2516,-0.2724,-0.2725,-0.2826,-0.313,-0.313,-0.313,-0.313,-0.3178,-0.3207,-0.3207,-0.3259,-0.3289,-0.3296,-0.3296,-0.3298,-0.3305,-0.3305,-0.333,-0.3378,-0.3378,-0.3409,-0.3466,-0.3466,-0.347,-0.3475,-0.3475,-0.3587,-0.3587,-0.3587,-0.3587,-0.3587,-0.3587,-0.3587,-0.3587,0.0,0.48,0.4836,0.4958,0.4905,0.491,0.4935,0.4937,0.4859,0.4859,0.4779,0.4543,0.4384,0.4384,0.4384,0.4384,0.4384,0.4384,0.4384,0.4384,0.4384,0.4384,0.4384,0.4384,0.4307,0.4307,0.4307,0.4307,0.4155,0.3999,0.3999,0.3682,0.3448,0.337,0.3061,0.2904,0.2668,0.2669,0.2699,0.2747,0.2504,0.243,0.2612,0.3131,0.3363,0.3396,0.3454,0.3486,0.3408,0.2959,0.2689,0.251,0.1614,0.1256,0.0987,0.0179,-0.009,-0.0359,-0.0718,-0.1076,-0.1436,-0.1436,-0.1436,0.0,-0.1436,-0.1436,-0.1436,0.0,-0.1436,-0.1436,-0.1436,-0.1436,-0.1436,-0.1436,-0.1436,-0.1626,-0.2123,-0.2229,-0.2264,-0.2344,-0.2361,-0.2381,-0.2518,-0.2522,-0.2522,-0.2522,-0.2522,-0.2522,-0.2522,-0.2531,-0.2536,-0.2536,-0.2546,-0.2671,-0.2712,-0.2712,-0.2732,-0.2772,-0.2772,-0.2776,-0.2784,-0.2784,-0.2811,-0.2748,-0.2748,-0.288,-0.2918,-0.2918,-0.3141,-0.3587,-0.3587,-0.3587,-0.3587,-0.3587,-0.3587,-0.3587,0.4912,0.4925,0.4944,0.5007,0.5018,0.5018,0.5018,0.5018,0.5018,0.5018,0.4937,0.4779,0.4701,0.4776,0.4851,0.4851,0.4932,0.4932,0.4851,0.4851,0.4776,0.4701,0.4701,0.4621,0.4543,0.4543,0.4462,0.4384,0.4309,0.4231,0.4231,0.4073,0.3917,0.3763,0.353,0.3372,0.3139,0.3097,0.3054,0.3169,0.2927,0.2884,0.3118,0.3531,0.3673,0.3712,0.3929,0.3855,0.3678,0.3497,0.3136,0.2778,0.2331,0.1883,0.1525,0.0897,0.0538,0.0269,-0.0179,-0.0538,-0.0718,-0.0987,-0.1256,0.0,0.0,-0.1436,-0.1436,-0.1436,-0.1436,-0.1436,-0.1436,-0.1436,-0.1436,-0.1436,-0.1436,-0.153,-0.1729,-0.1839,-0.1865,-0.1902,-0.1923,-0.2047,-0.2186,-0.219,-0.2298,-0.242,-0.2422,-0.2422,-0.2422,-0.2422,-0.2422,-0.2422,-0.2422,-0.2432,-0.2455,-0.2455,-0.2467,-0.2489,-0.2489,-0.2501,-0.2524,-0.2524,-0.2548,-0.2593,-0.2616,-0.2638,-0.2662,-0.2684,-0.2918,-0.3141,-0.3141,-0.3141,-0.3141,-0.3141,-0.3141,-0.3141,0.5018,0.5018,0.5018,0.5018,0.5018,0.5018,0.5018,0.5018,0.5018,0.5018,0.5015,0.5093,0.5093,0.5246,0.5321,0.5321,0.5479,0.5559,0.5398,0.5321,0.5243,0.5093,0.5015,0.4937,0.4779,0.4779,0.4698,0.454,0.4462,0.4462,0.4462,0.4384,0.4309,0.4155,0.3997,0.3849,0.3712,0.3622,0.3589,0.3619,0.3458,0.3451,0.3648,0.3926,0.4064,0.4125,0.43,0.4212,0.4036,0.3948,0.3497,0.3047,0.2957,0.2599,0.2063,0.1705,0.1256,0.0807,0.0359,0.0179,0.0,0.0,0.0,-0.1076,0.0,0.0,0.0,-0.1256,-0.1256,-0.1256,-0.1346,-0.1436,0.0,-0.1436,0.0,0.0,0.0,-0.1457,0.0,-0.148,-0.1502,-0.1625,-0.1853,-0.1856,-0.1969,-0.2205,-0.2208,-0.2211,-0.222,-0.222,-0.222,-0.222,-0.222,-0.222,-0.222,-0.222,-0.222,-0.222,-0.222,-0.2238,-0.2374,-0.2374,-0.2397,-0.2441,-0.2477,-0.2392,-0.2409,-0.2554,-0.2573,-0.2581,-0.2693,-0.2693,-0.2693,-0.2693,-0.2693,-0.2692,0.5096,0.5018,0.5018,0.5018,0.5018,0.5018,0.5018,0.5018,0.5018,0.5018,0.5168,0.5243,0.5243,0.5479,0.5559,0.5559,0.5559,0.5559,0.5559,0.5401,0.5321,0.5243,0.5093,0.5018,0.4937,0.4937,0.4937,0.4937,0.4779,0.4698,0.4698,0.4462,0.4384,0.4384,0.4307,0.4358,0.4447,0.4458,0.4568,0.4741,0.4653,0.4493,0.4173,0.4522,0.4736,0.4832,0.4748,0.4659,0.4572,0.0,0.3857,0.3678,0.3317,0.2957,0.2689,0.2423,0.2064,0.1705,0.1345,0.0,0.0,0.0,0.0359,0.0,0.0,0.0,-0.0628,-0.0718,0.0,-0.0897,-0.1345,0.0,0.0,0.0,0.0,0.0,-0.1436,-0.1438,-0.1451,-0.1478,-0.1484,-0.1498,-0.1528,-0.1532,-0.164,-0.1672,-0.1675,-0.1687,-0.1716,-0.1718,-0.1718,-0.1718,-0.1718,-0.1718,-0.1718,-0.1718,-0.1718,-0.1718,-0.1718,-0.1719,-0.1723,-0.1723,-0.174,-0.1771,-0.1775,-0.1808,-0.1859,-0.1863,-0.1882,-0.1908,-0.2469,-0.2693,-0.2693,-0.2693,-0.2693,-0.2688,0.5246,0.5168,0.5168,0.5015,0.5018,0.5018,0.5018,0.5093,0.5168,0.5168,0.5323,0.5556,0.5631,0.5867,0.6025,0.6177,0.6251,0.6254,0.6028,0.5948,0.5712,0.5321,0.5246,0.5093,0.5018,0.5018,0.5018,0.5018,0.4937,0.4859,0.4859,0.4779,0.4701,0.4545,0.4688,0.4663,0.4634,0.476,0.478,0.4868,0.4925,0.4949,0.4865,0.4907,0.4921,0.501,0.4924,0.4837,0.4661,0.0,0.4125,0.0,0.0,0.0,0.3227,0.2959,0.269,0.242,0.2063,0.0,0.0,0.0,0.0,0.0,0.0718,0.0,0.0179,0.0,0.0,0.0,0.0,0.0,0.0,0.0,-0.0897,-0.0897,0.0,0.0,-0.144,-0.1453,0.0,0.0,-0.1497,-0.1515,-0.1532,-0.1544,-0.1562,-0.1478,-0.1192,-0.1406,-0.1617,-0.1617,-0.1617,-0.1617,-0.1617,-0.1617,-0.1617,-0.1617,-0.1617,-0.1617,-0.1617,-0.1617,-0.1624,-0.1637,-0.1654,-0.1676,-0.17,-0.1718,-0.1841,-0.1853,-0.2072,-0.2207,-0.2132,-0.2132,-0.223,-0.2209,0.5553,0.5398,0.5323,0.5171,0.5171,0.5171,0.5171,0.5323,0.5398,0.5398,0.5634,0.5883,0.6071,0.6393,0.6723,0.6924,0.7081,0.7003,0.6695,0.6499,0.6159,0.5686,0.5416,0.5243,0.5093,0.5015,0.5018,0.5018,0.5018,0.5018,0.5018,0.5018,0.4953,0.4828,0.4994,0.4984,0.4969,0.5222,0.531,0.5344,0.5333,0.5458,0.5549,0.528,0.5191,0.5191,0.5099,0.5013,0.4837,0.4837,0.448,0.0,0.4125,0.3944,0.3765,0.3496,0.3227,0.3047,0.2691,0.0,0.0,0.0,0.0,0.0,0.0,0.0,0.0,0.0,0.0,0.0,0.0,0.0,0.0,0.0,0.0,-0.0179,0.0,-0.0628,-0.0987,0.0,0.0,0.0,0.0,-0.1302,-0.1128,-0.1135,-0.115,-0.0968,-0.0584,-0.0893,-0.1103,-0.1203,-0.1209,-0.1111,-0.1111,-0.1212,-0.1313,-0.1313,-0.1314,-0.1415,-0.1415,-0.1415,-0.1415,-0.1416,-0.1333,-0.1344,-0.1352,-0.1475,-0.1488,-0.1601,-0.1601,-0.1517,-0.155,-0.1771,-0.1757,-0.1845,0.5941,0.5712,0.5559,0.5559,0.5559,0.5559,0.5559,0.5559,0.5559,0.5559,0.6025,0.6312,0.6451,0.7103,0.7572,0.7745,0.7761,0.7761,0.7761,0.6954,0.6464,0.6464,0.5698,0.5321,0.5321,0.5093,0.5018,0.5018,0.5018,0.5018,0.5018,0.5018,0.5075,0.5181,0.5431,0.565,0.5878,0.615,0.6312,0.6334,0.634,0.6257,0.6083,0.0,0.5644,0.5644,0.5463,0.0,0.0,0.5099,0.5008,0.0,0.0,0.0,0.0,0.0,0.0,0.0,0.0,0.0,0.0,0.2957,0.0,0.0,0.0,0.0,0.1885,0.0,0.0,0.0,0.0,0.0,0.0,0.0,0.0,0.0,0.0,0.0448,-0.0,-0.1256,-0.1436,0.0,0.0,-0.0539,-0.0091,-0.0092,-0.0093,-0.0093,-0.0095,0.0194,0.0295,-0.0,-0.01,-0.0101,-0.0101,-0.0404,-0.0505,-0.0505,-0.0707,-0.0808,-0.0808,-0.0808,-0.0808,-0.0808,-0.0809,-0.0817,-0.0831,-0.0831,-0.084,-0.096,-0.096,-0.0961,-0.0962,-0.1603,-0.1816,-0.1811,0.6556,0.6479,0.6251,0.5715,0.5637,0.5637,0.5789,0.5944,0.6103,0.6254,0.6731,0.7134,0.735,0.7773,0.8196,0.8345,0.8435,0.8271,0.802,0.7714,0.7275,0.6624,0.641,0.6099,0.5686,0.545,0.5252,0.5168,0.5093,0.5018,0.5018,0.5018,0.5159,0.5436,0.5522,0.582,0.6159,0.6508,0.6662,0.6704,0.6704,0.6615,0.6526,0.0,0.5819,0.5733,0.5644,0.5552,0.0,0.528,0.5191,0.501,0.4924,0.4832,0.4743,0.4656,0.448,0.0,0.0,0.0,0.3941,0.3851,0.0,0.0,0.0,0.0,0.0,0.0,0.0,0.0,0.0,0.0,0.0,0.0,0.0,0.0,0.0,0.1615,0.1436,0.1076,0.009,-0.0448,0.0,0.0,0.063,0.1359,0.1469,0.1485,0.1402,0.1525,0.1541,0.1445,0.1454,0.1371,0.1091,0.0991,0.0699,0.0404,0.0303,0.0303,0.0303,0.0303,0.0303,0.0303,0.0303,0.0304,0.0306,0.0306,0.0205,0.0206,0.0206,0.0206,0.0103,-0.0423,-0.0635,-0.0627,0.7096,0.7096,0.6865,0.6173,0.6096,0.6096,0.6328,0.6532,0.6805,0.704,0.7573,0.8027,0.8179,0.8704,0.9054,0.921,0.9219,0.9052,0.8795,0.8401,0.7863,0.7282,0.6895,0.6572,0.6231,0.5906,0.5702,0.5615,0.5382,0.5225,0.5225,0.5225,0.5367,0.565,0.5904,0.6269,0.6576,0.6933,0.7149,0.7319,0.7319,0.7234,0.0,0.0,0.6171,0.5819,0.0,0.573,0.5463,0.5463,0.5371,0.528,0.5191,0.5099,0.5099,0.501,0.4924,0.4835,0.4835,0.4656,0.0,0.4565,0.4385,0.0,0.4034,0.0,0.3674,0.0,0.0,0.0,0.0,0.0,0.0,0.0,0.0,0.0,0.0,0.2422,0.2422,0.2422,0.1435,0.0807,0.0807,0.0987,0.1525,0.2424,0.2363,0.2381,0.0,0.0,0.2453,0.2358,0.2374,0.2207,0.1847,0.186,0.168,0.13,0.1309,0.1414,0.1414,0.1414,0.1414,0.1414,0.1414,0.1414,0.1414,0.1414,0.1414,0.1414,0.1414,0.1414,0.1317,0.0725,0.0623,0.0821,0.7633,0.7561,0.7407,0.7096,0.6942,0.7022,0.7192,0.7407,0.7593,0.7848,0.8405,0.8917,0.9025,0.9649,1.0079,1.0274,1.012,1.0038,1.0038,0.8996,0.8389,0.8304,0.7301,0.6802,0.6712,0.6379,0.6124,0.6121,0.5874,0.571,0.571,0.571,0.5771,0.5975,0.6405,0.6827,0.7143,0.7415,0.7852,0.8288,0.8201,0.7933,0.7489,0.7234,0.671,0.618,0.618,0.5922,0.5752,0.5752,0.5752,0.566,0.5471,0.5468,0.5379,0.5102,0.501,0.501,0.501,0.5097,0.5099,0.5099,0.0,0.0,0.0,0.0,0.4659,0.0,0.0,0.0,0.0,0.0,0.0,0.0,0.0,0.0,0.0,0.2957,0.2957,0.2957,0.2601,0.2243,0.2243,0.2334,0.2603,0.2875,0.2694,0.2691,0.0,0.0,0.2862,0.2676,0.2633,0.2566,0.2287,0.2233,0.2254,0.2257,0.2398,0.2418,0.2418,0.2421,0.2422,0.2422,0.2422,0.2422,0.2422,0.2422,0.2422,0.2422,0.2422,0.2422,0.2422,0.1818,0.2019,0.2422,0.8394,0.8399,0.8394,0.8241,0.771,0.7451,0.7824,0.8036,0.8276,0.8747,0.9271,0.9666,0.9723,1.0208,1.058,1.0549,1.0554,1.0381,1.0038,0.9726,0.9265,0.857,0.8265,0.792,0.7374,0.6943,0.6723,0.6536,0.6204,0.6037,0.6037,0.6037,0.6192,0.6405,0.6748,0.709,0.7415,0.8025,0.8552,0.8995,0.8819,0.8552,0.8296,0.0,0.7674,0.7041,0.6678,0.6468,0.627,0.627,0.618,0.598,0.5796,0.5767,0.5751,0.5576,0.5638,0.5816,0.5816,0.5899,0.6074,0.6074,0.5899,0.5813,0.0,0.0,0.0,0.0,0.0,0.0,0.0,0.0,0.0,0.0,0.0,0.0,0.0,0.0,0.3941,0.3941,0.3851,0.3494,0.2778,0.2869,0.3048,0.3139,0.3229,0.3318,0.3406,0.0,0.0,0.3343,0.3361,0.3212,0.2982,0.2999,0.2934,0.2786,0.284,0.2965,0.2966,0.3008,0.3027,0.3027,0.3027,0.3027,0.3027,0.3027,0.3027,0.3027,0.3027,0.3127,0.3226,0.2623,0.2523,0.2724,0.9236,0.9236,0.9266,0.9361,0.899,0.8718,0.8686,0.8935,0.0,0.9615,1.0075,0.0,1.0544,1.1003,1.1319,1.1231,1.1321,1.1112,1.0756,1.0582,1.0093,0.9385,0.911,0.8756,0.8056,0.7707,0.7408,0.7069,0.6724,0.6465,0.6383,0.6383,0.6595,0.6843,0.7104,0.7501,0.8028,0.8899,0.934,0.9432,0.9432,0.9253,0.0,0.8845,0.8508,0.8029,0.7819,0.7292,0.6649,0.6649,0.6558,0.6452,0.6377,0.6354,0.6331,0.6207,0.6256,0.6332,0.6272,0.6343,0.6428,0.6428,0.6435,0.6438,0.6438,0.6346,0.634,0.0,0.0,0.0,0.0,0.0,0.0,0.5547,0.0,0.0,0.0,0.0,0.4921,0.4921,0.4835,0.4567,0.403,0.3762,0.3764,0.3853,0.4034,0.0,0.0,0.0,0.0,0.4125,0.4125,0.3967,0.3739,0.3774,0.3718,0.3573,0.355,0.3599,0.363,0.357,0.3504,0.3531,0.3531,0.3531,0.3531,0.3531,0.3531,0.3531,0.3531,0.363,0.3729,0.3429,0.3328,0.333,0.996,1.0068,1.0155,1.0361,1.0499,1.0284,0.0,0.9988,0.0,1.0483,0.0,1.1229,1.1505,1.1883,1.2193,1.2098,1.2202,1.2048,1.1768,1.1405,1.0953,1.041,0.9944,0.9396,0.8761,0.8496,0.8136,0.768,0.7408,0.7143,0.6969,0.6969,0.7058,0.7231,0.7499,0.8028,0.8811,0.9685,0.9864,0.9777,1.0038,0.9965,0.9754,0.9503,0.9242,0.9149,0.9136,0.8239,0.7086,0.7086,0.6991,0.6988,0.6969,0.6963,0.6935,0.6796,0.6755,0.6816,0.6582,0.6634,0.6631,0.6612,0.6789,0.6969,0.6969,0.7143,0.7228,0.7316,0.7316,0.7316,0.0,0.0,0.0,0.6349,0.0,0.0,0.0,0.0,0.5897,0.5897,0.5725,0.0,0.5549,0.4835,0.4478,0.4748,0.475,0.0,0.0,0.0,0.0,0.475,0.475,0.4659,0.4389,0.0,0.451,0.451,0.4321,0.4311,0.4395,0.4208,0.4159,0.4234,0.4234,0.4234,0.4234,0.4234,0.4234,0.4234,0.4234,0.4234,0.4234,0.4234,0.4234,0.4234,1.065,1.0931,1.1084,1.1124,1.1305,1.1436,1.1271,1.1183,1.1297,1.1701,1.1965,1.2248,1.2536,1.2598,1.2626,1.2626,1.2666,0.0,0.0,0.0,0.0,1.0891,1.061,1.0236,0.9759,0.9306,0.8787,0.0,0.0,0.7937,0.768,0.768,0.7764,0.7764,0.8201,0.8899,0.9777,0.9951,0.0,1.0467,1.0554,1.0582,1.0508,1.0346,1.0081,0.9901,0.9803,0.9064,0.8058,0.7861,0.7661,0.7438,0.7133,0.7096,0.7071,0.7127,0.7269,0.7419,0.7549,0.7692,0.7753,0.7709,0.7676,0.7764,0.7937,0.8021,0.8109,0.8285,0.8372,0.8372,0.8372,0.0,0.0,0.0,0.0,0.0,0.0,0.0,0.6874,0.6874,0.67,0.6529,0.6529,0.5547,0.4921,0.4921,0.4921,0.0,0.0,0.0,0.0,0.0,0.4921,0.0,0.0,0.0,0.486,0.486,0.4872,0.4971,0.5168,0.5156,0.5246,0.5336,0.5336,0.5336,0.5336,0.5336,0.5336,0.5336,0.5336,0.5336,0.5336,0.5336,0.5336,0.5236,1.1236,1.1438,1.1646,1.1776,1.1905,0.0,0.0,1.2307,1.2313,1.2292,1.2433,1.2739,1.2956,1.3176,1.3159,1.3159,1.3286,1.318,1.2892,1.2797,1.2455,1.1765,1.1568,1.1189,1.0519,1.0048,0.9584,0.9131,0.0,0.0,0.0,0.8201,0.8288,0.8288,0.8986,0.9598,1.0038,0.0,0.0,1.0835,1.104,1.1066,1.1025,1.1086,1.0986,1.0719,1.0635,1.0212,0.9521,0.8832,0.8432,0.8216,0.8041,0.8021,0.799,0.7941,0.809,0.8146,0.8266,0.8348,0.8355,0.836,0.8448,0.8472,0.8732,0.8815,0.899,0.9248,0.9336,0.9253,0.899,0.8727,0.0,0.0,0.0,0.0,0.0,0.0,0.7841,0.7841,0.7584,0.7323,0.7323,0.6435,0.5899,0.5719,0.0,0.0,0.0,0.0,0.0,0.0,0.0,0.0,0.0,0.0,0.0,0.5722,0.5572,0.5596,0.5616,0.5536,0.5541,0.5636,0.5636,0.5636,0.5636,0.5636,0.5636,0.5636,0.5636,0.5636,0.5636,0.5636,0.5636,0.5536,1.1762,1.1891,1.2174,1.2439,1.2487,1.2644,1.3133,1.3254,1.3112,1.2748,1.2922,1.3158,1.3401,1.3584,1.3702,1.3702,1.3897,1.3829,1.3636,1.3545,1.3256,1.2669,1.2563,1.2167,1.1291,1.0851,1.0353,0.0,0.0,0.0,0.0,0.0,0.8811,0.8899,0.9689,0.0,0.0,0.0,1.1121,1.1358,1.154,1.1673,1.1802,1.1802,1.1782,1.1557,1.1429,1.1194,1.0801,1.0019,0.9422,0.9023,0.9023,0.8924,0.9,0.8874,0.8933,0.8895,0.9001,0.9039,0.8926,0.9163,0.9195,0.9231,0.9495,0.9639,0.9864,1.0125,1.0125,1.0038,0.9607,0.9519,0.0,0.0,0.0,0.0,0.0,0.0,0.8899,0.8899,0.8464,0.8116,0.8116,0.7499,0.0,0.0,0.0,0.0,0.6428,0.0,0.0,0.0,0.0,0.652,0.652,0.0,0.652,0.6523,0.6207,0.6152,0.6183,0.5919,0.5836,0.5937,0.5937,0.5937,0.5937,0.5937,0.5937,0.5937,0.5937,0.5937,0.5937,0.5937,0.5937,0.5937,1.2276,1.2469,1.2717,0.0,0.0,1.3145,1.3435,1.3682,1.3833,1.374,1.3758,1.3866,1.4201,1.4244,1.4262,1.4262,1.4286,1.4112,1.3835,1.3835,1.3727,1.3409,1.3113,1.28,1.2267,1.2057,1.1477,0.0,0.0,0.9967,0.0,0.0,0.0,0.0,0.0,0.0,0.0,1.1241,1.163,1.2292,1.2314,1.2592,1.2995,1.2487,1.2453,1.2635,1.2073,1.178,1.1487,1.1389,1.0703,0.9821,0.9624,0.9529,0.9525,0.9805,0.9895,0.9853,0.9949,1.0165,1.0301,1.0222,1.0204,1.0225,1.0513,1.0441,1.0294,1.0554,1.0641,1.0554,1.0294,1.0207,1.012,0.0,0.0,0.0,0.0,0.0,0.9864,0.9864,0.9432,0.9174,0.9174,0.8464,0.0,0.0,0.7051,0.0,0.0,0.0,0.0,0.6792,0.0,0.7051,0.7051,0.7051,0.6966,0.6795,0.684,0.6796,0.6753,0.6879,0.7012,0.7039,0.7039,0.7039,0.7039,0.7039,0.7039,0.7039,0.7039,0.7039,0.7039,0.7039,0.7039,0.7039,0.0,0.0,0.0,0.0,0.0,0.0,0.0,1.3839,1.396,1.4123,1.4141,1.4177,1.4286,1.4298,1.4298,1.4298,1.4298,1.4298,1.4112,1.4112,1.4022,1.3738,1.3642,1.3397,1.3098,1.2753,1.2301,0.0,0.0,0.0,0.0,0.0,0.0,0.0,0.0,1.1234,1.1817,1.1904,1.222,1.2643,1.2797,1.2974,1.3168,1.3138,1.3165,1.3152,1.2759,1.2565,1.2462,1.2175,1.1487,1.0703,1.0605,1.0609,1.0605,1.0708,1.0703,1.0783,1.0993,1.0976,1.1058,1.107,1.1159,1.1136,1.1284,1.1357,1.1422,1.1456,1.1516,1.1429,1.1154,1.0982,1.0809,0.0,0.0,0.0,0.0,0.0,0.0,1.0381,1.012,0.9864,0.9864,0.9253,0.0,0.0,0.0,0.0,0.0,0.0,0.0,0.7672,0.0,0.8021,0.8021,0.8021,0.7845,0.7676,0.7749,0.7622,0.7506,0.7547,0.7684,0.764,0.764,0.764,0.764,0.7534,0.7434,0.7434,0.7434,0.7434,0.7434,0.7637,0.764,0.764,1.4276,0.0,1.4256,0.0,1.4182,1.4185,1.4266,1.4215,1.4282,1.4472,1.4496,1.4394,1.4298,1.4298,1.4298,1.4298,1.4298,1.4298,1.4298,1.4298,1.4202,1.4022,1.4022,0.0,1.3636,1.3261,1.3036,1.2958,1.2156,0.0,0.0,0.0,0.0,0.0,1.1522,1.1926,1.2433,1.2612,1.2846,1.3181,1.3362,1.3479,1.3566,1.3567,1.3636,1.3539,1.3346,1.3244,1.3152,1.2856,1.237,1.1878,1.1585,1.1585,1.159,1.1688,1.1683,1.1683,1.1878,1.1864,1.1844,1.204,1.2141,1.2102,1.2122,1.2159,1.2164,1.2008,1.2043,1.1952,1.1768,1.1591,1.1419,1.1332,0.0,0.0,0.0,1.1079,0.0,1.1079,1.0814,1.0549,1.0549,0.9946,0.0,0.0,0.0,0.0,0.0,0.0,0.0,0.0,0.0,0.0,0.8899,0.8899,0.8752,0.8456,0.857,0.855,0.8328,0.8412,0.8435,0.8435,0.8435,0.8435,0.8336,0.8134,0.8031,0.7928,0.8031,0.8031,0.8131,0.8336,0.8435,0.8435,1.4321,1.4321,1.4404,1.4679,1.4731,1.4733,1.5032,1.5077,1.5077,1.5083,1.4885,1.4592,1.4298,1.4298,1.4298,1.4298,1.4298,1.4298,1.4298,1.4298,1.4298,0.0,0.0,1.4208,1.3931,1.3931,1.3701,1.3245,0.0,0.0,1.2054,0.0,1.181,1.2143,1.232,1.2635,1.315,1.315,1.3475,1.39,1.3906,1.4063,1.4292,1.4022,1.3931,1.3835,1.3545,1.3539,1.3443,1.3443,1.3443,1.3346,1.2662,1.237,1.2467,1.2662,1.2759,1.2759,1.2759,1.2953,1.3044,1.3044,1.3143,1.3145,1.3145,1.2763,1.234,1.2008,1.2043,1.2043,1.2043,1.1957,1.1957,1.1957,0.0,0.0,0.0,1.1952,0.0,1.1952,1.1591,1.1322,1.1322,1.0636,0.0,0.0,0.0,0.0,0.0,0.0,0.0,0.9257,0.9519,0.0,0.9602,0.9602,0.9438,0.9178,0.928,0.937,0.9356,0.9543,0.9628,0.9628,0.9628,0.943,0.9137,0.9137,0.9031,0.8825,0.9031,0.9137,0.9232,0.9529,0.9628,0.9628,1.5325,1.5365,1.5297,1.5295,1.5214,1.5246,1.5064,1.5083,1.5083,1.5083,1.4987,1.4981,1.4885,1.4496,1.4298,0.0,1.4496,1.4592,0.0,1.479,1.4885,1.4885,1.4885,1.479,1.47,1.47,1.4555,1.4177,0.0,0.0,0.0,1.249,1.2586,1.2846,1.2942,1.3265,1.3692,1.3692,1.3836,1.4171,1.4171,1.422,1.4298,1.4208,1.4208,1.4208,1.4112,1.4016,1.4016,1.3829,1.3738,1.3738,1.3545,1.3346,1.3152,1.3249,1.3249,1.3249,1.3249,1.3346,1.3346,1.3346,1.3573,1.366,1.3473,1.3132,1.2833,1.275,1.2585,1.2454,1.2454,1.2369,1.2283,1.2283,1.2123,0.0,1.2043,0.0,1.2043,1.2043,1.1866,1.1774,1.1774,1.1419,0.0,0.0,0.0,0.0,0.0,0.0,0.0,0.0,1.0207,0.0,1.0386,1.0386,1.0319,1.0182,1.0379,1.0377,1.032,1.019,1.0117,1.0117,1.0117,1.0117,1.0019,0.9821,0.9723,0.962,0.9723,0.9723,0.9826,1.0216,1.0413,1.0413,1.5792,1.5832,1.573,1.5635,1.5635,1.5547,1.5363,1.5363,1.5363,1.5363,1.5267,1.5267,1.5267,1.4879,0.0,1.4592,1.479,1.4885,1.4885,1.4987,1.5083,1.5083,1.5083,1.5083,1.5083,1.5083,0.0,1.4885,1.4409,1.4001,1.3469,1.3368,1.3471,1.375,1.375,1.3994,1.4346,1.4346,1.4438,1.4592,1.4592,1.4496,1.449,1.449,1.4394,1.4298,1.4394,1.449,1.44,1.4406,1.4316,1.4316,1.4316,1.422,1.4022,1.3823,1.3823,1.3823,1.3823,1.3823,1.3823,1.3823,1.3925,1.3951,1.3684,1.3561,1.3393,1.329,1.3055,1.2862,1.2862,1.2691,1.2534,1.2534,1.2369,1.2289,1.2289,0.0,1.2289,0.0,0.0,0.0,0.0,1.1946,1.1768,0.0,0.0,0.0,0.0,0.0,0.0,1.0559,1.0738,0.0,1.0824,1.0824,1.0891,1.0935,1.1228,1.1321,1.1292,1.1096,1.0998,1.0998,1.0998,1.09,1.0801,1.0703,1.0507,1.0507,1.0609,1.0609,1.0609,1.1096,1.1292,1.1292,1.5832,1.5832,1.5832,0.0,1.5832,0.0,1.5832,1.5832,1.5832,1.5832,1.5635,1.554,1.554,1.5267,1.5178,1.5178,0.0,0.0,0.0,1.5178,1.5178,1.5178,1.5178,1.5178,1.5178,1.5178,1.5178,1.5083,1.4897,1.4763,1.4756,1.45,1.4513,1.4763,1.4763,1.4822,1.5083,1.5083,1.5083,1.5083,1.5083,1.4987,1.4688,1.4688,1.4592,1.4394,1.4592,1.4688,1.479,1.4987,1.5083,1.5083,1.5083,1.5083,1.4981,1.4496,1.4394,1.4394,1.4394,1.4394,1.4394,1.4394,1.4394,1.4327,1.4084,1.4011,1.3839,1.3592,1.3332,1.3145,1.3127,1.291,1.2729,1.2705,1.2705,1.2705,1.2705,1.2705,1.2705,0.0,0.0,0.0,0.0,1.2203,1.2129,0.0,0.0,0.0,0.0,0.0,1.0906,1.1094,1.1094,1.1094,1.1094,1.111,1.117,1.1431,1.1869,1.2078,1.2078,1.198,1.198,1.198,1.198,1.1883,1.1585,1.1585,1.1487,1.1292,1.1492,1.1585,1.1683,1.1883,1.2078,1.2078,0.0,0.0,1.5832,1.5832,1.5832,1.5832,1.5832,1.5832,1.5832,1.5832,1.573,1.573,1.573,1.5642,1.5642,1.5642,1.5452,1.5452,1.5452,1.5547,1.5642,1.5642,1.5642,1.5642,1.5642,1.5642,1.5547,1.5452,1.5102,1.4981,1.4975,1.4911,1.4918,1.4981,1.4981,1.5019,1.5083,1.5083,1.5083,1.5083,1.5083,1.5083,1.4987,1.4987,1.4981,1.4892,1.4987,1.4987,1.4987,1.5083,1.5083,1.5083,1.5083,1.5083,1.5083,1.4987,1.4885,1.4885,1.4885,1.4885,1.4885,1.4885,1.4885,1.4873,1.4804,1.4615,1.4532,1.4469,1.406,1.3631,1.341,1.3148,1.2952,1.2741,1.2705,1.2705,1.2705,1.2705,1.2705,0.0,1.2881,1.2966,1.2966,1.3058,1.2973,0.0,0.0,0.0,0.0,1.2192,1.194,1.1785,1.1785,1.1785,1.1785,1.197,1.2215,1.2427,1.2528,1.2467,1.2273,1.2078,1.198,1.198,1.198,1.198,1.1878,1.1878,1.1878,1.1785,1.1883,1.1878,1.198,1.2175,1.2273,1.237,1.6005,1.6032,1.6072,1.6206,1.6233,1.6233,1.6233,1.6119,1.6032,1.6032,1.5912,1.5832,1.5832,1.5832,1.5832,1.5832,1.573,1.5635,1.5635,1.573,1.5832,1.5832,1.5832,1.5832,1.5832,1.5832,1.5737,1.5635,1.5452,1.5458,1.5458,1.5458,1.5458,1.5458,1.5458,1.5458,1.5458,1.5458,1.5458,1.5458,1.5458,1.5363,1.5267,1.5267,1.5178,1.5083,1.5267,1.5267,1.5267,1.5363,1.5458,1.5458,1.5458,1.5458,1.5458,1.5458,1.5274,1.5083,1.5083,1.5083,1.5083,1.5083,1.5083,1.5083,1.5083,1.4956,1.4841,1.4841,1.4532,1.4195,1.4038,1.3717,1.333,1.3256,1.3132,1.3052,1.3052,1.3052,1.3052,1.3052,1.3137,1.3222,1.3222,1.3313,1.3392,1.3398,1.3398,0.0,1.313,1.3052,1.2711,1.2203,1.2037,1.2095,1.2209,1.2569,1.2796,1.298,1.3036,1.3055,1.2856,1.2759,1.2662,1.2662,1.2662,1.2662,1.2662,1.2662,1.2662,1.2662,1.2662,1.2662,1.2662,1.2861,1.2856,1.2958,1.6279,1.6339,1.642,1.666,1.6707,1.6707,1.6707,1.65,1.6339,1.6339,1.6079,1.5899,1.5899,1.5852,1.5832,1.5832,1.5832,1.5832,1.5832,1.5832,1.5832,1.5832,1.5832,1.5832,1.5832,1.5832,1.5832,1.5832,1.5832,1.5832,1.5832,1.5832,1.5832,1.5832,1.5832,1.5832,1.5832,1.5832,1.5832,1.5832,1.5832,1.573,1.554,1.554,1.5356,1.5274,1.5452,1.554,1.554,1.573,1.5832,1.5832,1.5832,1.5832,1.5832,1.5832,1.5547,1.5178,1.5178,1.5178,1.5178,1.5178,1.5178,1.5178,1.5178,1.5178,1.5178,1.5178,1.4974,1.4788,1.4743,1.4347,1.3907,1.3818,1.3614,1.3442,1.3404,0.0,1.3476,1.3476,1.3476,1.3561,1.3561,1.3561,1.3646,1.3815,1.3815,1.3815,1.3815,1.3861,1.354,1.2765,1.2433,1.2406,1.2701,1.3124,1.3362,1.3308,1.3437,1.3539,1.3539,1.3539,1.3539,1.3539,1.3539,1.3539,1.3539,1.3539,1.3539,1.3539,1.3539,1.3539,1.3539,1.3539,1.3539,1.3539,1.658,1.664,1.6653,1.67,1.6707,1.6707,1.6707,1.6667,1.664,1.664,1.6386,1.6206,1.6206,1.5979,1.5832,1.5832,1.5832,1.5832,1.5832,1.5832,1.5832,1.5832,1.5832,1.5832,1.5832,1.5832,1.5832,1.5832,1.5832,1.5832,1.5832,1.5832,1.5832,1.5832,1.5832,1.5832,1.5832,1.5832,1.5832,1.5832,1.5832,1.5737,1.5737,1.5737,1.5737,1.5737,1.573,1.5737,1.573,1.5825,1.5832,1.5832,1.5832,1.5832,1.5832,1.5832,1.5737,1.5737,1.5737,1.5737,1.5737,1.5737,1.5737,1.5737,1.5737,1.5737,1.5737,1.5737,1.5507,1.5308,1.5067,1.4759,1.4358,1.3881,1.3773,1.3665,1.343,0.0,1.3652,1.3652,1.3984,1.423,1.423,1.4398,1.4482,1.4566,1.4566,1.4566,1.4566,1.4644,1.4609,1.4515,1.3828,1.364,1.397,1.4056,1.4026,1.3776,1.3817,1.3738,1.3539,1.3539,1.3539,1.3539,1.3539,1.3539,1.3539,1.3539,1.3539,1.3539,1.3539,1.3539,1.3539,1.3539,1.3539,1.3539,1.7392,1.7447,1.7401,1.7558,1.749,1.7394,1.7394,1.715,1.6947,1.6947,1.6687,1.6446,1.6293,1.6152,1.6005,1.5845,1.5832,1.5832,1.5832,1.5832,1.5832,1.5832,1.5832,1.5832,1.5832,1.5832,1.5832,1.5832,1.5832,1.5832,1.5832,1.5832,1.5832,1.5832,1.5832,1.5832,1.5832,1.5832,1.5832,1.5832,1.5832,1.5832,1.5832,1.5832,1.5832,1.5832,1.5832,1.5832,1.5832,1.5832,1.5832,1.5832,1.5832,1.5832,1.5832,1.5832,1.5832,1.5832,1.5832,1.5832,1.5832,1.5832,1.5832,1.5832,1.5832,1.5832,1.5832,1.5832,1.573,1.5596,1.5464,1.5405,1.5219,1.4947,1.4856,0.0,0.0,1.4575,1.4566,1.4744,1.4761,1.4824,1.4894,1.4977,1.5144,1.5235,1.5401,1.5587,1.5587,1.5807,1.5893,1.5805,1.4897,1.4572,1.4743,1.4716,1.4671,1.4508,1.4508,1.4508,1.4406,1.4406,1.431,1.4112,1.4112,1.4016,1.3919,1.3919,1.3919,1.3919,1.3919,1.3919,1.3919,1.3919,1.3919,1.3919,1.8016,1.8072,1.8149,1.838,1.822,1.8122,1.8122,1.7707,1.7455,1.7455,1.7198,1.692,1.6697,1.6549,1.6373,1.6143,1.6062,1.6021,1.6021,1.6021,1.592,1.5832,1.5832,1.5832,1.5832,1.5832,1.5832,1.5832,1.5832,1.5832,1.5832,1.5832,1.5832,1.5832,1.5832,1.5832,1.5832,1.5832,1.5832,1.5832,1.5832,1.5832,1.5832,1.5832,1.5927,1.5927,1.592,1.6021,1.6021,1.6021,1.6021,1.6021,1.6021,1.6021,1.5927,1.5927,1.5927,1.5927,1.5832,1.5832,1.5832,1.5832,1.5832,1.5927,1.5927,1.5927,1.6021,1.6021,1.6021,1.6021,1.6021,1.6026,1.5948,1.5879,0.0,0.0,0.0,1.5637,1.5662,1.585,1.5711,1.5727,1.5873,1.5958,1.6049,1.6217,1.6468,1.6705,1.6705,1.6938,1.7062,1.6959,1.5944,1.5424,1.5491,1.5347,1.5363,1.5267,1.5267,1.5267,1.5172,1.5172,1.5077,1.479,1.479,1.4694,1.449,1.449,1.449,1.449,1.449,1.449,1.449,1.449,1.449,1.4496,1.8331,1.8387,1.8394,1.8422,1.8422,1.8422,1.8422,1.8297,1.8283,1.8283,1.8018,1.7925,1.7904,1.7393,1.7043,1.7022,1.6749,1.6581,1.6581,1.6581,1.6305,1.5825,1.5832,1.5832,1.5832,1.5832,1.5832,1.5832,1.5832,1.5832,1.5832,1.5832,1.5832,1.5832,1.5832,1.5832,1.5832,1.5832,1.5832,1.5832,1.5832,1.5832,1.5832,1.6123,1.613,1.6218,1.6494,1.6581,1.6581,1.6581,1.6581,1.6581,1.6581,1.6581,1.6494,1.6218,1.613,1.6123,1.5832,1.5832,1.5832,1.5832,1.6028,1.613,1.613,1.64,1.6581,1.6581,1.6581,1.6581,1.6581,1.6567,1.6462,1.6183,0.0,0.0,1.6145,1.6448,1.6705,1.6705,1.7033,1.7367,1.7367,1.7534,1.7707,1.7707,1.7731,1.7747,1.7747,1.8073,1.8226,1.8356,1.7095,1.6451,1.6452,1.6278,1.6008,1.5737,1.5737,1.5635,1.5343,1.5343,1.5261,1.5083,1.5083,1.5083,1.5083,1.5083,1.5083,1.5083,1.5083,1.5083,1.5083,1.5083,1.5083,1.5083,1.9435,1.9457,1.9457,1.9457,1.9361,1.9257,1.9257,1.8945,1.8624,1.8624,1.8421,1.8177,1.7988,1.7757,1.747,1.7085,1.6938,1.6791,1.6595,1.6588,1.6487,1.6298,1.6298,1.6298,1.6298,1.6298,1.6298,1.6298,1.6298,1.6298,1.6298,1.6298,1.6298,1.6298,1.6298,1.6298,1.6298,1.6298,1.6298,1.6298,1.6298,1.6298,1.6298,1.64,1.6407,1.6494,1.6588,1.6588,1.6588,1.6588,1.6588,1.6588,1.6588,1.6588,1.6588,1.6494,1.6407,1.64,1.6305,1.6298,1.6298,1.6298,1.64,1.6407,1.6407,1.6494,1.6683,1.6784,1.6878,1.6878,1.7052,1.7153,1.721,1.7186,0.0,1.7659,1.7614,1.7702,1.7749,1.7927,1.7906,1.7953,1.8127,1.8213,1.83,1.83,1.8425,1.8555,1.8555,1.8897,1.9157,1.9204,1.8517,1.7857,1.7254,1.7052,1.6857,1.677,1.677,1.6581,1.64,1.64,1.6204,1.5825,1.5825,1.5737,1.5547,1.5547,1.5547,1.5547,1.5547,1.5547,1.5547,1.5547,1.5547,1.5547,2.0395,2.0395,2.0395,2.0395,2.0189,2.0094,1.999,1.9569,1.925,1.9242,1.9042,1.8858,1.8642,1.8542,1.8268,1.7728,1.7592,1.7397,1.7073,1.7052,1.6958,1.6581,1.6588,1.6588,1.6588,1.6588,1.6588,1.6588,1.6588,1.6588,1.6588,1.6588,1.6588,1.6588,1.6683,1.6683,1.6683,1.677,1.6864,1.6864,1.6864,1.6864,1.6864,1.6871,1.6965,1.6965,1.7059,1.7052,1.7052,1.7052,1.7052,1.7052,1.7052,1.7059,1.6965,1.6965,1.6965,1.6965,1.6965,1.7059,1.7059,1.6777,1.6777,1.6864,1.6965,1.7059,1.7153,1.7347,1.7441,1.7527,1.7606,1.79,1.8094,1.8094,1.845,1.8727,1.8727,1.8704,1.8831,1.9093,1.896,1.8979,1.9163,1.925,1.9329,1.9329,1.9487,1.963,1.963,1.9884,1.9936,1.9853,1.9654,1.9104,1.828,1.7994,1.7792,1.7792,1.7699,1.752,1.7347,1.7261,1.6965,1.6567,1.6567,1.648,1.6298,1.6298,1.6298,1.6298,1.6298,1.6298,1.6298,1.6298,1.6298,1.6298,2.0917,2.0917,2.0917,2.0917,2.0917,2.0822,2.0514,2.0522,2.0411,2.0189,2.0086,2.0086,2.0086,1.9796,1.9475,1.9132,1.8796,1.8453,1.8109,1.8087,1.7621,1.6683,1.6581,1.6588,1.6588,1.6588,1.6588,1.6588,1.6588,1.6588,1.6588,1.6588,1.6588,1.6581,1.6885,1.6979,1.6979,1.7239,1.7333,1.7333,1.7333,1.7333,1.7333,1.7628,1.7729,1.7721,1.7994,1.8087,1.8087,1.8087,1.8087,1.8087,1.8087,1.79,1.7729,1.7729,1.7729,1.7729,1.7729,1.7908,1.79,1.716,1.7153,1.7426,1.7628,1.79,1.8087,1.8087,1.8357,1.8542,1.8542,1.8635,1.8827,1.8827,1.9004,1.9188,1.9188,1.9479,1.9671,1.9837,2.011,2.0382,2.0654,2.0916,2.0997,2.0997,2.0997,2.0997,2.0997,2.0997,2.0817,2.0292,2.0292,2.0119,1.9587,1.9112,1.8827,1.8827,1.8635,1.8357,1.8087,1.7815,1.7527,1.7333,1.7333,1.7333,1.7333,1.7333,1.7333,1.7333,1.7333,1.7333,1.7333,1.7333,1.7333,1.7333,2.2021,2.2021,2.2021,2.2021,2.1827,2.1725,2.1623,2.1326,2.1019,2.0909,2.0814,2.0712,2.0712,2.0523,2.0326,1.9728,1.9579,1.9272,1.8589,1.855,1.8458,1.8172,1.78,1.7613,1.7613,1.7613,1.7613,1.7613,1.7613,1.7613,1.7613,1.7613,1.7613,1.7621,1.7714,1.79,1.8087,1.8079,1.8257,1.8357,1.8357,1.8357,1.8357,1.8458,1.8458,1.8458,1.855,1.855,1.855,1.855,1.855,1.855,1.855,1.855,1.8458,1.8458,1.8458,1.8458,1.8458,1.855,1.8458,1.79,1.7986,1.8164,1.8265,1.845,1.8643,1.8819,1.8912,1.9012,1.9204,1.9304,1.9396,1.9563,1.9837,2.0019,2.0192,2.0464,2.0645,2.0637,2.0727,2.0817,2.0907,2.0997,2.0997,2.0997,2.0997,2.0997,2.0997,2.0997,2.0907,2.0826,2.0817,2.0736,2.0555,1.9754,1.9396,1.9396,1.9304,1.9104,1.8912,1.8819,1.8635,1.8357,1.8357,1.8357,1.8357,1.8357,1.8357,1.8357,1.8357,1.8357,1.8357,1.8357,1.8357,1.8357,2.2837,2.2837,2.2837,2.2837,2.2736,2.2535,2.2426,2.2123,2.192,2.1827,2.1623,2.1522,2.1522,2.1522,2.1235,2.0508,2.0189,1.9837,1.9404,1.9371,1.9371,1.9371,1.9096,1.8819,1.8365,1.8365,1.8365,1.8365,1.8365,1.8365,1.8365,1.8365,1.8365,1.8365,1.8458,1.8635,1.8904,1.9004,1.9188,1.9371,1.9371,1.9371,1.9371,1.9371,1.9371,1.9371,1.9371,1.9371,1.9371,1.9371,1.9371,1.9371,1.9371,1.9371,1.9371,1.9371,1.9371,1.9371,1.9371,1.9371,1.9379,1.9004,1.8904,1.9004,1.9004,1.9188,1.9471,1.9554,1.9737,1.9828,2.0027,2.0119,2.0201,2.0292,2.0464,2.0645,2.0826,2.0907,2.0997,2.1186,2.1195,2.1186,2.1275,2.1275,2.1275,2.1275,2.1275,2.1275,2.1275,2.1275,2.1275,2.1195,2.1195,2.1096,2.0997,2.0464,2.011,2.011,1.9936,1.9754,1.9654,1.9471,1.9296,1.9112,1.9112,1.9112,1.9112,1.9112,1.9112,1.9112,1.9112,1.9112,1.9112,1.9112,1.9112,1.9112,2.3546,2.3546,2.3546,2.3546,2.3546,2.3447,2.3129,2.3029,2.2929,2.2627,2.2627,2.2627,2.2627,2.2627,2.2326,2.1569,2.0812,2.0382,2.0382,2.0382,2.0382,2.0382,2.0473,2.0019,1.9104,1.9012,1.892,1.892,1.892,1.892,1.892,1.892,1.892,1.892,1.9188,1.9463,1.9729,1.9928,2.011,2.0374,2.0374,2.0374,2.0374,2.0374,2.0374,2.0374,2.0374,2.0374,2.0374,2.0374,2.0374,2.0374,2.0374,2.0374,2.0374,2.0374,2.0374,2.0374,2.0374,2.0374,2.0374,2.0374,2.0102,1.9828,1.9928,2.0201,2.0374,2.0374,2.0564,2.0744,2.0744,2.0916,2.0997,2.0997,2.0997,2.0997,2.1087,2.1087,2.1186,2.1392,2.1392,2.1482,2.1651,2.1741,2.1741,2.1741,2.1741,2.1741,2.1741,2.1741,2.1651,2.1392,2.1392,2.1293,2.1087,2.1087,2.1087,2.0988,2.0555,2.0374,2.0382,1.9945,1.977,1.977,1.977,1.977,1.977,1.977,1.977,1.977,1.977,1.977,1.977,1.977,1.9787,1.982,2.4538,2.4538,2.4538,2.4538,2.444,2.4233,2.4134,2.3827,2.3529,2.3429,2.3338,2.3247,2.3247,2.3247,2.2929,2.2143,2.1265,2.0916,2.1122,2.1122,2.1203,2.1374,2.1374,2.1284,2.1105,2.0374,2.0019,2.0019,2.0019,2.0019,2.0019,2.0019,2.0019,2.0019,2.0019,2.0192,2.0464,2.0473,2.0645,2.0817,2.0817,2.0817,2.0817,2.0817,2.0817,2.0817,2.0817,2.0817,2.0817,2.0817,2.0817,2.0817,2.0817,2.0817,2.0817,2.0817,2.0817,2.0817,2.0817,2.0817,2.0817,2.0817,2.1096,2.1105,2.0654,2.0736,2.0817,2.0817,2.0907,2.0907,2.0907,2.0997,2.1087,2.1293,2.1293,2.1383,2.1553,2.1553,2.1553,2.1651,2.1651,2.1651,2.1741,2.1741,2.1741,2.1741,2.1741,2.1741,2.1741,2.1741,2.1651,2.1651,2.1651,2.1651,2.1553,2.1553,2.1365,2.0997,2.0907,2.0817,2.0817,2.0736,2.0736,2.0736,2.0736,2.0736,2.0736,2.0736,2.0736,2.0736,2.0736,2.0736,2.0736,2.0736,2.0928,2.1243,2.4932,2.4932,2.4932,2.4932,2.4735,2.4726,2.4726,2.443,2.4233,2.4233,2.4134,2.4143,2.4143,2.4143,2.3813,2.2997,2.2364,2.1933,2.1839,2.1919,2.1909,2.1998,2.1998,2.1998,2.1998,2.1544,2.1186,2.0925,2.0925,2.0925,2.0925,2.0925,2.0925,2.0925,2.0925,2.1105,2.1374,2.1374,2.1454,2.1624,2.1624,2.1624,2.1624,2.1624,2.1624,2.1624,2.1624,2.1624,2.1624,2.1624,2.1624,2.1624,2.1624,2.1624,2.1624,2.1624,2.1624,2.1624,2.1624,2.1624,2.1624,2.1624,2.1811,2.1909,2.1284,2.1454,2.1624,2.1624,2.1624,2.1624,2.1624,2.1624,2.1722,2.183,2.1839,2.1741,2.1919,2.1741,2.1741,2.1741,2.1741,2.1741,2.1741,2.1741,2.1741,2.1741,2.1741,2.1741,2.1741,2.1741,2.1741,2.1741,2.1741,2.1823,2.2016,2.2016,2.1935,2.1933,2.1464,2.1195,2.1195,2.1096,2.0997,2.0997,2.0997,2.0997,2.0997,2.0997,2.1112,2.1281,2.1281,2.1396,2.1556,2.1556,2.1689,2.1928,2.5039,2.5039,2.5039,2.5039,2.5039,2.5039,2.5039,2.503,2.4941,2.4941,2.4932,2.4932,2.4932,2.4875,2.4515,2.3739,2.3303,2.2886,2.247,2.2441,2.2441,2.252,2.252,2.252,2.252,2.252,2.2264,2.182,2.182,2.182,2.182,2.182,2.182,2.182,2.182,2.1909,2.2185,2.2185,2.2264,2.2441,2.2441,2.2441,2.2441,2.2441,2.2441,2.2441,2.2441,2.2441,2.2441,2.2441,2.2441,2.2441,2.2441,2.2441,2.2441,2.2441,2.2441,2.2441,2.2441,2.2441,2.2441,2.2441,2.2432,2.2353,2.2008,2.2176,2.2441,2.2441,2.2441,2.2441,2.2441,2.2441,2.2441,2.2441,2.2264,2.2185,2.2185,2.2008,2.182,2.182,2.182,2.1741,2.1741,2.1741,2.1741,2.1741,2.1741,2.1741,2.1741,2.1741,2.1768,2.1832,2.1841,2.2034,2.2428,2.2437,2.2612,2.2857,2.2098,2.169,2.169,2.1391,2.1292,2.1292,2.1292,2.1292,2.1292,2.1292,2.1488,2.1799,2.1799,2.1995,2.2375,2.2438,2.2464,2.2518,2.5635,2.5635,2.5635,2.5635,2.5635,2.5635,2.5635,2.543,2.5235,2.5235,2.5039,2.4932,2.4932,2.4619,2.4212,2.372,2.3303,2.2986,2.2735,2.2715,2.2794,2.2969,2.3047,2.3047,2.3047,2.3047,2.2794,2.2353,2.2353,2.2353,2.2353,2.2353,2.2353,2.2353,2.2353,2.2353,2.2353,2.2353,2.2353,2.2441,2.2441,2.2441,2.2441,2.2441,2.2441,2.2441,2.2441,2.2441,2.2441,2.2441,2.2441,2.2441,2.2441,2.2441,2.2441,2.2441,2.2441,2.2441,2.2441,2.2441,2.2441,2.2441,2.253,2.2715,2.2715,2.253,2.2441,2.2441,2.2441,2.2441,2.2441,2.2441,2.2441,2.2441,2.2353,2.2353,2.2353,2.2353,2.2353,2.2353,2.2185,2.2008,2.2008,2.183,2.1741,2.1741,2.1741,2.1741,2.1741,2.1741,2.1896,2.2236,2.2245,2.2447,2.2774,2.2774,2.2802,2.2857,2.2747,2.2701,2.2701,2.2692,2.2599,2.2599,2.2599,2.2599,2.2599,2.2599,2.2729,2.268,2.268,2.2717,2.2808,2.324,2.3359,2.3423,2.5742,2.5742,2.5742,2.5742,2.5742,2.5742,2.5742,2.5635,2.5538,2.5538,2.544,2.5342,2.5342,2.5179,2.489,2.4542,2.4108,2.3683,2.3357,2.3105,2.2969,2.3135,2.3135,2.3135,2.3135,2.3135,2.2969,2.2794,2.2794,2.2794,2.2794,2.2794,2.2794,2.2794,2.2794,2.2794,2.2794,2.2794,2.2794,2.2794,2.2794,2.2794,2.2794,2.2794,2.2794,2.2794,2.2794,2.2794,2.2794,2.2794,2.2794,2.2794,2.2794,2.2794,2.2794,2.2794,2.2794,2.2794,2.2794,2.2794,2.2794,2.2794,2.2882,2.2969,2.2969,2.2882,2.2794,2.2794,2.2794,2.2794,2.2794,2.2794,2.2794,2.2794,2.2706,2.2618,2.2618,2.253,2.2441,2.2441,2.2353,2.2264,2.2264,2.2176,2.2087,2.2087,2.2302,2.2522,2.2522,2.2737,2.2943,2.3121,2.3121,2.3233,2.3472,2.3472,2.3496,2.3629,2.3629,2.3391,2.2857,2.2857,2.2857,2.2857,2.2857,2.2857,2.2857,2.2857,2.2984,2.3281,2.3281,2.3428,2.3648,2.3822,2.3877,2.3904]}]]